[[{"header":{"parameterUnit":"m.s-1","parameterCategory":1,"la1":31.0,"la2":29.5877,"lo1":-88.7671,"lo2":-86.6584,"dy":0.0162,"dx":0.0185,"nx":115,"ny":88,"refTime":"2026-03-29T12:00:00:Z","depth":0,"parameterNumber":2,"parameterNumberName":"U-component_of_WINDS"},"data":[0.0,0.0,0.0,0.0,0.0,0.0,0.0,0.0,0.0,0.0,0.0,0.0,0.0,0.0,0.0,0.0,0.0,0.0,0.0,0.0,0.0,0.0,0.0,0.0,0.0,0.0,0.0,0.0,0.0,0.0,0.0,0.0,0.0,0.0,0.0,0.0,0.0,0.0,0.0,0.0,0.0,0.0,0.0,0.0,0.0,0.0,0.0,0.0,0.0,0.0,0.0,0.0,0.0,0.0,0.0,0.0,0.0,0.0,0.0,0.0,0.0,0.0,0.0,0.0,0.0,0.0,0.0,0.0,0.0,0.0,0.0,0.0,0.0,0.0,0.0,0.0,0.0,0.0,0.0,0.0,0.0,0.0,0.0,0.0,0.0,0.0,0.0,0.0,0.0,0.0,0.0,0.0,0.0,0.0,0.0,0.0,0.0,0.0,0.0,0.0,0.0,0.0,0.0,0.0,0.0,0.0,0.0,0.0,0.0,0.0,0.0,0.0,0.0,0.0,0.0,0.0,0.0,0.0,0.0,0.0,0.0,0.0,0.0,0.0,0.0,0.0,0.0,0.0,0.0,0.0,0.0,0.0,0.0,0.0,0.0,0.0,0.0,0.0,0.0,0.0,0.0,0.0,0.0,0.0,0.0,0.0,0.0,0.0,0.0,0.0,0.0,0.0,0.0,0.0,0.0,0.0,0.0,0.0,0.0,0.0,0.0,0.0,0.0,0.0,0.0,0.0,0.0,0.0,0.0,0.0,0.0,0.0,0.0,0.0,0.0,0.0,0.0,0.0,0.0,0.0,0.0,0.0,0.0,0.0,0.0,0.0,0.0,0.0,0.0,0.0,0.0,0.0,0.0,0.0,0.0,0.0,0.0,0.0,0.0,0.0,0.0,0.0,0.0,0.0,0.0,0.0,0.0,0.0,0.0,0.0,0.0,0.0,0.0,0.0,0.0,0.0,0.0,0.0,0.0,0.0,0.0,0.0,0.0,0.0,0.0,0.0,0.0,0.0,0.0,0.0,0.0,0.0,0.0,0.0,0.0,0.0,0.0,0.0,0.0,0.0,0.0,0.0,0.0,0.0,0.0,0.0,0.0,0.0,0.0,0.0,0.0,0.0,0.0,0.0,0.0,0.0,0.0,0.0,0.0,0.0,0.0,0.0,0.0,0.0,0.0,0.0,0.0,0.0,0.0,0.0,0.0,0.0,0.0,0.0,0.0,0.0,0.0,0.0,0.0,0.0,0.0,0.0,0.0,0.0,0.0,0.0,0.0,0.0,0.0,0.0,0.0,0.0,0.0,0.0,0.0,0.0,0.0,0.0,0.0,0.0,0.0,0.0,0.0,0.0,0.0,0.0,0.0,0.0,0.0,0.0,0.0,0.0,0.0,0.0,0.0,0.0,0.0,0.0,0.0,0.0,0.0,0.0,0.0,0.0,0.0,0.0,0.0,0.0,0.0,0.0,0.0,0.0,0.0,0.0,0.0,0.0,0.0,0.0,0.0,0.0,0.0,0.0,0.0,0.0,0.0,0.0,0.0,0.0,0.0,0.0,0.0,0.0,0.0,0.0,0.0,0.0,0.0,0.0,0.0,0.0,0.0,0.0,0.0,0.0,0.0,0.0,0.0,0.0,0.0,0.0,0.0,0.0,0.0,0.0,0.0,0.0,0.0,0.0,0.0,0.0,0.0,0.0,0.0,0.0,0.0,0.0,0.0,0.0,0.0,0.0,0.0,0.0,0.0,0.0,0.0,0.0,0.0,0.0,0.0,0.0,0.0,0.0,0.0,0.0,0.0,0.0,0.0,0.0,0.0,0.0,0.0,0.0,0.0,0.0,0.0,0.0,0.0,0.0,0.0,0.0,0.0,0.0,0.0,0.0,0.0,0.0,0.0,0.0,0.0,0.0,0.0,0.0,0.0,0.0,0.0,0.0,0.0,0.0,0.0,0.0,0.0,0.0,0.0,0.0,0.0,0.0,0.0,0.0,0.0,0.0,0.0,0.0,0.0,0.0,0.0,0.0,0.0,0.0,0.0,0.0,0.0,0.0,0.0,0.0,0.0,0.0,0.0,0.0,0.0,0.0,0.0,0.0,0.0,0.0,0.0,0.0,0.0,0.0,0.0,0.0,0.0,0.0,0.0,0.0,0.0,0.0,0.0,0.0,0.0,0.0,0.0,0.0,0.0,0.0,0.0,0.0,0.0,0.0,0.0,0.0,0.0,0.0,0.0,0.0,0.0,0.0,0.0,0.0,0.0,0.0,0.0,0.0,0.0,0.0,0.0,0.0,0.0,0.0,0.0,0.0,0.0,0.0,0.0,0.0,0.0,0.0,0.0,0.0,0.0,0.0,0.0,0.0,0.0,0.0,0.0,0.0,0.0,0.0,0.0,0.0,0.0,0.0,0.0,0.0,0.0,0.0,0.0,0.0,0.0,0.0,0.0,0.0,0.0,0.0,0.0,0.0,0.0,0.0,0.0,0.0,0.0,0.0,0.0,0.0,0.0,0.0,0.0,0.0,0.0,0.0,0.0,0.0,0.0,0.0,0.0,0.0,0.0,0.0,0.0,0.0,0.0,0.0,0.0,0.0,0.0,0.0,0.0,0.0,0.0,0.0,0.0,0.0,0.0,0.0,0.0,0.0,0.0,0.0,0.0,0.0,0.0,0.0,0.0,0.0,0.0,0.0,0.0,0.0,0.0,0.0,0.0,0.0,0.0,0.0,0.0,0.0,0.0,0.0,0.0,0.0,0.0,0.0,0.0,0.0,0.0,0.0,0.0,0.0,0.0,0.0,0.0,0.0,0.0,0.0,0.0,0.0,0.0,0.0,0.0,0.0,0.0,0.0,0.0,0.0,0.0,0.0,0.0,0.0,0.0,0.0,0.0,0.0,0.0,0.0,0.0,0.0,0.0,0.0,0.0,0.0,0.0,0.0,0.0,0.0,0.0,0.0,0.0,0.0,0.0,0.0,0.0,0.0,0.0,0.0,0.0,0.0,0.0,0.0,0.0,0.0,0.0,0.0,0.0,0.0,0.0,0.0,0.0,0.0,0.0,0.0,0.0,0.0,0.0,0.0,0.0,0.0,0.0,0.0,0.0,0.0,0.0,0.0,0.0,0.0,0.0,0.0,0.0,0.0,0.0,0.0,0.0,0.0,0.0,0.0,0.0,0.0,0.0,0.0,0.0,0.0,0.0,0.0,0.0,0.0,0.0,0.0,0.0,0.0,0.0,0.0,0.0,0.0,0.0,0.0,0.0,0.0,0.0,0.0,0.0,0.0,0.0,0.0,0.0,0.0,0.0,0.0,0.0,0.0,0.0,0.0,0.0,0.0,0.0,0.0,0.0,0.0,0.0,0.0,0.0,0.0,0.0,0.0,0.0,0.0,0.0,0.0,0.0,0.0,0.0,0.0,0.0,0.0,0.0,0.0,0.0,0.0,0.0,0.0,0.0,0.0,0.0,0.0,0.0,0.0,0.0,0.0,0.0,0.0,0.0,0.0,0.0,0.0,0.0,0.0,0.0,0.0,0.0,0.0,0.0,0.0,0.0,0.0,0.0,0.0,0.0,0.0,0.0,0.0,0.0,0.0,0.0,0.0,0.0,0.0,0.0,0.0,0.0,0.0,0.0,0.0,0.0,0.0,0.0,0.0,0.0,0.0,0.0,0.0,0.0,0.0,0.0,0.0,0.0,0.0,0.0,0.0,0.0,0.0,0.0,0.0,0.0,0.0,0.0,0.0,0.0,0.0,0.0,0.0,0.0,0.0,0.0,0.0,0.0,0.0,0.0,0.0,0.0,0.0,0.0,0.0,0.0,0.0,0.0,0.0,0.0,0.0,0.0,0.0,0.0,0.0,0.0,0.0,0.0,0.0,0.0,0.0,0.0,0.0,0.0,0.0,0.0,0.0,0.0,0.0,0.0,0.0,0.0,0.0,0.0,0.0,0.0,0.0,0.0,0.0,0.0,0.0,0.0,0.0,0.0,0.0,0.0,0.0,0.0,0.0,0.0,0.0,0.0,0.0,0.0,0.0,0.0,0.0,0.0,0.0,0.0,0.0,0.0,0.0,0.0,0.0,0.0,0.0,0.0,0.0,0.0,0.0,0.0,0.0,0.0,0.0,0.0,0.0,0.0,0.0,0.0,0.0,0.0,0.0,0.0,0.0,0.0,0.0,0.0,0.0,0.0,0.0,0.0,0.0,0.0,0.0,0.0,0.0,0.0,0.0,0.0,0.0,0.0,0.0,0.0,0.0,0.0,0.0,0.0,0.0,0.0,0.0,-1.5693,0.0,0.0,0.0,0.0,0.0,0.0,0.0,0.0,0.0,0.0,0.0,0.0,0.0,0.0,0.0,0.0,0.0,0.0,0.0,0.0,0.0,0.0,0.0,0.0,0.0,0.0,0.0,0.0,0.0,0.0,0.0,0.0,0.0,0.0,0.0,0.0,0.0,0.0,0.0,0.0,0.0,0.0,0.0,0.0,0.0,0.0,0.0,0.0,0.0,0.0,0.0,0.0,0.0,0.0,0.0,0.0,0.0,0.0,0.0,0.0,0.0,0.0,0.0,0.0,0.0,0.0,0.0,0.0,0.0,0.0,0.0,0.0,0.0,0.0,0.0,0.0,0.0,0.0,0.0,0.0,0.0,0.0,0.0,0.0,0.0,0.0,0.0,0.0,0.0,0.0,0.0,0.0,0.0,0.0,0.0,0.0,0.0,0.0,0.0,0.0,0.0,0.0,0.0,0.0,0.0,0.0,0.0,0.0,0.0,0.0,-1.6565,-1.6522,-1.6249,-1.6145,-1.6145,0.0,0.0,0.0,0.0,0.0,0.0,0.0,0.0,0.0,0.0,0.0,0.0,0.0,0.0,0.0,0.0,0.0,0.0,0.0,0.0,0.0,0.0,0.0,0.0,0.0,0.0,0.0,0.0,0.0,0.0,0.0,0.0,0.0,0.0,0.0,0.0,0.0,0.0,0.0,0.0,0.0,0.0,0.0,0.0,0.0,0.0,0.0,0.0,0.0,0.0,0.0,0.0,0.0,0.0,0.0,0.0,0.0,0.0,0.0,0.0,0.0,0.0,0.0,0.0,0.0,0.0,0.0,0.0,0.0,0.0,0.0,0.0,0.0,0.0,0.0,0.0,0.0,0.0,0.0,0.0,0.0,0.0,0.0,0.0,0.0,0.0,0.0,0.0,0.0,0.0,0.0,0.0,0.0,0.0,0.0,0.0,0.0,0.0,0.0,0.0,0.0,0.0,0.0,0.0,0.0,0.0,0.0,0.0,0.0,0.0,0.0,0.0,-1.65,-1.6425,-1.6346,0.0,0.0,0.0,0.0,0.0,0.0,0.0,0.0,0.0,0.0,0.0,0.0,0.0,0.0,0.0,0.0,0.0,0.0,0.0,0.0,0.0,0.0,0.0,0.0,0.0,0.0,0.0,0.0,0.0,0.0,0.0,0.0,0.0,0.0,0.0,0.0,0.0,0.0,0.0,0.0,0.0,0.0,0.0,0.0,0.0,0.0,0.0,0.0,0.0,0.0,0.0,0.0,0.0,0.0,0.0,0.0,0.0,0.0,0.0,0.0,0.0,0.0,0.0,0.0,0.0,0.0,0.0,0.0,0.0,0.0,0.0,0.0,0.0,0.0,0.0,0.0,0.0,0.0,0.0,0.0,0.0,0.0,0.0,0.0,0.0,0.0,0.0,0.0,0.0,0.0,0.0,0.0,0.0,0.0,0.0,0.0,0.0,0.0,0.0,0.0,0.0,0.0,0.0,0.0,0.0,0.0,0.0,0.0,0.0,0.0,-1.6633,-1.65,-1.6525,0.0,-1.5819,0.0,0.0,0.0,0.0,0.0,0.0,0.0,0.0,0.0,0.0,0.0,0.0,0.0,0.0,0.0,0.0,0.0,0.0,0.0,0.0,0.0,0.0,0.0,0.0,0.0,0.0,0.0,0.0,0.0,0.0,0.0,0.0,0.0,0.0,0.0,0.0,0.0,0.0,0.0,0.0,0.0,0.0,0.0,0.0,0.0,0.0,0.0,0.0,0.0,0.0,0.0,0.0,0.0,0.0,0.0,0.0,0.0,0.0,0.0,0.0,0.0,0.0,0.0,0.0,0.0,0.0,0.0,0.0,0.0,0.0,0.0,0.0,0.0,0.0,0.0,0.0,0.0,0.0,0.0,0.0,0.0,0.0,0.0,0.0,0.0,0.0,0.0,0.0,0.0,0.0,0.0,0.0,0.0,0.0,0.0,0.0,0.0,0.0,0.0,0.0,0.0,0.0,0.0,0.0,0.0,0.0,0.0,0.0,0.0,0.0,-1.6931,-1.7024,-1.7024,-1.6622,0.0,0.0,0.0,0.0,0.0,0.0,0.0,0.0,0.0,0.0,0.0,0.0,0.0,0.0,0.0,0.0,0.0,0.0,0.0,0.0,0.0,0.0,0.0,0.0,0.0,0.0,0.0,0.0,0.0,0.0,0.0,0.0,0.0,0.0,0.0,0.0,0.0,0.0,0.0,0.0,0.0,0.0,0.0,0.0,0.0,0.0,0.0,0.0,0.0,0.0,0.0,0.0,0.0,0.0,0.0,0.0,0.0,0.0,0.0,0.0,0.0,0.0,0.0,0.0,0.0,0.0,0.0,0.0,0.0,0.0,0.0,0.0,0.0,0.0,0.0,0.0,0.0,0.0,0.0,0.0,0.0,0.0,0.0,0.0,0.0,0.0,0.0,0.0,0.0,0.0,0.0,0.0,0.0,0.0,0.0,0.0,0.0,0.0,0.0,0.0,0.0,0.0,0.0,0.0,0.0,0.0,0.0,0.0,0.0,0.0,-1.7089,-1.7021,-1.7146,-1.7021,-1.6493,-1.5512,0.0,0.0,0.0,0.0,0.0,0.0,0.0,0.0,0.0,0.0,0.0,0.0,0.0,0.0,0.0,0.0,0.0,0.0,0.0,0.0,0.0,0.0,0.0,0.0,0.0,0.0,0.0,0.0,0.0,0.0,0.0,0.0,0.0,0.0,0.0,0.0,0.0,0.0,0.0,0.0,0.0,0.0,0.0,0.0,0.0,0.0,0.0,0.0,0.0,0.0,0.0,0.0,0.0,0.0,0.0,0.0,0.0,0.0,0.0,0.0,0.0,0.0,0.0,0.0,0.0,0.0,0.0,0.0,0.0,0.0,0.0,0.0,0.0,0.0,0.0,0.0,0.0,0.0,0.0,0.0,0.0,0.0,0.0,0.0,0.0,0.0,0.0,0.0,0.0,0.0,0.0,0.0,0.0,0.0,0.0,0.0,0.0,0.0,0.0,0.0,0.0,0.0,0.0,0.0,0.0,0.0,0.0,0.0,0.0,-1.7073,-1.6782,-1.6547,-1.607,-1.5512,0.0,0.0,0.0,0.0,0.0,0.0,0.0,0.0,0.0,0.0,0.0,0.0,0.0,0.0,0.0,0.0,0.0,0.0,0.0,0.0,0.0,0.0,0.0,0.0,0.0,0.0,0.0,0.0,0.0,0.0,0.0,0.0,0.0,0.0,0.0,0.0,0.0,0.0,0.0,0.0,0.0,0.0,0.0,0.0,0.0,0.0,0.0,0.0,0.0,0.0,0.0,0.0,0.0,0.0,0.0,0.0,0.0,0.0,0.0,0.0,0.0,0.0,0.0,0.0,0.0,0.0,0.0,0.0,0.0,0.0,0.0,0.0,0.0,0.0,0.0,0.0,0.0,0.0,0.0,0.0,0.0,0.0,0.0,0.0,0.0,0.0,0.0,0.0,0.0,0.0,0.0,0.0,0.0,0.0,0.0,0.0,0.0,0.0,0.0,0.0,0.0,0.0,0.0,0.0,0.0,0.0,0.0,0.0,0.0,-1.7359,-1.7265,-1.6831,-1.6045,-1.6145,-1.5638,0.0,0.0,0.0,0.0,0.0,0.0,0.0,0.0,0.0,0.0,0.0,0.0,0.0,0.0,0.0,0.0,0.0,0.0,0.0,0.0,0.0,0.0,0.0,0.0,0.0,0.0,0.0,0.0,0.0,0.0,0.0,0.0,0.0,0.0,0.0,0.0,0.0,0.0,0.0,0.0,0.0,0.0,0.0,0.0,0.0,0.0,0.0,0.0,0.0,0.0,0.0,0.0,0.0,0.0,0.0,0.0,0.0,0.0,0.0,0.0,0.0,0.0,0.0,0.0,0.0,0.0,0.0,0.0,0.0,0.0,0.0,0.0,0.0,0.0,0.0,0.0,0.0,0.0,0.0,0.0,0.0,0.0,0.0,0.0,0.0,0.0,0.0,0.0,0.0,0.0,0.0,0.0,0.0,0.0,0.0,0.0,0.0,0.0,0.0,0.0,0.0,0.0,0.0,0.0,0.0,0.0,0.0,0.0,0.0,-1.746,0.0,-1.72,0.0,-1.6245,-1.5643,0.0,0.0,0.0,0.0,0.0,0.0,0.0,0.0,0.0,0.0,0.0,0.0,0.0,0.0,0.0,0.0,0.0,0.0,0.0,0.0,0.0,0.0,0.0,0.0,0.0,0.0,0.0,0.0,0.0,0.0,0.0,0.0,0.0,0.0,0.0,0.0,0.0,0.0,0.0,0.0,0.0,0.0,0.0,0.0,0.0,0.0,0.0,0.0,0.0,0.0,0.0,0.0,0.0,0.0,0.0,0.0,0.0,0.0,0.0,0.0,0.0,0.0,0.0,0.0,0.0,0.0,0.0,0.0,0.0,0.0,0.0,0.0,0.0,0.0,0.0,0.0,0.0,0.0,0.0,0.0,0.0,0.0,0.0,0.0,0.0,0.0,0.0,0.0,0.0,0.0,0.0,0.0,0.0,0.0,0.0,0.0,0.0,0.0,0.0,0.0,0.0,0.0,0.0,0.0,0.0,0.0,0.0,0.0,-1.8111,-1.7756,-1.8069,-1.7953,-1.7398,-1.6367,-1.5512,0.0,0.0,0.0,0.0,0.0,0.0,0.0,0.0,0.0,0.0,0.0,0.0,0.0,0.0,0.0,0.0,0.0,0.0,0.0,0.0,0.0,0.0,0.0,0.0,0.0,0.0,0.0,0.0,0.0,0.0,0.0,0.0,0.0,0.0,0.0,0.0,0.0,0.0,0.0,0.0,0.0,0.0,0.0,0.0,0.0,0.0,0.0,0.0,0.0,0.0,0.0,0.0,0.0,0.0,0.0,0.0,0.0,0.0,0.0,0.0,0.0,0.0,0.0,0.0,0.0,0.0,0.0,0.0,0.0,0.0,0.0,0.0,0.0,0.0,0.0,0.0,0.0,0.0,0.0,0.0,0.0,0.0,0.0,0.0,0.0,0.0,0.0,0.0,0.0,0.0,0.0,0.0,0.0,0.0,0.0,0.0,0.0,0.0,0.0,0.0,0.0,0.0,0.0,0.0,0.0,0.0,0.0,0.0,0.0,-1.9029,-1.923,-1.8882,-1.7978,-1.725,-1.6443,0.0,0.0,0.0,0.0,0.0,0.0,0.0,0.0,0.0,0.0,0.0,0.0,0.0,0.0,0.0,0.0,0.0,0.0,0.0,0.0,0.0,0.0,0.0,0.0,0.0,0.0,0.0,0.0,0.0,0.0,0.0,0.0,0.0,0.0,0.0,0.0,0.0,0.0,0.0,0.0,0.0,0.0,0.0,0.0,0.0,0.0,0.0,0.0,0.0,0.0,0.0,0.0,0.0,0.0,0.0,0.0,0.0,0.0,0.0,0.0,0.0,0.0,0.0,0.0,0.0,0.0,0.0,0.0,0.0,0.0,0.0,0.0,0.0,0.0,0.0,0.0,0.0,0.0,0.0,0.0,0.0,0.0,0.0,0.0,0.0,0.0,0.0,0.0,0.0,0.0,0.0,0.0,0.0,0.0,0.0,0.0,0.0,0.0,0.0,0.0,0.0,0.0,0.0,0.0,0.0,0.0,0.0,0.0,0.0,-2.2332,-2.1891,-2.1041,-1.9735,-1.8831,-1.7677,-1.6392,0.0,0.0,0.0,0.0,0.0,0.0,0.0,0.0,0.0,0.0,0.0,0.0,0.0,0.0,0.0,0.0,0.0,0.0,0.0,0.0,0.0,0.0,0.0,0.0,0.0,0.0,0.0,0.0,0.0,0.0,0.0,0.0,0.0,0.0,0.0,0.0,0.0,0.0,0.0,0.0,0.0,0.0,0.0,0.0,0.0,0.0,0.0,0.0,0.0,0.0,0.0,0.0,0.0,0.0,0.0,0.0,0.0,0.0,0.0,0.0,0.0,0.0,0.0,0.0,0.0,0.0,0.0,0.0,0.0,0.0,0.0,0.0,0.0,0.0,0.0,0.0,0.0,0.0,0.0,0.0,0.0,0.0,0.0,0.0,0.0,0.0,0.0,0.0,0.0,0.0,0.0,0.0,0.0,0.0,0.0,0.0,0.0,0.0,0.0,0.0,0.0,0.0,0.0,0.0,0.0,0.0,0.0,0.0,-2.7148,-2.5962,-2.4449,-2.2623,-2.0991,-1.9284,0.0,0.0,0.0,0.0,0.0,0.0,0.0,0.0,0.0,0.0,0.0,0.0,0.0,0.0,0.0,0.0,0.0,0.0,0.0,0.0,0.0,0.0,0.0,0.0,0.0,0.0,0.0,0.0,0.0,0.0,0.0,0.0,0.0,0.0,0.0,0.0,0.0,0.0,0.0,0.0,0.0,0.0,0.0,0.0,0.0,0.0,0.0,0.0,0.0,0.0,0.0,0.0,0.0,0.0,0.0,0.0,0.0,0.0,0.0,0.0,0.0,0.0,0.0,0.0,0.0,0.0,0.0,0.0,0.0,0.0,0.0,0.0,0.0,0.0,0.0,0.0,0.0,0.0,0.0,0.0,0.0,0.0,0.0,0.0,0.0,0.0,0.0,0.0,0.0,0.0,0.0,0.0,0.0,0.0,0.0,0.0,0.0,0.0,0.0,0.0,0.0,0.0,0.0,0.0,0.0,0.0,0.0,0.0,0.0,-2.9358,-3.0806,-2.9754,-2.6138,-2.4381,-2.2347,0.0,0.0,0.0,0.0,0.0,0.0,0.0,0.0,0.0,0.0,0.0,0.0,0.0,0.0,0.0,0.0,0.0,0.0,0.0,0.0,0.0,0.0,0.0,0.0,0.0,0.0,0.0,0.0,0.0,0.0,0.0,0.0,0.0,0.0,0.0,0.0,0.0,0.0,0.0,0.0,0.0,0.0,0.0,0.0,0.0,0.0,0.0,0.0,0.0,0.0,0.0,0.0,0.0,0.0,0.0,0.0,0.0,0.0,0.0,0.0,0.0,0.0,0.0,0.0,0.0,0.0,0.0,0.0,0.0,0.0,0.0,0.0,0.0,0.0,0.0,0.0,0.0,0.0,0.0,0.0,0.0,0.0,0.0,0.0,0.0,0.0,0.0,0.0,0.0,0.0,0.0,0.0,0.0,0.0,0.0,0.0,0.0,0.0,0.0,0.0,0.0,0.0,0.0,0.0,0.0,0.0,0.0,0.0,-2.8359,-3.1832,-3.4819,-3.455,-3.0834,-2.757,-2.4556,0.0,0.0,0.0,0.0,0.0,0.0,0.0,0.0,0.0,0.0,0.0,0.0,0.0,0.0,0.0,0.0,0.0,0.0,0.0,0.0,0.0,0.0,0.0,0.0,0.0,0.0,0.0,0.0,0.0,0.0,0.0,0.0,0.0,0.0,0.0,0.0,0.0,0.0,0.0,0.0,0.0,0.0,0.0,0.0,0.0,0.0,0.0,0.0,0.0,0.0,0.0,0.0,0.0,0.0,0.0,0.0,0.0,0.0,0.0,0.0,0.0,0.0,0.0,0.0,0.0,0.0,0.0,0.0,0.0,0.0,0.0,0.0,0.0,0.0,0.0,0.0,0.0,0.0,0.0,0.0,0.0,0.0,0.0,0.0,0.0,0.0,0.0,0.0,0.0,0.0,0.0,0.0,0.0,0.0,0.0,0.0,0.0,0.0,0.0,0.0,0.0,0.0,0.0,0.0,0.0,0.0,0.0,0.0,-3.0284,-3.4169,-3.7779,-3.8442,-3.5734,-3.0658,-2.649,0.0,0.0,0.0,0.0,0.0,0.0,0.0,0.0,0.0,0.0,0.0,0.0,0.0,0.0,0.0,0.0,0.0,0.0,0.0,0.0,0.0,0.0,0.0,0.0,0.0,0.0,0.0,0.0,0.0,0.0,0.0,0.0,0.0,0.0,0.0,0.0,0.0,0.0,0.0,0.0,0.0,0.0,0.0,0.0,0.0,0.0,0.0,0.0,0.0,0.0,0.0,0.0,0.0,0.0,0.0,0.0,0.0,0.0,0.0,0.0,0.0,0.0,0.0,0.0,0.0,0.0,0.0,0.0,0.0,0.0,0.0,0.0,0.0,0.0,0.0,0.0,0.0,0.0,0.0,0.0,0.0,0.0,0.0,0.0,0.0,0.0,0.0,0.0,0.0,0.0,0.0,0.0,0.0,0.0,0.0,0.0,0.0,0.0,0.0,0.0,0.0,0.0,0.0,0.0,0.0,0.0,0.0,0.0,-3.2044,-3.5647,-3.8312,-3.8994,-3.7513,-3.3822,-2.9969,0.0,0.0,0.0,0.0,0.0,0.0,0.0,0.0,0.0,0.0,0.0,0.0,0.0,0.0,0.0,0.0,0.0,0.0,0.0,0.0,0.0,0.0,0.0,0.0,0.0,0.0,0.0,0.0,0.0,0.0,0.0,0.0,0.0,0.0,0.0,0.0,0.0,0.0,0.0,0.0,0.0,0.0,0.0,0.0,0.0,0.0,0.0,0.0,-1.1567,0.0,0.0,0.0,0.0,0.0,0.0,0.0,0.0,0.0,0.0,0.0,0.0,0.0,0.0,0.0,0.0,0.0,0.0,0.0,0.0,0.0,0.0,0.0,0.0,0.0,0.0,0.0,0.0,0.0,0.0,0.0,0.0,0.0,0.0,0.0,0.0,0.0,0.0,0.0,0.0,0.0,0.0,0.0,0.0,0.0,0.0,0.0,0.0,0.0,0.0,0.0,0.0,0.0,0.0,0.0,0.0,0.0,0.0,0.0,-3.4237,-3.739,-3.9677,-4.0199,-3.8793,-3.6584,-3.2817,0.0,0.0,0.0,0.0,0.0,0.0,0.0,0.0,0.0,0.0,0.0,0.0,0.0,0.0,0.0,0.0,0.0,0.0,0.0,0.0,0.0,0.0,0.0,0.0,0.0,0.0,0.0,0.0,0.0,0.0,0.0,0.0,0.0,0.0,0.0,0.0,0.0,0.0,0.0,0.0,0.0,0.0,0.0,0.0,0.0,0.0,0.0,0.0,0.0,0.0,0.0,0.0,0.0,0.0,0.0,0.0,0.0,0.0,0.0,0.0,0.0,0.0,0.0,0.0,0.0,0.0,0.0,0.0,0.0,0.0,0.0,0.0,0.0,0.0,0.0,0.0,0.0,0.0,0.0,0.0,0.0,0.0,0.0,0.0,0.0,0.0,0.0,0.0,0.0,0.0,0.0,0.0,0.0,0.0,0.0,0.0,0.0,0.0,0.0,0.0,0.0,0.0,0.0,0.0,0.0,0.0,0.0,-3.3711,-3.649,-3.9077,-4.1119,-4.1433,-3.9722,-3.8517,-3.4901,-2.8599,0.0,0.0,0.0,0.0,0.0,0.0,0.0,0.0,0.0,0.0,0.0,0.0,0.0,0.0,0.0,0.0,0.0,0.0,0.0,0.0,0.0,0.0,0.0,0.0,0.0,0.0,0.0,0.0,0.0,0.0,0.0,0.0,0.0,0.0,0.0,0.0,0.0,0.0,-1.127,-1.2465,0.0,0.0,0.0,0.0,0.0,0.0,0.0,0.0,-1.3027,0.0,0.0,0.0,0.0,0.0,0.0,0.0,0.0,0.0,0.0,0.0,0.0,0.0,0.0,0.0,0.0,0.0,0.0,0.0,0.0,0.0,0.0,0.0,0.0,0.0,0.0,0.0,0.0,0.0,0.0,0.0,0.0,0.0,0.0,0.0,0.0,0.0,0.0,0.0,0.0,0.0,0.0,0.0,0.0,0.0,0.0,0.0,0.0,0.0,0.0,0.0,0.0,0.0,0.0,0.0,0.0,-3.2017,-3.5526,-3.8298,-4.0082,-4.1499,-4.1433,-3.9747,-3.814,-3.4876,-2.9754,0.0,0.0,0.0,0.0,0.0,0.0,0.0,0.0,0.0,0.0,0.0,0.0,0.0,0.0,0.0,0.0,0.0,0.0,0.0,0.0,0.0,0.0,0.0,0.0,0.0,0.0,0.0,0.0,0.0,0.0,0.0,0.0,0.0,0.0,0.0,0.0,0.0,0.0,0.0,-1.418,-1.4679,0.0,0.0,0.0,0.0,0.0,0.0,0.0,0.0,-1.3086,0.0,0.0,0.0,0.0,0.0,0.0,0.0,0.0,0.0,0.0,0.0,0.0,0.0,0.0,0.0,0.0,0.0,0.0,0.0,0.0,0.0,0.0,0.0,0.0,0.0,0.0,0.0,0.0,0.0,0.0,0.0,0.0,0.0,0.0,0.0,0.0,0.0,0.0,0.0,0.0,0.0,0.0,0.0,0.0,0.0,0.0,0.0,0.0,0.0,0.0,0.0,0.0,0.0,0.0,0.0,-3.4355,-3.8256,-4.0624,-4.1492,-4.2236,-4.1656,-3.9722,-3.7513,-3.4148,0.0,0.0,0.0,0.0,0.0,0.0,0.0,0.0,0.0,0.0,0.0,0.0,0.0,0.0,0.0,0.0,0.0,0.0,0.0,0.0,0.0,0.0,0.0,0.0,0.0,0.0,0.0,0.0,0.0,0.0,0.0,0.0,0.0,0.0,0.0,0.0,0.0,0.0,0.0,0.0,-1.54,-1.5907,-1.5517,0.0,0.0,0.0,0.0,0.0,0.0,-1.4309,-1.4062,0.0,0.0,0.0,0.0,0.0,0.0,0.0,0.0,0.0,0.0,0.0,0.0,0.0,0.0,0.0,0.0,0.0,0.0,0.0,0.0,0.0,0.0,0.0,0.0,0.0,0.0,0.0,0.0,0.0,0.0,0.0,0.0,0.0,0.0,0.0,0.0,0.0,0.0,0.0,0.0,0.0,0.0,0.0,0.0,0.0,0.0,0.0,0.0,0.0,0.0,0.0,0.0,0.0,0.0,0.0,-3.6492,-4.0595,-4.2778,-4.284,-4.315,-4.2233,-3.998,-3.7177,-3.3651,0.0,0.0,0.0,0.0,0.0,0.0,0.0,0.0,0.0,0.0,0.0,0.0,0.0,0.0,0.0,0.0,0.0,0.0,0.0,0.0,0.0,0.0,0.0,0.0,0.0,0.0,0.0,0.0,0.0,0.0,0.0,0.0,0.0,0.0,0.0,0.0,0.0,0.0,0.0,0.0,0.0,-1.7096,-1.7077,-1.6414,0.0,0.0,0.0,0.0,-1.4952,-1.54,0.0,0.0,0.0,0.0,0.0,0.0,0.0,0.0,0.0,0.0,0.0,0.0,0.0,0.0,0.0,0.0,0.0,0.0,0.0,0.0,0.0,0.0,0.0,0.0,0.0,0.0,0.0,0.0,0.0,0.0,0.0,0.0,0.0,0.0,0.0,0.0,0.0,0.0,0.0,0.0,0.0,0.0,0.0,0.0,0.0,0.0,0.0,0.0,0.0,0.0,0.0,0.0,0.0,0.0,0.0,0.0,-3.7183,-4.1544,-4.3859,-4.4028,-4.4334,-4.3306,-4.0821,-3.7891,-3.4323,0.0,0.0,0.0,0.0,0.0,0.0,0.0,0.0,0.0,0.0,0.0,0.0,0.0,0.0,0.0,0.0,0.0,0.0,0.0,0.0,0.0,0.0,0.0,0.0,0.0,0.0,0.0,0.0,0.0,0.0,0.0,0.0,0.0,0.0,0.0,0.0,0.0,0.0,0.0,0.0,0.0,-1.8383,-1.8383,-1.7974,-1.7695,0.0,0.0,-1.6785,-1.7428,-1.7344,0.0,0.0,0.0,0.0,0.0,0.0,0.0,0.0,0.0,0.0,0.0,0.0,0.0,0.0,0.0,0.0,0.0,0.0,0.0,0.0,0.0,0.0,0.0,0.0,0.0,0.0,0.0,0.0,0.0,0.0,0.0,0.0,0.0,0.0,0.0,0.0,0.0,0.0,0.0,0.0,0.0,0.0,0.0,0.0,0.0,0.0,0.0,0.0,0.0,0.0,0.0,0.0,0.0,0.0,0.0,-3.4413,-3.8118,-4.3186,-4.5713,-4.5558,-4.5877,-4.477,-4.2115,-3.884,-3.4894,0.0,0.0,0.0,0.0,0.0,0.0,0.0,0.0,0.0,0.0,0.0,0.0,0.0,0.0,0.0,0.0,0.0,0.0,0.0,0.0,0.0,0.0,0.0,0.0,0.0,0.0,0.0,0.0,0.0,0.0,0.0,0.0,0.0,0.0,0.0,0.0,0.0,0.0,0.0,0.0,0.0,0.0,-1.9687,-1.9785,0.0,0.0,0.0,-1.8637,-1.9007,0.0,0.0,0.0,0.0,0.0,0.0,0.0,0.0,0.0,0.0,0.0,0.0,0.0,0.0,0.0,0.0,0.0,0.0,0.0,0.0,0.0,0.0,0.0,0.0,0.0,0.0,0.0,0.0,0.0,0.0,0.0,0.0,0.0,0.0,0.0,0.0,0.0,0.0,0.0,0.0,0.0,0.0,0.0,0.0,0.0,0.0,0.0,0.0,0.0,0.0,0.0,0.0,0.0,0.0,0.0,0.0,0.0,-3.8819,-4.4516,-4.7242,-4.6823,-4.7269,-4.6245,-4.3492,-4.0032,0.0,0.0,0.0,0.0,0.0,0.0,0.0,0.0,0.0,0.0,0.0,0.0,0.0,0.0,0.0,0.0,0.0,0.0,0.0,0.0,0.0,0.0,0.0,0.0,0.0,0.0,0.0,-0.753,0.0,0.0,0.0,0.0,0.0,0.0,0.0,0.0,0.0,0.0,0.0,0.0,0.0,0.0,-2.0449,-2.0977,-2.1426,-2.1484,0.0,0.0,-2.0566,-2.0566,-2.1073,-2.0781,0.0,0.0,0.0,0.0,0.0,0.0,0.0,0.0,0.0,0.0,0.0,0.0,0.0,0.0,0.0,0.0,0.0,0.0,0.0,0.0,0.0,0.0,0.0,0.0,0.0,0.0,0.0,0.0,0.0,0.0,0.0,0.0,0.0,0.0,0.0,0.0,0.0,0.0,0.0,0.0,0.0,0.0,0.0,0.0,0.0,0.0,0.0,0.0,0.0,0.0,0.0,0.0,0.0,0.0,0.0,-3.9135,-4.4979,-4.7911,-4.7659,-4.8313,-4.744,-4.4905,-4.1663,-3.7714,0.0,0.0,0.0,0.0,0.0,0.0,0.0,0.0,0.0,0.0,0.0,0.0,0.0,0.0,0.0,0.0,0.0,0.0,0.0,0.0,0.0,0.0,0.0,0.0,0.0,0.0,0.0,0.0,0.0,0.0,0.0,0.0,0.0,0.0,0.0,0.0,0.0,0.0,0.0,0.0,0.0,-2.1405,-2.2266,-2.2754,-2.3051,0.0,0.0,-2.2344,-2.2344,-2.2383,-2.1658,-1.9551,0.0,0.0,0.0,0.0,0.0,0.0,0.0,0.0,0.0,0.0,0.0,0.0,0.0,0.0,0.0,0.0,0.0,0.0,0.0,0.0,0.0,0.0,0.0,0.0,0.0,0.0,0.0,0.0,0.0,0.0,0.0,0.0,0.0,0.0,0.0,0.0,0.0,0.0,0.0,0.0,0.0,0.0,0.0,0.0,0.0,0.0,0.0,0.0,0.0,0.0,0.0,0.0,0.0,-3.5427,-3.9294,-4.5565,-4.8771,-4.8739,-4.9764,-4.9124,-4.6766,-4.4199,-4.024,0.0,0.0,0.0,0.0,0.0,0.0,0.0,0.0,0.0,0.0,0.0,0.0,0.0,0.0,0.0,0.0,0.0,0.0,0.0,0.0,0.0,0.0,0.0,0.0,0.0,0.0,0.0,0.0,-0.8574,-0.8867,-0.9121,0.0,0.0,0.0,0.0,0.0,0.0,0.0,0.0,0.0,0.0,-2.2734,-2.353,-2.4512,0.0,0.0,-2.4563,-2.4348,-2.4121,-2.3652,-2.2559,-2.0468,-1.8066,0.0,0.0,0.0,0.0,0.0,0.0,0.0,0.0,0.0,0.0,0.0,0.0,0.0,0.0,0.0,0.0,0.0,0.0,0.0,0.0,0.0,0.0,0.0,0.0,0.0,0.0,0.0,0.0,0.0,0.0,0.0,0.0,0.0,0.0,0.0,0.0,0.0,0.0,0.0,0.0,0.0,0.0,0.0,0.0,0.0,0.0,0.0,0.0,0.0,0.0,0.0,0.0,-3.5459,-3.9409,-4.5933,-4.9299,-4.9299,-5.0541,-5.0152,-4.7969,-4.5902,-4.2021,0.0,0.0,0.0,0.0,0.0,0.0,0.0,0.0,0.0,0.0,0.0,0.0,0.0,0.0,0.0,0.0,0.0,0.0,0.0,0.0,0.0,0.0,0.0,0.0,0.0,0.0,0.0,0.0,-0.957,-0.9611,-0.9786,0.0,0.0,0.0,0.0,0.0,0.0,0.0,0.0,0.0,0.0,-2.3521,-2.4297,-2.5547,-2.623,-2.5752,-2.5674,-2.5499,-2.4961,-2.416,-2.2949,-2.1074,0.0,0.0,0.0,0.0,0.0,0.0,0.0,0.0,0.0,0.0,0.0,0.0,0.0,0.0,0.0,0.0,0.0,0.0,0.0,0.0,0.0,0.0,0.0,0.0,0.0,0.0,0.0,-1.8262,0.0,0.0,-1.896,0.0,0.0,0.0,0.0,0.0,0.0,0.0,0.0,0.0,0.0,0.0,0.0,0.0,0.0,0.0,0.0,0.0,0.0,0.0,0.0,0.0,0.0,-3.5459,-3.9409,-4.5933,-4.9299,-4.9329,-5.0541,-5.0245,-4.8278,-4.6404,-4.2716,-3.6935,0.0,0.0,0.0,0.0,0.0,0.0,0.0,0.0,0.0,0.0,0.0,0.0,0.0,0.0,0.0,0.0,0.0,0.0,0.0,0.0,0.0,0.0,0.0,0.0,0.0,0.0,-1.0781,-1.0859,-1.0684,0.0,0.0,0.0,0.0,0.0,0.0,0.0,0.0,0.0,0.0,-2.1544,-2.3501,-2.4316,-2.5566,-2.6269,-2.5771,-2.5713,-2.5401,-2.459,-2.373,-2.2734,0.0,0.0,0.0,0.0,0.0,0.0,0.0,0.0,0.0,0.0,0.0,0.0,0.0,0.0,0.0,0.0,0.0,0.0,0.0,0.0,0.0,0.0,0.0,0.0,0.0,0.0,0.0,-2.3071,-2.2896,0.0,0.0,0.0,0.0,0.0,0.0,0.0,0.0,0.0,0.0,0.0,-3.5429,-3.5908,0.0,0.0,0.0,0.0,0.0,0.0,0.0,0.0,0.0,0.0,0.0,0.0,-3.5459,-3.9499,-4.5975,-4.9299,-4.9329,-5.0541,-5.0292,-4.8479,-4.7322,-4.2862,-3.4765,0.0,0.0,0.0,0.0,0.0,0.0,0.0,0.0,0.0,0.0,0.0,0.0,0.0,0.0,0.0,0.0,0.0,0.0,0.0,0.0,0.0,0.0,0.0,0.0,0.0,-1.1387,0.0,0.0,0.0,0.0,0.0,0.0,0.0,0.0,0.0,0.0,0.0,-1.8047,-1.992,-2.1875,-2.3555,-2.4687,-2.628,-2.709,0.0,0.0,0.0,0.0,0.0,0.0,0.0,0.0,0.0,0.0,0.0,0.0,0.0,0.0,-2.0312,-1.8887,-1.8164,-1.7637,-1.7174,0.0,0.0,0.0,0.0,0.0,0.0,0.0,0.0,0.0,0.0,0.0,0.0,0.0,0.0,-2.7641,0.0,-2.6732,0.0,0.0,0.0,0.0,0.0,0.0,0.0,0.0,-3.8272,-3.9948,-4.0816,-4.1265,-4.1594,0.0,-4.1564,-3.8661,0.0,0.0,0.0,0.0,0.0,0.0,0.0,0.0,-3.6028,-3.9858,-4.6094,-4.9299,-4.9359,-5.0541,-5.0385,-4.8709,-4.6434,-4.1833,-3.4685,-3.0281,-2.5973,0.0,0.0,0.0,0.0,0.0,0.0,0.0,0.0,0.0,0.0,0.0,0.0,0.0,0.0,0.0,0.0,0.0,0.0,0.0,0.0,0.0,0.0,0.0,-1.2621,0.0,0.0,0.0,0.0,0.0,0.0,0.0,0.0,0.0,-1.6367,-1.7832,-1.9473,-2.1035,-2.2598,-2.3958,-2.5137,0.0,0.0,0.0,0.0,0.0,0.0,0.0,-2.2812,-2.3012,-2.2562,-2.2285,-2.2672,-2.3379,-2.3945,-2.4284,0.0,0.0,-2.2129,-2.125,-2.0664,-2.0098,-1.9883,-1.9805,-1.9766,-2.0352,-2.1094,0.0,0.0,0.0,0.0,0.0,0.0,0.0,0.0,-3.2113,-3.2122,0.0,-3.0808,0.0,0.0,0.0,0.0,0.0,-3.2258,0.0,0.0,-4.2213,-4.4167,-4.5304,-4.5364,-4.5753,-4.6309,-4.5663,-4.4287,-4.2111,-3.5968,0.0,0.0,0.0,0.0,0.0,0.0,-3.7165,-4.0487,-4.6274,-4.9269,-4.9299,-5.0481,-5.0372,-4.8848,-4.4037,-3.9999,-3.677,-3.2738,-2.8768,-2.5091,-2.3321,0.0,0.0,0.0,0.0,0.0,0.0,0.0,0.0,0.0,0.0,0.0,0.0,0.0,0.0,0.0,0.0,0.0,0.0,0.0,0.0,-1.4477,0.0,0.0,0.0,0.0,0.0,0.0,0.0,0.0,0.0,0.0,-1.8389,-1.9686,-2.1153,-2.2383,0.0,0.0,0.0,0.0,-2.7571,-2.7129,-2.707,-2.6934,-2.6484,-2.5332,-2.4629,-2.5125,0.0,0.0,-2.5771,-2.623,-2.6504,-2.6523,-2.7148,-2.7239,-2.5556,-2.4499,-2.3594,-2.2812,-2.291,-2.2973,-2.2324,-2.3008,-2.3965,-3.7111,0.0,0.0,0.0,0.0,-3.4161,-3.5803,-3.7565,-3.7929,-3.8073,-3.7937,-3.6483,0.0,0.0,0.0,0.0,0.0,0.0,-4.0038,-4.303,-4.5633,-4.707,-4.7429,-4.7908,-4.8281,-4.8386,-4.7728,-4.6651,-4.5095,-4.1893,-3.7255,-3.1391,0.0,0.0,0.0,0.0,-3.7823,-4.1175,-4.6022,-4.8566,-4.8566,-4.9404,-4.9434,-4.8477,-4.5493,-4.2381,-3.9267,-3.617,-3.241,-2.7932,-2.6163,0.0,0.0,0.0,0.0,0.0,0.0,0.0,0.0,0.0,0.0,0.0,0.0,0.0,0.0,0.0,0.0,0.0,0.0,0.0,-1.642,-1.6359,-1.6067,0.0,0.0,0.0,0.0,0.0,0.0,0.0,0.0,0.0,-2.294,-2.2621,-2.2656,0.0,0.0,-2.5195,-2.6074,-2.7031,-2.7787,-2.791,-2.793,0.0,-2.7363,-2.6484,-2.6074,-2.6847,-2.7676,-2.8589,-2.9297,-2.9238,-2.9101,-2.9082,-2.9043,-2.8902,-2.8393,-2.707,-2.5977,-2.541,-2.5137,-2.5059,-2.5137,-2.5644,-2.6309,-4.3307,-3.9158,-3.7961,-3.7934,-3.8778,-4.0406,-4.2399,-4.4432,-4.4349,-4.4397,-4.4282,-4.2287,-4.0375,-3.8542,-3.6956,0.0,0.0,0.0,-4.4018,-4.6352,-4.8745,-4.9823,-4.9853,-5.0242,-5.0272,-5.0032,-4.9374,-4.8536,-4.7459,-4.6022,-4.2581,-3.7225,0.0,0.0,-3.3903,-3.6896,-3.9798,-4.2611,-4.683,-4.9075,-4.9075,-4.9194,-4.9,-4.8297,-4.6197,-4.3718,-4.091,-3.844,-3.5136,-3.0736,-2.8872,-2.6341,0.0,0.0,0.0,0.0,0.0,0.0,0.0,0.0,0.0,0.0,0.0,-1.3298,-1.3559,0.0,0.0,0.0,-1.6591,-1.7776,-1.8527,-1.8842,0.0,0.0,0.0,0.0,0.0,0.0,0.0,-2.3095,-2.4889,-2.6217,-2.6759,-2.6192,-2.5598,-2.5275,-2.5898,-2.6602,-2.7305,0.0,-2.8516,-2.8769,-2.8809,-2.8711,-2.8511,-2.7832,-2.7676,-2.8589,-2.9277,-3.0039,-3.0723,-3.0644,-3.0488,-3.043,-3.0254,-3.0098,-3.0098,-2.9082,-2.8086,-2.7519,-2.7324,-2.7305,-2.7402,-2.7734,-2.8203,-4.9021,-4.7837,-4.4692,-4.3966,-4.5073,-4.6788,-4.907,-5.1396,-5.071,-5.0389,-5.0255,-4.7818,-4.5603,-4.3599,-4.1713,0.0,-4.292,-4.5394,-4.7549,-4.9539,-5.1409,-5.2276,-5.2276,-5.2217,-5.1887,-5.1289,-5.0465,-4.9853,-4.9269,-4.861,-4.701,-4.4466,-3.9679,-3.7434,-3.7913,-4.0337,-4.2551,-4.4496,-4.8163,-5.0076,-5.0046,-4.9494,-4.8895,-4.8207,-4.6402,-4.4313,-4.1949,-3.9917,-3.7133,-3.3462,-3.1482,-2.8819,-2.5335,0.0,0.0,0.0,0.0,0.0,0.0,0.0,0.0,0.0,0.0,0.0,0.0,0.0,0.0,0.0,-1.8782,0.0,-2.0588,-2.1701,0.0,0.0,0.0,-2.1421,-2.2868,-2.4668,-2.6233,-2.7218,0.0,0.0,-2.9961,-2.9955,-2.9423,-2.8004,-2.8193,-2.8594,-2.8965,-2.9316,-2.9629,-2.9724,-2.9668,-2.9687,-2.9629,-2.9297,-2.9297,-3.0,-3.0254,-3.041,-3.0801,-3.0879,-3.0879,-3.0859,-3.0879,-3.0879,-3.0879,-3.043,-3.0,-2.9199,-2.9258,-2.9394,-2.9062,-2.9258,-2.9531,-5.3653,-5.3358,-5.2584,-5.0821,-4.8625,-5.0125,-5.1765,-5.3282,-5.3057,-5.2743,-5.2366,-5.075,-4.8686,-4.6322,-4.5334,-4.5364,-4.6202,-4.7818,-4.9344,-5.081,-5.2276,-5.2935,-5.2935,-5.2426,-5.2127,-5.1858,-5.0301,-4.9479,-4.9299,-4.8596,-4.7698,-4.6561,-4.4825,-4.303,-4.1362,-4.2821,-4.4347,-4.5843,-4.8267,-4.9254,-4.8775,-4.8596,-4.8207,-4.7549,-4.6741,-4.5332,-4.3214,-4.1996,-3.9574,-3.5874,-3.4074,-3.1638,-2.8097,-2.5553,0.0,0.0,0.0,0.0,0.0,0.0,0.0,0.0,0.0,-1.6124,-1.7172,0.0,-1.9082,0.0,-2.1317,-2.266,-2.3505,-2.4042,0.0,0.0,-2.4348,-2.4661,-2.6364,-2.7759,-2.904,-3.0098,-3.1481,-3.2411,-3.2426,-3.2058,-3.1742,-3.1316,-3.0369,-2.9785,-2.9883,-2.9961,-3.0176,-3.0488,-3.0547,-3.0586,-3.0547,-3.0508,-3.0469,-3.0684,-3.0723,-3.0762,-3.0879,-3.0898,-3.0898,-3.0898,-3.0898,-3.0898,-3.0898,-3.0781,-3.0684,-3.043,-2.998,-2.9648,-2.9824,-2.998,-3.0137,-5.6195,-5.6198,-5.6247,-5.5083,-5.3325,-5.4147,-5.5187,-5.6225,-5.5887,-5.5564,-5.5299,-5.4012,-5.2306,-5.0391,-5.0002,-4.9853,-5.0002,-5.099,-5.1858,-5.2606,-5.3593,-5.3922,-5.3623,-5.3264,-5.2636,-5.1708,-5.0361,-4.9553,-4.9299,-4.894,-4.858,-4.8177,-4.8087,-4.7189,-4.5555,-4.5574,-4.6292,-4.7638,-4.9284,-4.9823,-4.9164,-4.8865,-4.8416,-4.7758,-4.6812,-4.5579,-4.3964,-4.2479,-4.0138,-3.6989,-3.4973,-3.2389,-2.9089,-2.6506,-2.3803,0.0,0.0,0.0,0.0,0.0,0.0,0.0,0.0,0.0,0.0,0.0,-2.2472,-2.3558,-2.4456,-2.5502,-2.6776,-2.7467,-2.8052,-2.8519,-2.8404,-2.8743,-2.9978,-3.077,-3.1693,-3.2791,-3.3843,-3.4481,-3.4445,-3.3799,-3.3378,-3.3403,-3.2271,-3.1365,-3.1005,-3.0891,-3.0989,-3.1073,-3.0995,-3.0898,-3.0898,-3.0898,-3.0898,-3.0898,-3.0898,-3.0898,-3.0898,-3.0898,-3.0898,-3.0898,-3.0898,-3.0898,-3.0898,-3.0898,-3.0898,-3.084,-3.0508,-3.0293,-3.0469,-3.0508,-3.0605,-5.7916,-5.7859,-5.771,-5.7813,-5.8006,-5.7948,-5.836,-5.9069,-5.8411,-5.8082,-5.7902,-5.6795,-5.5568,-5.4341,-5.4251,-5.3803,-5.3114,-5.3683,-5.3952,-5.3982,-5.473,-5.476,-5.4221,-5.4221,-5.3264,-5.1468,-5.0584,-4.9942,-4.9449,-4.9329,-4.9329,-4.9449,-4.9942,-5.0002,-4.9494,-4.8297,-4.8297,-4.9539,-5.0631,-5.09,-5.0196,-4.9613,-4.897,-4.8147,-4.6718,-4.5378,-4.42,-4.2121,-3.9845,-3.7296,-3.4936,-3.2291,-2.9265,-2.7017,-2.4632,0.0,-2.0991,0.0,0.0,0.0,0.0,0.0,0.0,0.0,0.0,-2.5034,-2.5979,-2.757,-2.772,-2.8373,-2.9955,-3.1085,-3.1738,-3.1813,-3.2315,-3.2835,-3.3367,-3.3552,-3.4071,-3.5212,-3.5734,-3.6077,-3.6051,-3.5275,-3.4677,-3.4637,-3.3987,-3.3182,-3.2481,-3.2133,-3.1862,-3.1441,-3.1112,-3.0898,-3.0898,-3.0898,-3.0898,-3.0898,-3.0898,-3.0898,-3.0898,-3.0898,-3.0898,-3.0898,-3.0898,-3.0898,-3.0898,-3.0898,-3.0898,-3.0898,-3.0859,-3.084,-3.0859,-3.0859,-3.0898,-6.1161,-6.1072,-5.9997,-5.9602,-5.9627,-5.9036,-5.8936,-5.9069,-5.8411,-5.7812,-5.7274,-5.7034,-5.6196,-5.4999,-5.4431,-5.3533,-5.2396,-5.2516,-5.2576,-5.2606,-5.3832,-5.4311,-5.4221,-5.4221,-5.3713,-5.2725,-5.1079,-5.0136,-4.9986,-4.9523,-4.9523,-4.9986,-5.0136,-5.0375,-5.078,0.0,0.0,0.0,-5.1079,-5.0853,-5.0196,-4.9583,-4.8686,-4.7519,-4.616,0.0,-4.3507,-4.1913,-3.9886,-3.7331,-3.5265,0.0,0.0,0.0,0.0,0.0,0.0,0.0,0.0,0.0,0.0,0.0,-2.885,-2.8775,-2.7469,-2.7809,-2.8612,-2.9854,-2.998,-3.0482,-3.1637,-3.2767,-3.3596,-3.4048,-3.453,-3.5123,-3.567,-3.5569,-3.5738,-3.6665,-3.7011,-3.721,-3.7169,-3.6472,-3.5876,-3.595,-3.5525,-3.515,-3.4967,-3.377,-3.2664,-3.2113,-3.1364,-3.0957,-3.0898,-3.0898,-3.0898,-3.0898,-3.0898,-3.0898,-3.0898,-3.0898,-3.0898,-3.0898,-3.0898,-3.0898,-3.0898,-3.0898,-3.0898,-3.0898,-3.0898,-3.0898,-3.0898,-3.0898,-3.0898,-6.1104,0.0,-6.0027,-5.9608,0.0,-5.9249,-5.9099,-5.9069,-5.874,-5.8411,-5.8052,-5.7752,-5.6885,-5.5628,-5.464,-5.3473,-5.2187,-5.1858,-5.1887,-5.2247,-5.3234,-5.3892,-5.4221,-5.4521,-5.4162,-5.3144,-5.1828,-5.1003,-5.0644,-5.0062,-5.0092,-5.0674,-5.0674,-5.0823,-5.1199,-5.0853,-5.0853,-5.1229,-5.1229,-5.105,-5.0644,-4.9763,-4.9,-4.8267,-4.6322,0.0,0.0,0.0,0.0,0.0,0.0,0.0,0.0,0.0,0.0,-2.7344,-2.6992,-2.6806,-2.6857,-2.8373,-2.9905,-3.1286,-3.2893,-3.296,-3.0733,-3.0809,-3.1436,-3.2516,-3.2599,-3.3194,-3.4525,-3.5177,-3.573,-3.6282,-3.6584,-3.6869,-3.7071,-3.6654,-3.6601,-3.7207,-3.744,-3.7501,-3.7548,-3.718,-3.7028,-3.7286,-3.7136,-3.6947,-3.6838,-3.5435,-3.3822,-3.2188,-3.1327,-3.0957,-3.0898,-3.0898,-3.0898,-3.0898,-3.0898,-3.0898,-3.0898,-3.0898,-3.0898,-3.0898,-3.0898,-3.0898,-3.0898,-3.0898,-3.0898,-3.0898,-3.0898,-3.0898,-3.0898,-3.0898,-3.0898,-6.0266,-6.0206,-5.9548,-5.9279,-5.9279,-5.9159,-5.9099,-5.9099,0.0,0.0,0.0,-5.853,-5.7573,-5.6286,-5.497,-5.3653,-5.2336,-5.1588,-5.1558,-5.2217,-5.2875,-5.3533,-5.4221,-5.488,-5.4551,-5.3354,-5.2695,-5.2097,-5.1558,-5.0734,-5.0704,-5.1319,-5.1289,-5.1229,-5.1229,-5.1229,-5.1229,-5.1229,-5.1229,-5.1229,-5.1199,-4.9942,-4.9239,-4.9149,-4.6621,-4.5244,-4.5095,-4.2858,-4.1152,-4.0151,-3.827,-3.6153,-3.3897,-3.2562,-3.1512,-3.0723,-3.0267,-3.0507,-3.1436,-3.2064,-3.3043,-3.4525,-3.5881,-3.5852,-3.384,-3.3715,-3.4073,-3.5077,-3.5152,-3.5755,-3.7186,-3.7437,-3.7663,-3.8115,-3.8241,-3.8291,-3.8206,-3.7508,-3.7259,-3.7761,-3.7857,-3.7881,-3.8102,-3.8048,-3.812,-3.8629,-3.879,-3.8627,-3.8235,-3.6591,-3.4349,-3.2058,-3.1289,-3.0996,-3.0898,-3.0898,-3.0898,-3.0898,-3.0898,-3.0898,-3.0898,-3.0898,-3.0898,-3.0898,-3.0898,-3.0898,-3.0898,-3.0898,-3.0898,-3.0898,-3.0898,-3.0898,-3.0898,-3.0898,-3.0898,-6.0954,-6.0924,-6.0236,-5.9937,-5.9907,-5.9338,-5.9099,-5.9099,-5.9099,-5.9099,-5.9099,-5.9009,-5.8231,-5.6885,-5.5628,-5.4311,-5.2995,-5.1768,-5.1558,-5.2217,-5.2875,-5.3533,-5.4221,-5.488,-5.479,-5.4042,-5.3354,-5.2995,-5.2785,-5.1678,-5.1409,-5.1917,-5.1498,-5.1229,-5.1229,-5.1229,-5.1229,-5.1229,-5.1229,-5.1229,-5.1199,-4.9942,-4.903,-4.8386,-4.6411,-4.5035,-4.4426,-4.3227,-4.2228,-4.1542,-4.0026,-3.8431,-3.6893,-3.5748,-3.4845,-3.4092,-3.4354,-3.463,-3.4806,-3.5805,-3.6659,-3.7362,-3.7663,-3.7236,-3.6078,-3.5952,-3.6204,-3.6759,-3.681,-3.7111,-3.7814,-3.8341,-3.8693,-3.8818,-3.917,-3.9393,-3.9158,-3.8586,-3.8518,-3.9267,-3.9131,-3.9277,-3.9805,-3.977,-3.974,-4.0123,-4.0275,-4.0146,-3.8955,-3.6766,-3.4261,-3.2157,-3.1484,-3.1289,-3.1074,-3.0898,-3.0976,-3.0898,-3.0937,-3.0996,-3.0996,-3.0976,-3.0957,-3.0898,-3.0918,-3.0898,-3.0898,-3.0898,-3.0898,-3.0898,-3.0898,-3.0898,-3.0898,-3.0898,-3.0898,-6.0894,-6.0535,-6.0206,-5.9877,-5.9548,-5.9219,-5.9099,-5.9099,-5.9099,-5.9099,-5.9069,-5.874,-5.8022,-5.6974,-5.5388,-5.4132,-5.3114,-5.1828,-5.1588,-5.2217,-5.2875,-5.3533,-5.4221,-5.488,-5.5029,-5.473,-5.4431,-5.4281,-5.4132,-5.2935,-5.2426,-5.2636,-5.1738,-5.1229,-5.1229,-5.1229,-5.1229,-5.1229,-5.1229,-5.1229,-5.1199,-5.0272,-4.9494,-4.885,-4.7219,-4.6082,-4.5382,-4.4324,-4.347,-4.2767,-4.1521,-4.0045,-3.8421,-3.7528,-3.6755,-3.6103,-3.6307,-3.6558,-3.686,-3.7638,-3.8216,-3.8467,-3.8743,-3.8718,-3.8216,-3.7613,-3.7487,-3.804,-3.809,-3.8316,-3.8868,-3.917,-3.932,-3.932,-3.9798,-4.0072,-4.0017,-4.0003,-4.0145,-4.0475,-4.0471,-4.0492,-4.0848,-4.0765,-4.0913,-4.1295,-4.1515,-4.1144,-4.0105,-3.8322,-3.6027,-3.3357,-3.2434,-3.2056,-3.1661,-3.1582,-3.1582,-3.1582,-3.1582,-3.1642,-3.1562,-3.1426,-3.125,-3.1211,-3.1055,-3.0918,-3.0898,-3.0898,-3.0898,-3.0898,-3.0898,-3.0898,-3.0898,-3.0898,-3.0898,-6.0715,-6.0086,-6.0086,-5.9697,-5.9129,-5.9099,-5.9099,-5.9099,-5.9099,-5.9099,-5.9039,-5.856,-5.7962,-5.7184,-5.5568,-5.4491,-5.3743,-5.2486,-5.2247,-5.2875,-5.3234,-5.3773,-5.4431,-5.497,-5.5209,-5.5209,-5.5209,-5.5209,-5.5029,-5.3832,-5.3025,-5.2665,-5.1708,-5.1229,-5.1229,-5.1229,-5.1229,-5.1229,-5.1229,-5.1229,-5.1199,-5.0524,-4.9972,-4.9464,-4.8356,-4.7519,-4.6937,-4.6,-4.5142,-4.4409,-4.3216,-4.1669,-3.997,-3.9077,-3.8398,-3.7837,-3.7739,-3.799,-3.8542,-3.9094,-3.9421,-3.9446,-3.9823,-4.0049,-3.9998,-3.927,-3.8818,-3.907,-3.9095,-3.922,-3.9546,-3.9672,-3.9747,-3.9873,-4.0249,-4.0551,-4.0727,-4.1025,-4.1351,-4.148,-4.1505,-4.1501,-4.1656,-4.1706,-4.1852,-4.2253,-4.2264,-4.1842,-4.0904,-3.9861,-3.7911,-3.5507,-3.3801,-3.2813,-3.2389,-3.219,-3.2129,-3.2229,-3.219,-3.215,-3.2051,-3.1836,-3.1621,-3.1504,-3.125,-3.1035,-3.0937,-3.0898,-3.0898,-3.0898,-3.0898,-3.0898,-3.0898,-3.0898,-3.0898,-6.0715,-6.0116,-6.0146,-5.9697,-5.9159,-5.9129,-5.9129,-5.9099,-5.9099,-5.9099,-5.9099,-5.9039,-5.862,-5.7992,-5.7154,-5.6406,-5.5829,-5.4521,-5.4251,-5.473,-5.4371,-5.4461,-5.5029,-5.5149,-5.5209,-5.5209,-5.5209,-5.5209,-5.5119,-5.3832,-5.2576,-5.1528,-5.1259,-5.1229,-5.1229,-5.1229,-5.1229,-5.1229,-5.1229,-5.1229,-5.1169,-5.0524,-5.0166,-5.0106,-4.9464,-4.912,-4.8865,-4.8474,-4.7746,-4.6868,-4.5335,-4.3779,-4.2166,-4.1147,-4.0285,-3.9472,-3.9421,-3.9697,-4.0224,-4.0802,-4.0974,-4.105,-4.1025,-4.1128,-4.1075,-4.0974,-4.0576,-3.9898,-3.9647,-3.9697,-3.9697,-3.9747,-3.9973,-4.04,-4.0551,-4.0701,-4.1125,-4.125,-4.153,-4.2087,-4.2137,-4.2313,-4.261,-4.2685,-4.276,-4.2785,-4.2606,-4.2287,-4.1639,-4.0755,-3.9569,-3.7597,-3.567,-3.3822,-3.271,-3.2248,-3.2346,-3.2307,-3.2268,-3.2326,-3.2346,-3.2207,-3.2012,-3.1797,-3.1523,-3.1348,-3.1094,-3.0898,-3.0957,-3.1074,-3.1055,-3.0957,-3.0918,-3.0976,-3.0996,-6.1882,-6.1283,-6.1253,-6.0655,-5.9757,-5.9697,-5.9458,-5.9129,-5.9099,-5.9099,-5.9099,-5.9099,-5.8949,-5.865,-5.8022,-5.7543,-5.7244,-5.5957,-5.5508,-5.5718,-5.5089,-5.494,-5.5179,-5.5209,-5.5209,-5.5209,-5.5209,-5.5179,-5.497,-5.3832,-5.2516,-5.1349,-5.1229,-5.1229,-5.1229,-5.1229,-5.1229,-5.1229,-5.1229,-5.1229,-5.1199,-5.0913,-5.0584,-5.0226,-4.9835,-4.9369,-4.8814,-4.7987,-4.7157,-4.6284,-4.4936,-4.3517,-4.2083,-4.1286,-4.0516,-3.9799,-4.0023,-4.0425,-4.0978,-4.115,-4.1275,-4.1275,-4.1275,-4.1275,-4.1275,-4.1275,-4.1075,-4.0724,-4.0623,-4.0623,-4.0651,-4.0676,-4.0777,-4.1003,-4.1279,-4.158,-4.1781,-4.2108,-4.2434,-4.2665,-4.2715,-4.2766,-4.2911,-4.2986,-4.2986,-4.2986,-4.2849,-4.2625,-4.24,-4.1834,-4.087,-3.9604,-3.8007,-3.61,-3.4064,-3.3344,-3.3139,-3.2953,-3.291,-3.291,-3.2851,-3.2656,-3.2461,-3.2266,-3.2051,-3.1855,-3.1719,-3.1641,-3.1641,-3.1601,-3.1641,-3.166,-3.1641,-3.1641,-3.1641,-6.269,-6.2121,-6.1912,-6.1283,-6.0356,-6.0176,-5.9817,-5.9368,-5.9189,-5.9099,-5.9099,-5.9099,-5.9099,-5.9039,-5.859,-5.8411,-5.8261,-5.7214,-5.6705,-5.6615,-5.6017,-5.5718,-5.5688,-5.5508,-5.5448,-5.5418,-5.5299,-5.5089,-5.485,-5.4012,-5.2785,-5.1678,-5.1498,-5.1409,-5.1229,-5.1229,-5.1229,-5.1229,-5.1229,-5.1229,-5.1229,-5.1229,-5.0943,-5.0495,-5.0186,-4.9622,-4.87,-4.7673,-4.6574,-4.5527,-4.4296,-4.3075,-4.1929,-4.133,-4.0761,-4.0302,-4.0651,-4.1128,-4.1555,-4.1706,-4.1727,-4.1781,-4.1781,-4.1781,-4.1781,-4.1781,-4.1781,-4.1806,-4.1727,-4.1706,-4.13,-4.1275,-4.1351,-4.1555,-4.1957,-4.2238,-4.2439,-4.276,-4.2936,-4.2986,-4.2936,-4.2986,-4.2986,-4.2986,-4.2986,-4.2986,-4.2986,-4.2986,-4.293,-4.2513,-4.181,-4.0961,-3.9861,-3.8007,-3.5417,-3.4405,-3.4047,-3.3544,-3.3359,-3.334,-3.3418,-3.3125,-3.2851,-3.2617,-3.2461,-3.2246,-3.2031,-3.207,-3.2168,-3.2168,-3.2229,-3.2229,-3.2051,-3.2148,-3.2148,-6.269,-6.2061,-6.1463,-6.1194,-6.1014,-6.0416,-6.0086,-5.9997,-5.9428,-5.9129,-5.9159,-5.9159,-5.9129,-5.9099,-5.9009,-5.9039,-5.8949,-5.8261,-5.7902,-5.7842,-5.7244,-5.6974,-5.6974,-5.6406,-5.6158,-5.6038,-5.5448,-5.488,-5.4311,-5.4192,-5.3473,-5.2217,-5.2097,-5.1828,-5.1319,-5.1229,-5.1229,-5.1229,-5.1229,-5.1229,-5.1229,-5.1229,-5.1152,-5.1092,-5.0698,-4.9988,-4.9144,-4.8082,-4.6809,-4.5103,-4.3989,-4.3033,-4.2225,-4.1609,-4.1229,-4.125,-4.1756,-4.2112,-4.2213,-4.259,-4.2811,-4.2861,-4.276,-4.2861,-4.276,-4.2735,-4.2735,-4.2861,-4.276,-4.2409,-4.1576,-4.1476,-4.1681,-4.2057,-4.2187,-4.2464,-4.2861,-4.2911,-4.2986,-4.2986,-4.2986,-4.2986,-4.2986,-4.2986,-4.2986,-4.2986,-4.2986,-4.2986,-4.2986,-4.2681,-4.2231,-4.1639,-4.0639,-3.9134,-3.6417,-3.5376,-3.461,-3.3985,-3.3796,-3.3481,-3.3418,-3.3359,-3.3144,-3.2969,-3.2851,-3.2637,-3.2305,-3.2207,-3.2285,-3.2324,-3.2363,-3.2363,-3.248,-3.2266,-3.2305,-6.2929,-6.272,-6.248,-6.2121,-6.1732,-6.1463,-6.1134,-6.0745,-6.0505,-6.0116,-5.9787,-5.9727,-5.9488,-5.9099,-5.9099,-5.9099,-5.9039,-5.8411,-5.8141,-5.8052,-5.7423,-5.7094,-5.7034,-5.6466,-5.6218,-5.6128,-5.5508,-5.485,-5.4281,-5.4221,-5.3533,-5.2396,-5.2187,-5.1858,-5.1349,-5.1229,-5.1229,-5.1229,-5.1229,-5.1229,-5.1229,-5.1229,-5.1229,-5.1182,-5.0567,-4.9766,-4.8717,-4.7485,-4.6084,-4.4615,-4.3782,-4.3034,-4.2242,-4.163,-4.1505,-4.1831,-4.2112,-4.2363,-4.269,-4.2861,-4.2986,-4.2986,-4.2986,-4.2986,-4.2986,-4.2986,-4.2986,-4.2986,-4.2986,-4.2735,-4.2534,-4.2384,-4.2459,-4.2635,-4.2685,-4.2735,-4.2911,-4.2986,-4.2986,-4.2986,-4.2986,-4.2986,-4.2986,-4.2986,-4.2986,-4.2986,-4.2986,-4.2986,-4.2986,-4.2874,-4.2706,-4.2457,-4.1866,-4.087,-3.9347,-3.7248,-3.589,-3.5046,-3.4548,-3.436,-3.4173,-3.3859,-3.3618,-3.3203,-3.3144,-3.3086,-3.2793,-3.2812,-3.2812,-3.2832,-3.2851,-3.2793,-3.2969,-3.2793,-3.2832,-6.3137,-6.3137,-6.3137,-6.2839,-6.2421,-6.2181,-6.1852,-6.1403,-6.1194,-6.0715,-6.0176,-6.0086,-5.9727,-5.9189,-5.9099,-5.9099,-5.9069,-5.865,-5.8441,-5.8381,-5.7962,-5.7752,-5.7633,-5.7094,-5.6675,-5.6346,-5.5598,-5.494,-5.4581,-5.4521,-5.3922,-5.2935,-5.2845,-5.2516,-5.1947,-5.1858,-5.1768,-5.1618,-5.1738,-5.1798,-5.1588,-5.1673,-5.1667,-5.1476,-5.0701,-4.9423,-4.8044,-4.6764,-4.5422,-4.4042,-4.3462,-4.3008,-4.2464,-4.2057,-4.2032,-4.2414,-4.2464,-4.2559,-4.2911,-4.2986,-4.2986,-4.2986,-4.2986,-4.2986,-4.2986,-4.2986,-4.2986,-4.2986,-4.2986,-4.2986,-4.2986,-4.2961,-4.2986,-4.2986,-4.2986,-4.2986,-4.2986,-4.2986,-4.2986,-4.2986,-4.2986,-4.2986,-4.2986,-4.2986,-4.2986,-4.2986,-4.2986,-4.2986,-4.2986,-4.2986,-4.2986,-4.2986,-4.2513,-4.181,-4.0731,-3.9275,-3.779,-3.6885,-3.5869,-3.552,-3.4839,-3.4465,-3.3985,-3.3607,-3.3418,-3.3418,-3.3418,-3.3418,-3.3418,-3.3418,-3.3301,-3.3164,-3.3281,-3.3359,-3.3281,-6.3137,-6.3137,-6.3137,-6.3049,-6.2899,-6.2421,-6.2121,-6.2002,-6.1493,-6.0954,-6.0416,-6.0176,-5.9847,-5.9249,-5.9129,-5.9099,-5.9099,-5.9039,-5.9009,-5.9009,-5.8979,-5.8949,-5.889,-5.8231,-5.7513,-5.6885,-5.5777,-5.5209,-5.5119,-5.5059,-5.473,-5.4251,-5.4012,-5.3593,-5.3163,-5.2965,-5.2755,-5.2366,-5.2665,-5.2725,-5.2318,-5.2483,-5.2457,-5.212,-5.0902,-4.9202,-4.7153,-4.6111,-4.483,-4.3295,-4.3042,-4.2986,-4.2911,-4.2861,-4.2936,-4.2886,-4.2936,-4.3017,-4.2961,-4.2986,-4.2986,-4.2986,-4.2986,-4.2986,-4.2986,-4.2986,-4.2986,-4.2986,-4.2986,-4.2986,-4.2986,-4.2986,-4.2986,-4.2986,-4.2986,-4.2986,-4.2986,-4.2986,-4.2986,-4.2986,-4.2986,-4.2986,-4.2986,-4.2986,-4.2961,-4.2886,-4.2936,-4.2936,-4.2886,-4.2911,-4.2986,-4.293,-4.2737,-4.2287,-4.1777,-4.1182,-3.9978,-3.878,-3.773,-3.6885,-3.5848,-3.5232,-3.4278,-3.3796,-3.3418,-3.3418,-3.3418,-3.3418,-3.3418,-3.3418,-3.3418,-3.3418,-3.3418,-3.3418,-3.3418,-6.3137,-6.3137,-6.3137,-6.3137,-6.3079,-6.2839,-6.278,-6.275,-6.254,-6.2091,-6.1463,-6.0984,-6.0416,-5.9787,-5.9338,-5.9129,-5.9099,-5.9099,-5.9099,-5.9099,-5.9099,-5.9099,-5.8979,-5.8387,-5.7543,-5.6555,-5.6077,-5.5628,-5.5269,-5.5209,-5.485,-5.4341,-5.4221,-5.3832,-5.3264,-5.3144,-5.2845,-5.2336,-5.2845,-5.2875,-5.2288,-5.2437,-5.2188,-5.1374,-5.0294,-4.8613,-4.6411,-4.5817,-4.4704,-4.3067,-4.2986,-4.2986,-4.2986,-4.2986,-4.2986,-4.2986,-4.2986,-4.2986,-4.2986,-4.2986,-4.3011,-4.2986,-4.2986,-4.2986,-4.2986,-4.2986,-4.2986,-4.2986,-4.2986,-4.2986,-4.2986,-4.2986,-4.2986,-4.2986,-4.2986,-4.2986,-4.2986,-4.2986,-4.2986,-4.2986,-4.2986,-4.2986,-4.2986,-4.2986,-4.2916,-4.264,-4.2816,-4.2886,-4.264,-4.2811,-4.2961,-4.2986,-4.2818,-4.2762,-4.24,-4.2174,-4.1558,-4.0384,-3.9334,-3.797,-3.6864,-3.5786,-3.4839,-3.3922,-3.3544,-3.3418,-3.3418,-3.3418,-3.3418,-3.3418,-3.3418,-3.3418,-3.3418,-3.3418,-3.3418,-6.3137,-6.3137,-6.3137,-6.3137,-6.3137,-6.3137,-6.3137,-6.3137,-6.3137,-6.272,-6.2061,-6.1672,-6.1104,-6.0505,-6.0027,-5.9697,-5.9488,-5.9458,-5.9338,-5.9129,-5.9099,-5.9099,-5.9009,-5.8441,-5.7752,-5.6944,-5.6406,-5.6008,-5.5568,-5.5299,-5.497,-5.464,-5.4581,-5.4401,-5.3952,-5.3922,-5.3593,-5.3144,-5.3593,-5.3623,-5.3088,-5.295,-5.2457,-5.1418,-5.023,-4.8517,-4.6435,-4.5931,-4.4873,-4.3381,-4.3162,-4.3363,-4.3539,-4.3438,-4.3288,-4.3237,-4.3112,-4.3062,-4.3237,-4.3313,-4.3413,-4.3514,-4.3388,-4.3288,-4.3237,-4.3137,-4.2986,-4.2986,-4.2986,-4.2986,-4.2986,-4.2986,-4.2986,-4.2986,-4.2986,-4.2986,-4.2986,-4.2986,-4.2986,-4.2986,-4.2986,-4.2986,-4.2986,-4.2961,-4.2916,-4.264,-4.2816,-4.2992,-4.2665,-4.2816,-4.2911,-4.2986,-4.2986,-4.293,-4.2986,-4.293,-4.293,-4.198,-4.0952,-3.9216,-3.7768,-3.652,-3.5459,-3.411,-3.3418,-3.3418,-3.3418,-3.3418,-3.3418,-3.3418,-3.3418,-3.3418,-3.3418,-3.3418,-3.3418,-6.3137,-6.3137,-6.3137,-6.3137,-6.3137,-6.3137,-6.3137,-6.3137,-6.3137,-6.275,-6.2271,-6.2061,-6.1732,-6.1253,-6.0984,-6.0625,-6.0206,-5.9997,-5.9727,-5.9308,-5.9159,-5.9099,-5.9009,-5.853,-5.8171,-5.7812,-5.6915,-5.6368,-5.6047,-5.5598,-5.5209,-5.5119,-5.5089,-5.5179,-5.4999,-5.5149,-5.47,-5.4192,-5.473,-5.473,-5.4112,-5.3869,-5.3116,-5.1912,-5.0547,-4.8789,-4.6777,-4.5904,-4.489,-4.3444,-4.3614,-4.4041,-4.4392,-4.4116,-4.384,-4.384,-4.3363,-4.3463,-4.374,-4.384,-4.4016,-4.4367,-4.4066,-4.384,-4.379,-4.3413,-4.3137,-4.3112,-4.3037,-4.2986,-4.2986,-4.2986,-4.2986,-4.2986,-4.2986,-4.2986,-4.2986,-4.2986,-4.2986,-4.2986,-4.2986,-4.2986,-4.2986,-4.2986,-4.2936,-4.2891,-4.2916,-4.2911,-4.2866,-4.2841,-4.2936,-4.2986,-4.2986,-4.2986,-4.2986,-4.2986,-4.2986,-4.2625,-4.1639,-4.021,-3.8365,-3.7028,-3.5767,-3.4465,-3.3607,-3.3544,-3.3418,-3.3481,-3.3418,-3.3418,-3.3418,-3.3418,-3.3418,-3.3418,-3.3437,-6.3137,-6.3137,-6.3137,-6.3137,-6.3137,-6.3137,-6.3137,-6.3137,-6.3137,-6.2959,-6.272,-6.2301,-6.2032,-6.1822,-6.1343,-6.1014,-6.0775,-6.0356,-6.0027,-5.9757,-5.9308,-5.9129,-5.9099,-5.8949,-5.859,-5.8141,-5.7693,-5.7124,-5.6278,-5.6068,-5.5688,-5.5209,-5.5269,-5.5209,-5.5209,-5.5209,-5.485,-5.4371,-5.485,-5.488,-5.4231,-5.3752,-5.2779,-5.1126,-4.9958,-4.8205,-4.6061,-4.5279,-4.4777,-4.4292,-4.4292,-4.4385,-4.4644,-4.4518,-4.4418,-4.4367,-4.4267,-4.4217,-4.4367,-4.4418,-4.4493,-4.4593,-4.4543,-4.4418,-4.4392,-4.389,-4.3614,-4.3514,-4.3263,-4.2986,-4.2986,-4.2986,-4.2986,-4.2986,-4.2986,-4.2986,-4.2986,-4.2986,-4.2986,-4.2986,-4.2986,-4.2986,-4.2986,-4.2961,-4.2861,-4.2665,-4.2766,-4.2942,-4.2791,-4.2866,-4.2986,-4.2986,-4.2986,-4.2986,-4.2986,-4.2986,-4.2986,-4.2874,-4.2118,-4.1009,-3.9039,-3.721,-3.5951,-3.4673,-3.4403,-3.4278,-3.3859,-3.3607,-3.3544,-3.3418,-3.3418,-3.3418,-3.3418,-3.3437,-3.3476,-6.3137,-6.3137,-6.3137,-6.3137,-6.3137,-6.3137,-6.3137,-6.3137,-6.3137,-6.3137,-6.2989,-6.269,-6.251,-6.248,-6.2121,-6.1792,-6.1493,-6.1104,-6.0625,-5.9967,-5.9398,-5.9129,-5.9099,-5.9099,-5.889,-5.856,-5.8261,-5.7723,-5.7064,-5.6705,-5.6346,-5.6047,-5.5718,-5.5598,-5.5598,-5.5299,-5.5029,-5.476,-5.4899,-5.4768,-5.4268,-5.3373,-5.2054,-5.049,-4.9247,-4.773,-4.6036,-4.5522,-4.5246,-4.5045,-4.4995,-4.5095,-4.5296,-4.5095,-4.4995,-4.497,-4.4769,-4.4694,-4.4945,-4.4995,-4.5095,-4.5221,-4.5171,-4.4995,-4.4844,-4.4292,-4.379,-4.374,-4.3288,-4.3037,-4.2986,-4.2986,-4.2986,-4.2986,-4.2986,-4.2986,-4.2986,-4.2986,-4.2986,-4.2986,-4.2986,-4.2986,-4.2986,-4.2986,-4.2836,-4.2715,-4.2811,-4.2785,-4.274,-4.2861,-4.2986,-4.2986,-4.2986,-4.2986,-4.2986,-4.2986,-4.2986,-4.293,-4.2457,-4.1411,-3.9861,-3.785,-3.6846,-3.5869,-3.5376,-3.4819,-3.4278,-3.3796,-3.3481,-3.3418,-3.3418,-3.3418,-3.3418,-3.3594,-3.3613,-6.3137,-6.3137,-6.3137,-6.3137,-6.3137,-6.3137,-6.3137,-6.3137,-6.3137,-6.3137,-6.3107,-6.3137,-6.3047,-6.3137,-6.2839,-6.272,-6.2181,-6.1972,-6.1134,-6.0296,-5.9548,-5.9249,-5.9099,-5.9099,-5.9069,-5.8949,-5.8471,-5.8201,-5.7842,-5.7393,-5.7154,-5.6855,-5.6436,-5.6278,-5.6068,-5.5598,-5.5299,-5.5099,-5.4815,-5.4458,-5.3876,-5.2779,-5.1375,-4.9788,-4.8442,-4.7442,-4.6491,-4.6175,-4.6024,-4.5598,-4.5573,-4.5799,-4.6125,-4.5773,-4.5598,-4.5522,-4.5221,-4.5146,-4.5472,-4.5573,-4.5748,-4.6024,-4.5773,-4.5573,-4.5397,-4.4719,-4.4166,-4.4192,-4.3489,-4.3338,-4.3313,-4.3237,-4.3288,-4.3338,-4.3263,-4.3162,-4.3062,-4.3011,-4.2986,-4.2986,-4.2986,-4.2986,-4.2986,-4.2986,-4.2961,-4.2811,-4.2911,-4.2861,-4.2811,-4.2911,-4.2986,-4.2986,-4.2986,-4.2986,-4.2986,-4.2986,-4.2986,-4.293,-4.2538,-4.1753,-4.0697,-3.9157,-3.8149,-3.7248,-3.6093,-3.5273,-3.4652,-3.4173,-3.3607,-3.3418,-3.3418,-3.3418,-3.3437,-3.375,-3.3887,-6.3137,-6.3137,-6.3137,-6.3137,-6.3137,-6.3137,-6.3137,-6.3137,-6.3137,-6.3137,-6.3137,-6.3137,-6.3137,-6.3137,-6.3137,-6.2989,-6.275,-6.2301,-6.1373,-6.0206,-5.9997,-5.9548,-5.9219,-5.9129,-5.9099,-5.9039,-5.8979,-5.862,-5.8201,-5.7992,-5.7633,-5.7184,-5.7034,-5.6645,-5.6308,-5.6107,-5.5658,-5.5248,-5.4751,-5.4104,-5.3261,-5.2139,-5.0656,-4.8904,-4.7501,-4.6721,-4.6421,-4.6326,-4.625,-4.615,-4.61,-4.6175,-4.625,-4.6175,-4.61,-4.605,-4.5999,-4.5974,-4.6075,-4.61,-4.6175,-4.625,-4.6175,-4.6125,-4.61,-4.5497,-4.5121,-4.502,-4.4618,-4.4192,-4.4141,-4.4217,-4.4166,-4.4116,-4.4141,-4.4016,-4.3664,-4.3263,-4.3112,-4.3037,-4.3062,-4.2986,-4.3011,-4.3037,-4.3037,-4.2986,-4.2986,-4.2986,-4.2986,-4.2986,-4.2986,-4.2986,-4.2986,-4.2986,-4.2986,-4.2986,-4.2986,-4.2986,-4.265,-4.2174,-4.1182,-4.0118,-3.8944,-3.773,-3.6481,-3.5705,-3.4839,-3.4047,-3.3418,-3.3418,-3.3418,-3.3418,-3.3516,-3.3848,-3.416,-6.3137,-6.3137,-6.3137,-6.3137,-6.3137,-6.3137,-6.3137,-6.3137,-6.3137,-6.3137,-6.3137,-6.3137,-6.3137,-6.3137,-6.3137,-6.3137,-6.2929,-6.2391,-6.1762,-6.0984,-6.0475,-5.9907,-5.9578,-5.9249,-5.9099,-5.9099,-5.9099,-5.886,-5.865,-5.853,-5.8411,-5.8022,-5.7752,-5.7483,-5.7034,-5.6765,-5.6466,-5.6042,-5.5374,-5.441,-5.3106,-5.1738,-4.9945,-4.8055,-4.6815,-4.6326,-4.6326,-4.6326,-4.6326,-4.6326,-4.6326,-4.6326,-4.6326,-4.6326,-4.6326,-4.6326,-4.6326,-4.6326,-4.6301,-4.6326,-4.6301,-4.6326,-4.6326,-4.6301,-4.62,-4.5799,-4.5522,-4.5372,-4.4995,-4.4593,-4.4618,-4.4593,-4.4618,-4.4618,-4.4618,-4.4392,-4.394,-4.3765,-4.3614,-4.3514,-4.3639,-4.3589,-4.3514,-4.3313,-4.3112,-4.3087,-4.2986,-4.2986,-4.2986,-4.2986,-4.2986,-4.2986,-4.2986,-4.2986,-4.2986,-4.2986,-4.2986,-4.2986,-4.293,-4.2481,-4.1834,-4.0721,-3.9556,-3.8291,-3.6967,-3.5746,-3.4901,-3.4027,-3.3481,-3.3418,-3.3418,-3.3418,-3.3535,-3.3828,-3.416,-6.3137,-6.3137,-6.3137,-6.3137,-6.3137,-6.3137,-6.3137,-6.3137,-6.3137,-6.3137,-6.3137,-6.3137,-6.3137,-6.3137,-6.3137,-6.3137,-6.2929,-6.26,-6.2151,-6.1792,-6.1014,-6.0416,-5.9997,-5.9578,-5.9249,-5.9129,-5.9099,-5.9069,-5.9069,-5.9099,-5.8919,-5.8949,-5.856,-5.8112,-5.7962,-5.7573,-5.7124,-5.681,-5.596,-5.4595,-5.2906,-5.1426,-4.943,-4.7274,-4.6541,-4.6301,-4.6326,-4.6326,-4.6326,-4.6326,-4.6326,-4.6326,-4.6326,-4.6326,-4.6326,-4.6326,-4.6326,-4.6326,-4.6326,-4.6326,-4.6326,-4.6326,-4.6326,-4.6326,-4.62,-4.5974,-4.5773,-4.5547,-4.5296,-4.5045,-4.4895,-4.502,-4.4995,-4.4945,-4.492,-4.4618,-4.4317,-4.4518,-4.4543,-4.3915,-4.4016,-4.4091,-4.3865,-4.3639,-4.3388,-4.3162,-4.3087,-4.3011,-4.3037,-4.3011,-4.3037,-4.2986,-4.2986,-4.2986,-4.2986,-4.3037,-4.3037,-4.3087,-4.3062,-4.2725,-4.2248,-4.1124,-3.9884,-3.8707,-3.7429,-3.6237,-3.5273,-3.4652,-3.4173,-3.3733,-3.3607,-3.3733,-3.3828,-3.3872,-3.4141,-6.3137,-6.3137,-6.3137,-6.3137,-6.3137,-6.3137,-6.3137,-6.3137,-6.3137,-6.3137,-6.3137,-6.3137,-6.3137,-6.3137,-6.3137,-6.3137,-6.3077,-6.2839,-6.26,-6.2241,-6.1672,-6.1224,-6.0356,-5.9967,-5.9608,-5.9219,-5.9099,-5.9099,-5.9099,-5.9099,-5.9099,-5.9069,-5.8949,-5.868,-5.8261,-5.7962,-5.7693,-5.7265,-5.6241,-5.4613,-5.2519,-5.0651,-4.895,-4.6727,-4.6351,-4.6301,-4.6326,-4.6326,-4.6326,-4.6326,-4.6326,-4.6326,-4.6326,-4.6326,-4.6326,-4.6326,-4.6326,-4.6326,-4.6326,-4.6326,-4.6326,-4.6326,-4.6326,-4.6326,-4.6276,-4.6225,-4.6075,-4.6075,-4.6024,-4.5974,-4.6024,-4.5849,-4.5974,-4.5974,-4.5874,-4.5673,-4.5347,-4.5422,-4.5296,-4.4317,-4.4392,-4.4568,-4.4342,-4.4091,-4.3865,-4.3614,-4.3438,-4.3363,-4.3363,-4.3263,-4.3162,-4.3087,-4.2986,-4.2986,-4.2986,-4.3087,-4.3137,-4.3263,-4.3231,-4.3062,-4.2396,-4.132,-4.021,-3.961,-3.8268,-3.6846,-3.6013,-3.5459,-3.5149,-3.4963,-3.459,-3.4173,-3.4061,-3.4092,-3.4146,-6.3137,-6.3137,-6.3137,-6.3137,-6.3137,-6.3137,-6.3137,-6.3137,-6.3137,-6.3137,-6.3137,-6.3137,-6.3137,-6.3137,-6.3137,-6.3137,-6.3137,-6.3137,-6.2899,-6.257,-6.2241,-6.1852,-6.0954,-6.0475,-5.9967,-5.9578,-5.9308,-5.9129,-5.9099,-5.9099,-5.9099,-5.9099,-5.9099,-5.8919,-5.871,-5.862,-5.8441,-5.7845,-5.6837,-5.5136,-5.2451,-5.0153,-4.7777,-4.7056,-4.6451,-4.6326,-4.6326,-4.6326,-4.6326,-4.6326,-4.6326,-4.6326,-4.6326,-4.6326,-4.6326,-4.6326,-4.6326,-4.6326,-4.6326,-4.6326,-4.6326,-4.6326,-4.6326,-4.6326,-4.6326,-4.6301,-4.6326,-4.6326,-4.6326,-4.6326,-4.6276,-4.6326,-4.6326,-4.6326,-4.6301,-4.605,-4.5799,-4.605,-4.5522,-4.4844,-4.5221,-4.5296,-4.4945,-4.4669,-4.4392,-4.4116,-4.384,-4.3765,-4.3714,-4.3664,-4.3589,-4.3639,-4.3614,-4.3614,-4.3589,-4.3564,-4.3564,-4.3589,-4.3582,-4.3412,-4.3119,-4.233,-4.1787,-4.1377,-3.9702,-3.8043,-3.7309,-3.7006,-3.6581,-3.6175,-3.5684,-3.5129,-3.4526,-3.4286,-3.4305,-6.3137,-6.3137,-6.3137,-6.3137,-6.3137,-6.3137,-6.3137,-6.3137,-6.3137,-6.3137,-6.3137,-6.3137,-6.3137,-6.3137,-6.3137,-6.3137,-6.3137,-6.3137,-6.3049,-6.2929,-6.257,-6.2241,-6.1762,-6.1134,-6.0386,-5.9937,-5.9907,-5.9338,-5.9129,-5.9099,-5.9099,-5.9099,-5.9099,-5.9099,-5.9069,-5.9009,-5.9099,-5.8773,-5.7889,-5.5994,-5.2838,-4.9369,-4.7068,-4.7018,-4.6602,-4.6326,-4.6326,-4.6326,-4.6326,-4.6326,-4.6326,-4.6326,-4.6326,-4.6326,-4.6326,-4.6326,-4.6326,-4.6326,-4.6326,-4.6326,-4.6326,-4.6326,-4.6326,-4.6326,-4.6326,-4.6326,-4.6326,-4.6326,-4.6326,-4.6326,-4.6326,-4.6326,-4.6326,-4.6326,-4.6276,-4.6175,-4.5974,-4.5999,-4.61,-4.5874,-4.6175,-4.5899,-4.5372,-4.5146,-4.4844,-4.4468,-4.4192,-4.4242,-4.4217,-4.4292,-4.4292,-4.4392,-4.4418,-4.4392,-4.4367,-4.4292,-4.4242,-4.4192,-4.4217,-4.4102,-4.3937,-4.3687,-4.3267,-4.2839,-4.1683,-4.0164,-3.9413,-3.8588,-3.8127,-3.7588,-3.6803,-3.6093,-3.5479,-3.4629,-3.4239,-6.3137,-6.3137,-6.3137,-6.3137,-6.3137,-6.3137,-6.3137,-6.3137,-6.3137,-6.3137,-6.3137,-6.3137,-6.3137,-6.3137,-6.3137,-6.3137,-6.3137,-6.3137,-6.3137,-6.3077,-6.2899,-6.26,-6.2181,-6.2002,-6.1074,-6.0535,-6.0625,-6.0116,-5.9548,-5.9279,-5.9159,-5.9189,-5.9159,-5.9099,-5.9099,-5.9099,-5.9099,-5.8882,-5.7863,-5.5535,-5.2143,-4.8901,-4.7514,-4.7043,-4.6753,-4.6451,-4.6527,-4.6527,-4.6476,-4.6426,-4.6376,-4.6326,-4.6326,-4.6326,-4.6326,-4.6326,-4.6326,-4.6326,-4.6326,-4.6326,-4.6326,-4.6326,-4.6326,-4.6326,-4.6326,-4.6326,-4.6326,-4.6326,-4.6326,-4.6326,-4.6326,-4.6326,-4.6326,-4.6326,-4.6301,-4.6301,-4.62,-4.6075,-4.615,-4.6175,-4.625,-4.5999,-4.5598,-4.5447,-4.5271,-4.4895,-4.4644,-4.4694,-4.4794,-4.492,-4.497,-4.5045,-4.5095,-4.5095,-4.5095,-4.5045,-4.497,-4.4869,-4.4811,-4.4811,-4.4761,-4.4718,-4.4611,-4.3952,-4.2977,-4.2244,-4.1424,-4.0645,-3.9895,-3.9075,-3.8402,-3.7407,-3.642,-3.548,-3.4501,-6.275,-6.3137,-6.3137,-6.3137,-6.3137,-6.3137,-6.3137,-6.3137,-6.3137,-6.3137,-6.3137,-6.3137,-6.3137,-6.3137,-6.3137,-6.3137,-6.3137,-6.3137,-6.3137,-6.3137,-6.3107,-6.2929,-6.263,-6.2271,-6.1613,-6.1373,-6.1104,-6.0864,-6.0236,-5.9847,-5.9638,-5.9578,-5.9308,-5.9099,-5.9099,-5.9099,-5.9099,-5.847,-5.6878,-5.4568,-5.215,-4.9672,-4.8033,-4.8008,-4.7456,-4.723,-4.7154,-4.7205,-4.7205,-4.7154,-4.6979,-4.6778,-4.6677,-4.6527,-4.6326,-4.6326,-4.6326,-4.6326,-4.6326,-4.6326,-4.6326,-4.6326,-4.6326,-4.6326,-4.6326,-4.6326,-4.6326,-4.6326,-4.6326,-4.6326,-4.6326,-4.6326,-4.6326,-4.6326,-4.6476,-4.6426,-4.6426,-4.6326,-4.6276,-4.6301,-4.6301,-4.6075,-4.5899,-4.5874,-4.5799,-4.5648,-4.5472,-4.5547,-4.5623,-4.5748,-4.5748,-4.5723,-4.5723,-4.5723,-4.5773,-4.5773,-4.5748,-4.5673,-4.5698,-4.5698,-4.5673,-4.5563,-4.5422,-4.5296,-4.4718,-4.4023,-4.3389,-4.253,-4.1562,-4.0792,-4.0094,-3.9035,-3.7951,-3.6156,-3.5128,-6.2391,-6.2839,-6.3019,-6.3137,-6.3137,-6.3137,-6.3137,-6.3137,-6.3137,-6.3137,-6.3137,-6.3137,-6.3137,-6.3137,-6.3137,-6.3137,-6.3137,-6.3137,-6.3137,-6.3137,-6.3137,-6.3137,-6.2899,-6.254,-6.2271,-6.2121,-6.1912,-6.1553,-6.1253,-6.0864,-6.0505,-6.0116,-5.9638,-5.9308,-5.9129,-5.9045,-5.8991,-5.825,-5.5935,-5.3997,-5.2341,-5.0061,-4.9014,-4.856,-4.8259,-4.7908,-4.7908,-4.7857,-4.7857,-4.7757,-4.733,-4.6993,-4.6943,-4.6602,-4.6351,-4.6326,-4.6326,-4.6326,-4.6326,-4.6326,-4.6326,-4.6326,-4.6326,-4.6326,-4.6326,-4.6326,-4.6326,-4.6326,-4.6326,-4.6376,-4.6476,-4.6552,-4.6728,-4.6803,-4.6828,-4.6753,-4.6677,-4.6677,-4.6627,-4.6602,-4.6552,-4.6326,-4.62,-4.625,-4.6276,-4.6276,-4.6301,-4.6326,-4.6301,-4.625,-4.62,-4.605,-4.605,-4.605,-4.61,-4.62,-4.6301,-4.6326,-4.6326,-4.6276,-4.61,-4.61,-4.6024,-4.5949,-4.5849,-4.532,-4.4373,-4.3821,-4.3219,-4.2479,-4.1705,-4.0775,-3.946,-3.7532,-3.5728,-6.2121,-6.2211,-6.281,-6.3107,-6.3137,-6.3137,-6.3137,-6.3137,-6.3137,-6.3137,-6.3137,-6.3137,-6.3137,-6.3137,-6.3137,-6.3137,-6.3137,-6.3137,-6.3137,-6.3137,-6.3137,-6.3137,-6.3019,-6.2899,-6.269,-6.2361,-6.2391,-6.2391,-6.2151,-6.1912,-6.1134,-6.0236,-6.0146,-5.9668,-5.9398,-5.9284,-5.8559,-5.7613,-5.55,-5.3844,-5.2306,-5.0404,-4.8925,-4.8711,-4.8284,-4.7908,-4.7933,-4.8058,-4.8134,-4.8109,-4.7657,-4.738,-4.7355,-4.6878,-4.6627,-4.6602,-4.6577,-4.6602,-4.6577,-4.6401,-4.6326,-4.6326,-4.6326,-4.6326,-4.6326,-4.6326,-4.6326,-4.6351,-4.6401,-4.6627,-4.6853,-4.7043,-4.723,-4.7355,-4.738,-4.7405,-4.7305,-4.7154,-4.7104,-4.6918,-4.6778,-4.6552,-4.6326,-4.6326,-4.6326,-4.6326,-4.6326,-4.6326,-4.6326,-4.6301,-4.6301,-4.625,-4.625,-4.625,-4.6276,-4.6326,-4.6326,-4.6326,-4.6326,-4.6326,-4.6276,-4.6326,-4.6326,-4.62,-4.5974,-4.5723,-4.5472,-4.492,-4.4369,-4.402,-4.3252,-4.2053,-4.0287,-3.8226,-3.6371,-6.1343,-6.2121,-6.2361,-6.272,-6.3137,-6.3137,-6.3137,-6.3137,-6.3137,-6.3137,-6.3137,-6.3137,-6.3137,-6.3137,-6.3137,-6.3137,-6.3137,-6.3137,-6.3137,-6.3137,-6.3137,-6.3137,-6.3137,-6.3107,-6.2929,-6.278,-6.2959,-6.3019,-6.272,-6.263,-6.2181,-6.1493,-6.0984,-6.0655,-6.0326,-5.9762,-5.8774,-5.7163,-5.5442,-5.3844,-5.2385,-5.0561,-4.9264,-4.9238,-4.9163,-4.8962,-4.8987,-4.8962,-4.8937,-4.8761,-4.8335,-4.8134,-4.7933,-4.7481,-4.723,-4.7205,-4.7179,-4.7179,-4.7054,-4.6728,-4.6326,-4.6326,-4.6326,-4.6351,-4.6426,-4.6351,-4.6326,-4.6401,-4.6652,-4.6979,-4.7018,-4.7405,-4.7682,-4.7857,-4.7958,-4.8033,-4.7958,-4.7782,-4.7556,-4.7431,-4.7079,-4.6753,-4.6527,-4.6326,-4.6326,-4.6326,-4.6326,-4.6326,-4.6326,-4.6326,-4.6326,-4.6326,-4.6326,-4.6326,-4.6326,-4.6326,-4.6326,-4.6326,-4.6326,-4.6326,-4.6326,-4.6326,-4.6301,-4.62,-4.6175,-4.6024,-4.5874,-4.5773,-4.5379,-4.4802,-4.3949,-4.2971,-4.1028,-3.8963,-3.7209,-6.0625,-6.1523,-6.1942,-6.248,-6.3107,-6.3137,-6.3137,-6.3137,-6.3137,-6.3137,-6.3137,-6.3137,-6.3137,-6.3137,-6.3137,-6.3137,-6.3137,-6.3137,-6.3137,-6.3137,-6.3137,-6.3137,-6.3137,-6.3137,-6.3107,-6.3137,-6.3137,-6.3107,-6.3019,-6.3137,-6.275,-6.2301,-6.1942,-6.1613,-6.0894,-6.039,-5.9296,-5.7538,-5.5498,-5.3844,-5.2527,-5.0689,-4.9565,-4.9565,-4.949,-4.949,-4.9464,-4.9439,-4.9464,-4.9314,-4.9038,-4.8786,-4.856,-4.8309,-4.7983,-4.7933,-4.7933,-4.7933,-4.7707,-4.733,-4.6803,-4.6928,-4.6903,-4.6878,-4.6778,-4.6778,-4.6954,-4.6928,-4.7205,-4.7405,-4.7531,-4.8008,-4.836,-4.8586,-4.8661,-4.8711,-4.856,-4.841,-4.8109,-4.7857,-4.7506,-4.7179,-4.6878,-4.6677,-4.6527,-4.6451,-4.6326,-4.6326,-4.6326,-4.6326,-4.6326,-4.6326,-4.6326,-4.6326,-4.6326,-4.6326,-4.6326,-4.6326,-4.6326,-4.6326,-4.6326,-4.6326,-4.6326,-4.6276,-4.6276,-4.6301,-4.6225,-4.605,-4.5723,-4.5288,-4.4487,-4.3662,-4.1908,-3.9917,-3.8057,-6.0116,-6.0296,-6.1553,-6.2421,-6.3047,-6.3079,-6.3137,-6.3137,-6.3137,-6.3137,-6.3137,-6.3137,-6.3137,-6.3137,-6.3137,-6.3137,-6.3137,-6.3137,-6.3137,-6.3137,-6.3137,-6.3137,-6.3137,-6.3137,-6.3137,-6.3137,-6.3137,-6.3137,-6.3137,-6.3137,-6.2989,-6.2959,-6.269,-6.2241,-6.1194,-6.0475,-5.9477,-5.8059,-5.5664,-5.4041,-5.2439,-5.0652,-4.9719,-4.959,-4.959,-4.959,-4.959,-4.959,-4.959,-4.9515,-4.9188,-4.8937,-4.8837,-4.8435,-4.8159,-4.8109,-4.8083,-4.8033,-4.7933,-4.7883,-4.7832,-4.7657,-4.7506,-4.7581,-4.7757,-4.7782,-4.7657,-4.7506,-4.7807,-4.8134,-4.8435,-4.8761,-4.9012,-4.9163,-4.9213,-4.9213,-4.9063,-4.8962,-4.8661,-4.8309,-4.8008,-4.7732,-4.738,-4.7079,-4.6853,-4.6652,-4.6401,-4.6351,-4.6426,-4.6326,-4.6326,-4.6326,-4.6326,-4.6326,-4.6326,-4.6326,-4.6326,-4.6326,-4.6326,-4.6326,-4.6326,-4.6326,-4.6326,-4.6326,-4.6326,-4.6326,-4.6326,-4.6276,-4.5999,-4.5654,-4.5168,-4.4218,-4.2551,-4.0896,-3.9131,-5.9697,-6.0176,-6.1074,-6.1822,-6.245,-6.2929,-6.3137,-6.3137,-6.3137,-6.3137,-6.3137,-6.3137,-6.3137,-6.3137,-6.3137,-6.3137,-6.3137,-6.3137,-6.3137,-6.3137,-6.3137,-6.3137,-6.3137,-6.3137,-6.3137,-6.3137,-6.3137,-6.3137,-6.3137,-6.3137,-6.3137,-6.3137,-6.3077,-6.26,-6.1972,-6.1317,-6.0541,-5.832,-5.6148,-5.4254,-5.258,-5.0741,-4.959,-4.959,-4.959,-4.959,-4.959,-4.959,-4.959,-4.959,-4.9289,-4.9264,-4.9264,-4.8937,-4.8962,-4.8987,-4.8987,-4.9038,-4.9038,-4.8962,-4.8611,-4.8259,-4.8008,-4.8033,-4.7933,-4.7908,-4.7908,-4.8058,-4.8335,-4.8586,-4.8711,-4.9138,-4.9389,-4.9439,-4.949,-4.949,-4.9414,-4.9389,-4.9188,-4.8812,-4.846,-4.8209,-4.7883,-4.7732,-4.7506,-4.738,-4.7205,-4.6878,-4.6853,-4.6476,-4.6326,-4.6326,-4.6326,-4.6326,-4.6326,-4.6326,-4.6326,-4.6326,-4.6326,-4.6326,-4.6326,-4.6326,-4.6326,-4.6326,-4.6326,-4.6326,-4.6326,-4.6326,-4.6326,-4.6035,-4.5428,-4.4706,-4.3333,-4.1838,-4.0384,-5.9368,-5.9847,-6.0745,-6.1343,-6.1882,-6.269,-6.3137,-6.3137,-6.3137,-6.3137,-6.3137,-6.3137,-6.3137,-6.3137,-6.3137,-6.3137,-6.3137,-6.3137,-6.3137,-6.3137,-6.3137,-6.3137,-6.3137,-6.3137,-6.3137,-6.3137,-6.3137,-6.3137,-6.3137,-6.3137,-6.3137,-6.3137,-6.3079,-6.2782,-6.2336,-6.1863,-6.1104,-5.8842,-5.6767,-5.45,-5.2784,-5.1085,-4.959,-4.959,-4.959,-4.959,-4.959,-4.959,-4.959,-4.959,-4.959,-4.959,-4.959,-4.959,-4.959,-4.959,-4.959,-4.9565,-4.9515,-4.9515,-4.9113,-4.8686,-4.851,-4.851,-4.8485,-4.8611,-4.8611,-4.8711,-4.8862,-4.8962,-4.9113,-4.954,-4.9565,-4.959,-4.959,-4.959,-4.959,-4.954,-4.949,-4.9113,-4.8987,-4.8711,-4.8485,-4.8385,-4.8234,-4.8159,-4.8058,-4.7682,-4.7255,-4.6828,-4.6451,-4.6401,-4.6351,-4.6326,-4.6326,-4.6326,-4.6326,-4.6326,-4.6326,-4.6326,-4.6326,-4.6326,-4.6326,-4.6326,-4.6326,-4.6326,-4.6326,-4.6326,-4.6326,-4.612,-4.5671,-4.4829,-4.3941,-4.254,-4.1011,-5.9099,-5.9308,-6.0535,-6.1104,-6.1343,-6.254,-6.3137,-6.3137,-6.3137,-6.3137,-6.3137,-6.3137,-6.3137,-6.3137,-6.3137,-6.3137,-6.3137,-6.3137,-6.3137,-6.3137,-6.3137,-6.3137,-6.3137,-6.3137,-6.3137,-6.3137,-6.3137,-6.3137,-6.3137,-6.3137,-6.3137,-6.3137,-6.3137,-6.2816,-6.2491,-6.1905,-6.1027,-5.9096,-5.7005,-5.4808,-5.2969,-5.1011,-4.9909,-4.964,-4.959,-4.959,-4.959,-4.959,-4.959,-4.959,-4.959,-4.959,-4.959,-4.959,-4.959,-4.959,-4.959,-4.959,-4.959,-4.959,-4.9565,-4.9289,-4.9389,-4.9515,-4.9439,-4.9264,-4.9213,-4.9238,-4.9364,-4.9439,-4.959,-4.959,-4.959,-4.959,-4.959,-4.959,-4.959,-4.959,-4.959,-4.949,-4.9464,-4.9314,-4.9213,-4.9088,-4.8812,-4.8887,-4.8711,-4.8259,-4.7807,-4.7205,-4.6828,-4.6527,-4.6451,-4.6326,-4.6326,-4.6351,-4.6326,-4.6326,-4.6326,-4.6326,-4.6326,-4.6326,-4.6326,-4.6326,-4.6326,-4.6326,-4.6326,-4.6326,-4.6326,-4.5999,-4.5757,-4.489,-4.3941,-4.25,-4.0968,-5.9099,-5.9189,-6.0027,-6.0655,-6.1283,-6.251,-6.3137,-6.3137,-6.3137,-6.3137,-6.3137,-6.3137,-6.3137,-6.3137,-6.3137,-6.3137,-6.3137,-6.3137,-6.3137,-6.3137,-6.3137,-6.3137,-6.3137,-6.3137,-6.3137,-6.3137,-6.3137,-6.3137,-6.3137,-6.3137,-6.3137,-6.3137,-6.3137,-6.2789,-6.2145,-6.1409,-6.0316,-5.8892,-5.6802,-5.4889,-5.2997,-5.1061,-5.0136,-4.9715,-4.959,-4.959,-4.959,-4.959,-4.959,-4.959,-4.959,-4.959,-4.959,-4.959,-4.959,-4.959,-4.959,-4.959,-4.959,-4.959,-4.959,-4.959,-4.959,-4.959,-4.959,-4.959,-4.959,-4.959,-4.959,-4.959,-4.959,-4.959,-4.959,-4.959,-4.959,-4.959,-4.959,-4.959,-4.959,-4.959,-4.959,-4.959,-4.954,-4.949,-4.9264,-4.9439,-4.9339,-4.8862,-4.8385,-4.7782,-4.728,-4.6954,-4.6753,-4.6677,-4.6476,-4.6451,-4.6376,-4.6326,-4.6451,-4.6527,-4.6527,-4.6502,-4.6376,-4.6426,-4.6602,-4.6502,-4.6326,-4.6401,-4.6652,-4.6159,-4.5806,-4.4878,-4.3841,-4.2529,-4.1015,-5.9099,-5.9189,-5.9817,-6.0625,-6.1553,-6.2331,-6.281,-6.3107,-6.3137,-6.3137,-6.3137,-6.3137,-6.3137,-6.3137,-6.3137,-6.3137,-6.3137,-6.3137,-6.3137,-6.3137,-6.3137,-6.3137,-6.3137,-6.3137,-6.3137,-6.3137,-6.3137,-6.3137,-6.3137,-6.3137,-6.3137,-6.3137,-6.3137,-6.2585,-6.1821,-6.075,-5.9423,-5.8001,-5.6296,-5.4522,-5.2802,-5.1173,-5.0287,-4.9741,-4.9615,-4.959,-4.959,-4.959,-4.959,-4.959,-4.959,-4.959,-4.959,-4.959,-4.959,-4.959,-4.959,-4.959,-4.959,-4.959,-4.959,-4.959,-4.959,-4.959,-4.959,-4.959,-4.959,-4.959,-4.959,-4.959,-4.959,-4.959,-4.959,-4.959,-4.959,-4.959,-4.959,-4.959,-4.959,-4.959,-4.959,-4.959,-4.959,-4.959,-4.959,-4.959,-4.954,-4.9364,-4.8937,-4.846,-4.7933,-4.7506,-4.728,-4.7129,-4.6903,-4.6803,-4.6903,-4.7004,-4.7129,-4.7154,-4.6928,-4.6954,-4.7079,-4.7054,-4.7054,-4.6954,-4.6903,-4.6979,-4.7043,-4.6634,-4.6253,-4.5635,-4.4484,-4.2857,-4.1283,-5.9099,-5.9159,-5.9817,-6.0745,-6.1852,-6.2032,-6.245,-6.2989,-6.3077,-6.3137,-6.3137,-6.3137,-6.3137,-6.3137,-6.3137,-6.3137,-6.3137,-6.3137,-6.3137,-6.3137,-6.3137,-6.3137,-6.3137,-6.3137,-6.3137,-6.3137,-6.3137,-6.3137,-6.3137,-6.3137,-6.3137,-6.3137,-6.3137,-6.2585,-6.1524,-6.0051,-5.8578,-5.7067,-5.5492,-5.3778,-5.2684,-5.1362,-5.0243,-4.9791,-4.9665,-4.959,-4.959,-4.959,-4.959,-4.959,-4.959,-4.959,-4.959,-4.959,-4.959,-4.959,-4.959,-4.959,-4.959,-4.959,-4.959,-4.959,-4.959,-4.959,-4.959,-4.959,-4.959,-4.959,-4.959,-4.959,-4.959,-4.959,-4.959,-4.959,-4.959,-4.959,-4.959,-4.959,-4.959,-4.959,-4.959,-4.959,-4.959,-4.959,-4.959,-4.959,-4.959,-4.954,-4.9389,-4.8987,-4.856,-4.8033,-4.7707,-4.7531,-4.7556,-4.7506,-4.7657,-4.7782,-4.7807,-4.7707,-4.7456,-4.7606,-4.7857,-4.7682,-4.7456,-4.7631,-4.7682,-4.7631,-4.7556,-4.7457,-4.7022,-4.6504,-4.5302,-4.378,-4.1815,-5.9099,-5.9159,-5.9817,-6.0296,-6.0715,-6.1672,-6.2151,-6.2391,-6.2869,-6.3107,-6.3137,-6.3137,-6.3137,-6.3137,-6.3137,-6.3137,-6.3137,-6.3137,-6.3137,-6.3137,-6.3137,-6.3137,-6.3137,-6.3137,-6.3137,-6.3137,-6.3137,-6.3137,-6.3137,-6.3137,-6.3137,-6.3137,-6.3079,-6.2526,-6.1226,-5.9532,-5.7842,-5.6417,-5.4545,-5.3382,-5.2654,-5.1722,-5.082,-5.0268,-4.9941,-4.9665,-4.9615,-4.959,-4.959,-4.959,-4.959,-4.959,-4.959,-4.959,-4.959,-4.959,-4.959,-4.959,-4.959,-4.959,-4.959,-4.959,-4.959,-4.959,-4.959,-4.959,-4.959,-4.959,-4.959,-4.959,-4.959,-4.959,-4.959,-4.959,-4.959,-4.959,-4.959,-4.959,-4.959,-4.959,-4.959,-4.959,-4.959,-4.959,-4.959,-4.959,-4.959,-4.959,-4.959,-4.9339,-4.9088,-4.8586,-4.8083,-4.7933,-4.8033,-4.8159,-4.8284,-4.8184,-4.8134,-4.8058,-4.7983,-4.8134,-4.8309,-4.8008,-4.7857,-4.8134,-4.8184,-4.7933,-4.7845,-4.8046,-4.7933,-4.7463,-4.6761,-4.545,-4.3059,-5.9099,-5.9159,-5.9488,-5.9817,-6.0206,-6.0894,-6.1523,-6.2091,-6.248,-6.281,-6.3049,-6.3137,-6.3137,-6.3137,-6.3137,-6.3137,-6.3137,-6.3137,-6.3137,-6.3137,-6.3137,-6.3137,-6.3137,-6.3137,-6.3137,-6.3137,-6.3137,-6.3137,-6.3137,-6.3137,-6.3137,-6.3137,-6.3021,-6.238,-6.1017,-5.9098,-5.7396,-5.6052,-5.3971,-5.3002,-5.2624,-5.2035,-5.1172,-5.0569,-5.0142,-4.9866,-4.9615,-4.959,-4.959,-4.959,-4.959,-4.959,-4.959,-4.959,-4.959,-4.959,-4.959,-4.959,-4.959,-4.959,-4.959,-4.959,-4.959,-4.959,-4.959,-4.959,-4.959,-4.959,-4.959,-4.959,-4.959,-4.959,-4.959,-4.959,-4.959,-4.959,-4.959,-4.959,-4.959,-4.959,-4.959,-4.959,-4.959,-4.959,-4.959,-4.959,-4.959,-4.959,-4.959,-4.959,-4.9389,-4.9163,-4.8661,-4.8611,-4.8837,-4.8887,-4.8862,-4.8736,-4.8535,-4.8686,-4.8812,-4.8736,-4.8686,-4.8586,-4.8586,-4.8761,-4.8711,-4.8485,-4.8611,-4.8887,-4.871,-4.8405,-4.7715,-4.707,-4.538,-5.9099,-5.9099,-5.9129,-5.9428,-5.9937,-6.0086,-6.0745,-6.1702,-6.2032,-6.2421,-6.2869,-6.3019,-6.3137,-6.3137,-6.3137,-6.3137,-6.3137,-6.3137,-6.3137,-6.3137,-6.3137,-6.3137,-6.3137,-6.3137,-6.3137,-6.3137,-6.3137,-6.3137,-6.3137,-6.3137,-6.3137,-6.3137,-6.2817,-6.2468,-6.0897,-5.9098,-5.7396,-5.5894,-5.4309,-5.3136,-5.2678,-5.2402,-5.1599,-5.0946,-5.0444,-5.0167,-4.9841,-4.964,-4.964,-4.959,-4.959,-4.959,-4.959,-4.959,-4.959,-4.959,-4.959,-4.959,-4.959,-4.959,-4.959,-4.959,-4.959,-4.959,-4.959,-4.959,-4.959,-4.959,-4.959,-4.959,-4.959,-4.959,-4.959,-4.959,-4.959,-4.959,-4.959,-4.959,-4.959,-4.959,-4.959,-4.959,-4.959,-4.959,-4.959,-4.959,-4.959,-4.959,-4.959,-4.959,-4.949,-4.9439,-4.9238,-4.9314,-4.949,-4.9389,-4.9264,-4.9264,-4.9138,-4.9414,-4.954,-4.9289,-4.9213,-4.9364,-4.9414,-4.9289,-4.9339,-4.9238,-4.9414,-4.9439,-4.925,-4.8971,-4.8918,-4.8272,-4.7848,-5.9099,-5.9099,-5.9099,-5.9189,-5.9368,-5.9847,-6.0266,-6.0625,-6.1642,-6.2181,-6.2421,-6.2869,-6.3137,-6.3137,-6.3137,-6.3137,-6.3137,-6.3137,-6.3137,-6.3137,-6.3137,-6.3137,-6.3137,-6.3137,-6.3137,-6.3137,-6.3137,-6.3137,-6.3137,-6.3137,-6.3137,-6.3137,-6.3137,-6.238,-6.0957,-5.9161,-5.7332,-5.5828,-5.4241,-5.2861,-5.271,-5.2477,-5.2126,-5.1498,-5.087,-5.0544,-5.0167,-4.9816,-4.9665,-4.959,-4.964,-4.9665,-4.964,-4.964,-4.959,-4.959,-4.959,-4.959,-4.959,-4.959,-4.959,-4.959,-4.959,-4.959,-4.959,-4.959,-4.959,-4.959,-4.959,-4.959,-4.959,-4.959,-4.959,-4.959,-4.959,-4.959,-4.959,-4.959,-4.959,-4.959,-4.959,-4.959,-4.959,-4.959,-4.959,-4.959,-4.959,-4.959,-4.959,-4.959,-4.959,-4.959,-4.959,-4.959,-4.9565,-4.9565,-4.949,-4.9565,-4.959,-4.959,-4.959,-4.959,-4.959,-4.959,-4.959,-4.9515,-4.959,-4.959,-4.959,-4.954,-4.9565,-4.9475,-4.9461,-4.9267,-4.8632]},{"header":{"parameterUnit":"m.s-1","parameterCategory":1,"la1":31.0,"la2":29.5877,"lo1":-88.7671,"lo2":-86.6584,"dy":0.0162,"dx":0.0185,"nx":115,"ny":88,"refTime":"2026-03-29T12:00:00:Z","depth":0,"parameterNumber":3,"parameterNumberName":"V-component_of_WINDS"},"data":[0.0,0.0,0.0,0.0,0.0,0.0,0.0,0.0,0.0,0.0,0.0,0.0,0.0,0.0,0.0,0.0,0.0,0.0,0.0,0.0,0.0,0.0,0.0,0.0,0.0,0.0,0.0,0.0,0.0,0.0,0.0,0.0,0.0,0.0,0.0,0.0,0.0,0.0,0.0,0.0,0.0,0.0,0.0,0.0,0.0,0.0,0.0,0.0,0.0,0.0,0.0,0.0,0.0,0.0,0.0,0.0,0.0,0.0,0.0,0.0,0.0,0.0,0.0,0.0,0.0,0.0,0.0,0.0,0.0,0.0,0.0,0.0,0.0,0.0,0.0,0.0,0.0,0.0,0.0,0.0,0.0,0.0,0.0,0.0,0.0,0.0,0.0,0.0,0.0,0.0,0.0,0.0,0.0,0.0,0.0,0.0,0.0,0.0,0.0,0.0,0.0,0.0,0.0,0.0,0.0,0.0,0.0,0.0,0.0,0.0,0.0,0.0,0.0,0.0,0.0,0.0,0.0,0.0,0.0,0.0,0.0,0.0,0.0,0.0,0.0,0.0,0.0,0.0,0.0,0.0,0.0,0.0,0.0,0.0,0.0,0.0,0.0,0.0,0.0,0.0,0.0,0.0,0.0,0.0,0.0,0.0,0.0,0.0,0.0,0.0,0.0,0.0,0.0,0.0,0.0,0.0,0.0,0.0,0.0,0.0,0.0,0.0,0.0,0.0,0.0,0.0,0.0,0.0,0.0,0.0,0.0,0.0,0.0,0.0,0.0,0.0,0.0,0.0,0.0,0.0,0.0,0.0,0.0,0.0,0.0,0.0,0.0,0.0,0.0,0.0,0.0,0.0,0.0,0.0,0.0,0.0,0.0,0.0,0.0,0.0,0.0,0.0,0.0,0.0,0.0,0.0,0.0,0.0,0.0,0.0,0.0,0.0,0.0,0.0,0.0,0.0,0.0,0.0,0.0,0.0,0.0,0.0,0.0,0.0,0.0,0.0,0.0,0.0,0.0,0.0,0.0,0.0,0.0,0.0,0.0,0.0,0.0,0.0,0.0,0.0,0.0,0.0,0.0,0.0,0.0,0.0,0.0,0.0,0.0,0.0,0.0,0.0,0.0,0.0,0.0,0.0,0.0,0.0,0.0,0.0,0.0,0.0,0.0,0.0,0.0,0.0,0.0,0.0,0.0,0.0,0.0,0.0,0.0,0.0,0.0,0.0,0.0,0.0,0.0,0.0,0.0,0.0,0.0,0.0,0.0,0.0,0.0,0.0,0.0,0.0,0.0,0.0,0.0,0.0,0.0,0.0,0.0,0.0,0.0,0.0,0.0,0.0,0.0,0.0,0.0,0.0,0.0,0.0,0.0,0.0,0.0,0.0,0.0,0.0,0.0,0.0,0.0,0.0,0.0,0.0,0.0,0.0,0.0,0.0,0.0,0.0,0.0,0.0,0.0,0.0,0.0,0.0,0.0,0.0,0.0,0.0,0.0,0.0,0.0,0.0,0.0,0.0,0.0,0.0,0.0,0.0,0.0,0.0,0.0,0.0,0.0,0.0,0.0,0.0,0.0,0.0,0.0,0.0,0.0,0.0,0.0,0.0,0.0,0.0,0.0,0.0,0.0,0.0,0.0,0.0,0.0,0.0,0.0,0.0,0.0,0.0,0.0,0.0,0.0,0.0,0.0,0.0,0.0,0.0,0.0,0.0,0.0,0.0,0.0,0.0,0.0,0.0,0.0,0.0,0.0,0.0,0.0,0.0,0.0,0.0,0.0,0.0,0.0,0.0,0.0,0.0,0.0,0.0,0.0,0.0,0.0,0.0,0.0,0.0,0.0,0.0,0.0,0.0,0.0,0.0,0.0,0.0,0.0,0.0,0.0,0.0,0.0,0.0,0.0,0.0,0.0,0.0,0.0,0.0,0.0,0.0,0.0,0.0,0.0,0.0,0.0,0.0,0.0,0.0,0.0,0.0,0.0,0.0,0.0,0.0,0.0,0.0,0.0,0.0,0.0,0.0,0.0,0.0,0.0,0.0,0.0,0.0,0.0,0.0,0.0,0.0,0.0,0.0,0.0,0.0,0.0,0.0,0.0,0.0,0.0,0.0,0.0,0.0,0.0,0.0,0.0,0.0,0.0,0.0,0.0,0.0,0.0,0.0,0.0,0.0,0.0,0.0,0.0,0.0,0.0,0.0,0.0,0.0,0.0,0.0,0.0,0.0,0.0,0.0,0.0,0.0,0.0,0.0,0.0,0.0,0.0,0.0,0.0,0.0,0.0,0.0,0.0,0.0,0.0,0.0,0.0,0.0,0.0,0.0,0.0,0.0,0.0,0.0,0.0,0.0,0.0,0.0,0.0,0.0,0.0,0.0,0.0,0.0,0.0,0.0,0.0,0.0,0.0,0.0,0.0,0.0,0.0,0.0,0.0,0.0,0.0,0.0,0.0,0.0,0.0,0.0,0.0,0.0,0.0,0.0,0.0,0.0,0.0,0.0,0.0,0.0,0.0,0.0,0.0,0.0,0.0,0.0,0.0,0.0,0.0,0.0,0.0,0.0,0.0,0.0,0.0,0.0,0.0,0.0,0.0,0.0,0.0,0.0,0.0,0.0,0.0,0.0,0.0,0.0,0.0,0.0,0.0,0.0,0.0,0.0,0.0,0.0,0.0,0.0,0.0,0.0,0.0,0.0,0.0,0.0,0.0,0.0,0.0,0.0,0.0,0.0,0.0,0.0,0.0,0.0,0.0,0.0,0.0,0.0,0.0,0.0,0.0,0.0,0.0,0.0,0.0,0.0,0.0,0.0,0.0,0.0,0.0,0.0,0.0,0.0,0.0,0.0,0.0,0.0,0.0,0.0,0.0,0.0,0.0,0.0,0.0,0.0,0.0,0.0,0.0,0.0,0.0,0.0,0.0,0.0,0.0,0.0,0.0,0.0,0.0,0.0,0.0,0.0,0.0,0.0,0.0,0.0,0.0,0.0,0.0,0.0,0.0,0.0,0.0,0.0,0.0,0.0,0.0,0.0,0.0,0.0,0.0,0.0,0.0,0.0,0.0,0.0,0.0,0.0,0.0,0.0,0.0,0.0,0.0,0.0,0.0,0.0,0.0,0.0,0.0,0.0,0.0,0.0,0.0,0.0,0.0,0.0,0.0,0.0,0.0,0.0,0.0,0.0,0.0,0.0,0.0,0.0,0.0,0.0,0.0,0.0,0.0,0.0,0.0,0.0,0.0,0.0,0.0,0.0,0.0,0.0,0.0,0.0,0.0,0.0,0.0,0.0,0.0,0.0,0.0,0.0,0.0,0.0,0.0,0.0,0.0,0.0,0.0,0.0,0.0,0.0,0.0,0.0,0.0,0.0,0.0,0.0,0.0,0.0,0.0,0.0,0.0,0.0,0.0,0.0,0.0,0.0,0.0,0.0,0.0,0.0,0.0,0.0,0.0,0.0,0.0,0.0,0.0,0.0,0.0,0.0,0.0,0.0,0.0,0.0,0.0,0.0,0.0,0.0,0.0,0.0,0.0,0.0,0.0,0.0,0.0,0.0,0.0,0.0,0.0,0.0,0.0,0.0,0.0,0.0,0.0,0.0,0.0,0.0,0.0,0.0,0.0,0.0,0.0,0.0,0.0,0.0,0.0,0.0,0.0,0.0,0.0,0.0,0.0,0.0,0.0,0.0,0.0,0.0,0.0,0.0,0.0,0.0,0.0,0.0,0.0,0.0,0.0,0.0,0.0,0.0,0.0,0.0,0.0,0.0,0.0,0.0,0.0,0.0,0.0,0.0,0.0,0.0,0.0,0.0,0.0,0.0,0.0,0.0,0.0,0.0,0.0,0.0,0.0,0.0,0.0,0.0,0.0,0.0,0.0,0.0,0.0,0.0,0.0,0.0,0.0,0.0,0.0,0.0,0.0,0.0,0.0,0.0,0.0,0.0,0.0,0.0,0.0,0.0,0.0,0.0,0.0,0.0,0.0,0.0,0.0,0.0,0.0,0.0,0.0,0.0,0.0,0.0,0.0,0.0,0.0,0.0,0.0,0.0,0.0,0.0,0.0,0.0,0.0,0.0,0.0,0.0,0.0,0.0,0.0,0.0,0.0,0.0,0.0,0.0,0.0,0.0,0.0,0.0,0.0,0.0,0.0,0.0,0.0,0.0,0.0,0.0,0.0,0.0,0.0,0.0,0.0,0.0,0.0,0.0,0.0,0.0,0.0,0.0,0.0,0.0,0.0,0.0,0.0,0.0,0.0,0.0,0.0,0.0,0.0,0.0,1.8702,0.0,0.0,0.0,0.0,0.0,0.0,0.0,0.0,0.0,0.0,0.0,0.0,0.0,0.0,0.0,0.0,0.0,0.0,0.0,0.0,0.0,0.0,0.0,0.0,0.0,0.0,0.0,0.0,0.0,0.0,0.0,0.0,0.0,0.0,0.0,0.0,0.0,0.0,0.0,0.0,0.0,0.0,0.0,0.0,0.0,0.0,0.0,0.0,0.0,0.0,0.0,0.0,0.0,0.0,0.0,0.0,0.0,0.0,0.0,0.0,0.0,0.0,0.0,0.0,0.0,0.0,0.0,0.0,0.0,0.0,0.0,0.0,0.0,0.0,0.0,0.0,0.0,0.0,0.0,0.0,0.0,0.0,0.0,0.0,0.0,0.0,0.0,0.0,0.0,0.0,0.0,0.0,0.0,0.0,0.0,0.0,0.0,0.0,0.0,0.0,0.0,0.0,0.0,0.0,0.0,0.0,0.0,0.0,0.0,0.0,1.9654,1.969,1.9408,1.9241,1.9241,0.0,0.0,0.0,0.0,0.0,0.0,0.0,0.0,0.0,0.0,0.0,0.0,0.0,0.0,0.0,0.0,0.0,0.0,0.0,0.0,0.0,0.0,0.0,0.0,0.0,0.0,0.0,0.0,0.0,0.0,0.0,0.0,0.0,0.0,0.0,0.0,0.0,0.0,0.0,0.0,0.0,0.0,0.0,0.0,0.0,0.0,0.0,0.0,0.0,0.0,0.0,0.0,0.0,0.0,0.0,0.0,0.0,0.0,0.0,0.0,0.0,0.0,0.0,0.0,0.0,0.0,0.0,0.0,0.0,0.0,0.0,0.0,0.0,0.0,0.0,0.0,0.0,0.0,0.0,0.0,0.0,0.0,0.0,0.0,0.0,0.0,0.0,0.0,0.0,0.0,0.0,0.0,0.0,0.0,0.0,0.0,0.0,0.0,0.0,0.0,0.0,0.0,0.0,0.0,0.0,0.0,0.0,0.0,0.0,0.0,0.0,0.0,1.9708,1.9618,1.948,0.0,0.0,0.0,0.0,0.0,0.0,0.0,0.0,0.0,0.0,0.0,0.0,0.0,0.0,0.0,0.0,0.0,0.0,0.0,0.0,0.0,0.0,0.0,0.0,0.0,0.0,0.0,0.0,0.0,0.0,0.0,0.0,0.0,0.0,0.0,0.0,0.0,0.0,0.0,0.0,0.0,0.0,0.0,0.0,0.0,0.0,0.0,0.0,0.0,0.0,0.0,0.0,0.0,0.0,0.0,0.0,0.0,0.0,0.0,0.0,0.0,0.0,0.0,0.0,0.0,0.0,0.0,0.0,0.0,0.0,0.0,0.0,0.0,0.0,0.0,0.0,0.0,0.0,0.0,0.0,0.0,0.0,0.0,0.0,0.0,0.0,0.0,0.0,0.0,0.0,0.0,0.0,0.0,0.0,0.0,0.0,0.0,0.0,0.0,0.0,0.0,0.0,0.0,0.0,0.0,0.0,0.0,0.0,0.0,0.0,1.9647,1.9708,1.9738,0.0,1.8852,0.0,0.0,0.0,0.0,0.0,0.0,0.0,0.0,0.0,0.0,0.0,0.0,0.0,0.0,0.0,0.0,0.0,0.0,0.0,0.0,0.0,0.0,0.0,0.0,0.0,0.0,0.0,0.0,0.0,0.0,0.0,0.0,0.0,0.0,0.0,0.0,0.0,0.0,0.0,0.0,0.0,0.0,0.0,0.0,0.0,0.0,0.0,0.0,0.0,0.0,0.0,0.0,0.0,0.0,0.0,0.0,0.0,0.0,0.0,0.0,0.0,0.0,0.0,0.0,0.0,0.0,0.0,0.0,0.0,0.0,0.0,0.0,0.0,0.0,0.0,0.0,0.0,0.0,0.0,0.0,0.0,0.0,0.0,0.0,0.0,0.0,0.0,0.0,0.0,0.0,0.0,0.0,0.0,0.0,0.0,0.0,0.0,0.0,0.0,0.0,0.0,0.0,0.0,0.0,0.0,0.0,0.0,0.0,0.0,0.0,1.9649,2.0288,2.0288,1.9809,0.0,0.0,0.0,0.0,0.0,0.0,0.0,0.0,0.0,0.0,0.0,0.0,0.0,0.0,0.0,0.0,0.0,0.0,0.0,0.0,0.0,0.0,0.0,0.0,0.0,0.0,0.0,0.0,0.0,0.0,0.0,0.0,0.0,0.0,0.0,0.0,0.0,0.0,0.0,0.0,0.0,0.0,0.0,0.0,0.0,0.0,0.0,0.0,0.0,0.0,0.0,0.0,0.0,0.0,0.0,0.0,0.0,0.0,0.0,0.0,0.0,0.0,0.0,0.0,0.0,0.0,0.0,0.0,0.0,0.0,0.0,0.0,0.0,0.0,0.0,0.0,0.0,0.0,0.0,0.0,0.0,0.0,0.0,0.0,0.0,0.0,0.0,0.0,0.0,0.0,0.0,0.0,0.0,0.0,0.0,0.0,0.0,0.0,0.0,0.0,0.0,0.0,0.0,0.0,0.0,0.0,0.0,0.0,0.0,0.0,1.9147,1.9623,2.0389,2.024,1.9612,1.8446,0.0,0.0,0.0,0.0,0.0,0.0,0.0,0.0,0.0,0.0,0.0,0.0,0.0,0.0,0.0,0.0,0.0,0.0,0.0,0.0,0.0,0.0,0.0,0.0,0.0,0.0,0.0,0.0,0.0,0.0,0.0,0.0,0.0,0.0,0.0,0.0,0.0,0.0,0.0,0.0,0.0,0.0,0.0,0.0,0.0,0.0,0.0,0.0,0.0,0.0,0.0,0.0,0.0,0.0,0.0,0.0,0.0,0.0,0.0,0.0,0.0,0.0,0.0,0.0,0.0,0.0,0.0,0.0,0.0,0.0,0.0,0.0,0.0,0.0,0.0,0.0,0.0,0.0,0.0,0.0,0.0,0.0,0.0,0.0,0.0,0.0,0.0,0.0,0.0,0.0,0.0,0.0,0.0,0.0,0.0,0.0,0.0,0.0,0.0,0.0,0.0,0.0,0.0,0.0,0.0,0.0,0.0,0.0,0.0,1.9213,1.952,1.972,1.9151,1.8446,0.0,0.0,0.0,0.0,0.0,0.0,0.0,0.0,0.0,0.0,0.0,0.0,0.0,0.0,0.0,0.0,0.0,0.0,0.0,0.0,0.0,0.0,0.0,0.0,0.0,0.0,0.0,0.0,0.0,0.0,0.0,0.0,0.0,0.0,0.0,0.0,0.0,0.0,0.0,0.0,0.0,0.0,0.0,0.0,0.0,0.0,0.0,0.0,0.0,0.0,0.0,0.0,0.0,0.0,0.0,0.0,0.0,0.0,0.0,0.0,0.0,0.0,0.0,0.0,0.0,0.0,0.0,0.0,0.0,0.0,0.0,0.0,0.0,0.0,0.0,0.0,0.0,0.0,0.0,0.0,0.0,0.0,0.0,0.0,0.0,0.0,0.0,0.0,0.0,0.0,0.0,0.0,0.0,0.0,0.0,0.0,0.0,0.0,0.0,0.0,0.0,0.0,0.0,0.0,0.0,0.0,0.0,0.0,0.0,1.8903,1.9773,1.9838,1.9121,1.9241,1.8595,0.0,0.0,0.0,0.0,0.0,0.0,0.0,0.0,0.0,0.0,0.0,0.0,0.0,0.0,0.0,0.0,0.0,0.0,0.0,0.0,0.0,0.0,0.0,0.0,0.0,0.0,0.0,0.0,0.0,0.0,0.0,0.0,0.0,0.0,0.0,0.0,0.0,0.0,0.0,0.0,0.0,0.0,0.0,0.0,0.0,0.0,0.0,0.0,0.0,0.0,0.0,0.0,0.0,0.0,0.0,0.0,0.0,0.0,0.0,0.0,0.0,0.0,0.0,0.0,0.0,0.0,0.0,0.0,0.0,0.0,0.0,0.0,0.0,0.0,0.0,0.0,0.0,0.0,0.0,0.0,0.0,0.0,0.0,0.0,0.0,0.0,0.0,0.0,0.0,0.0,0.0,0.0,0.0,0.0,0.0,0.0,0.0,0.0,0.0,0.0,0.0,0.0,0.0,0.0,0.0,0.0,0.0,0.0,0.0,1.9391,0.0,2.0498,0.0,1.9361,1.8642,0.0,0.0,0.0,0.0,0.0,0.0,0.0,0.0,0.0,0.0,0.0,0.0,0.0,0.0,0.0,0.0,0.0,0.0,0.0,0.0,0.0,0.0,0.0,0.0,0.0,0.0,0.0,0.0,0.0,0.0,0.0,0.0,0.0,0.0,0.0,0.0,0.0,0.0,0.0,0.0,0.0,0.0,0.0,0.0,0.0,0.0,0.0,0.0,0.0,0.0,0.0,0.0,0.0,0.0,0.0,0.0,0.0,0.0,0.0,0.0,0.0,0.0,0.0,0.0,0.0,0.0,0.0,0.0,0.0,0.0,0.0,0.0,0.0,0.0,0.0,0.0,0.0,0.0,0.0,0.0,0.0,0.0,0.0,0.0,0.0,0.0,0.0,0.0,0.0,0.0,0.0,0.0,0.0,0.0,0.0,0.0,0.0,0.0,0.0,0.0,0.0,0.0,0.0,0.0,0.0,0.0,0.0,0.0,1.9002,2.0381,2.1297,2.1395,2.0688,1.9462,1.8446,0.0,0.0,0.0,0.0,0.0,0.0,0.0,0.0,0.0,0.0,0.0,0.0,0.0,0.0,0.0,0.0,0.0,0.0,0.0,0.0,0.0,0.0,0.0,0.0,0.0,0.0,0.0,0.0,0.0,0.0,0.0,0.0,0.0,0.0,0.0,0.0,0.0,0.0,0.0,0.0,0.0,0.0,0.0,0.0,0.0,0.0,0.0,0.0,0.0,0.0,0.0,0.0,0.0,0.0,0.0,0.0,0.0,0.0,0.0,0.0,0.0,0.0,0.0,0.0,0.0,0.0,0.0,0.0,0.0,0.0,0.0,0.0,0.0,0.0,0.0,0.0,0.0,0.0,0.0,0.0,0.0,0.0,0.0,0.0,0.0,0.0,0.0,0.0,0.0,0.0,0.0,0.0,0.0,0.0,0.0,0.0,0.0,0.0,0.0,0.0,0.0,0.0,0.0,0.0,0.0,0.0,0.0,0.0,0.0,2.1603,2.2515,2.2503,2.1425,2.0557,1.9552,0.0,0.0,0.0,0.0,0.0,0.0,0.0,0.0,0.0,0.0,0.0,0.0,0.0,0.0,0.0,0.0,0.0,0.0,0.0,0.0,0.0,0.0,0.0,0.0,0.0,0.0,0.0,0.0,0.0,0.0,0.0,0.0,0.0,0.0,0.0,0.0,0.0,0.0,0.0,0.0,0.0,0.0,0.0,0.0,0.0,0.0,0.0,0.0,0.0,0.0,0.0,0.0,0.0,0.0,0.0,0.0,0.0,0.0,0.0,0.0,0.0,0.0,0.0,0.0,0.0,0.0,0.0,0.0,0.0,0.0,0.0,0.0,0.0,0.0,0.0,0.0,0.0,0.0,0.0,0.0,0.0,0.0,0.0,0.0,0.0,0.0,0.0,0.0,0.0,0.0,0.0,0.0,0.0,0.0,0.0,0.0,0.0,0.0,0.0,0.0,0.0,0.0,0.0,0.0,0.0,0.0,0.0,0.0,0.0,2.5409,2.5688,2.5076,2.3571,2.2392,2.1066,1.9492,0.0,0.0,0.0,0.0,0.0,0.0,0.0,0.0,0.0,0.0,0.0,0.0,0.0,0.0,0.0,0.0,0.0,0.0,0.0,0.0,0.0,0.0,0.0,0.0,0.0,0.0,0.0,0.0,0.0,0.0,0.0,0.0,0.0,0.0,0.0,0.0,0.0,0.0,0.0,0.0,0.0,0.0,0.0,0.0,0.0,0.0,0.0,0.0,0.0,0.0,0.0,0.0,0.0,0.0,0.0,0.0,0.0,0.0,0.0,0.0,0.0,0.0,0.0,0.0,0.0,0.0,0.0,0.0,0.0,0.0,0.0,0.0,0.0,0.0,0.0,0.0,0.0,0.0,0.0,0.0,0.0,0.0,0.0,0.0,0.0,0.0,0.0,0.0,0.0,0.0,0.0,0.0,0.0,0.0,0.0,0.0,0.0,0.0,0.0,0.0,0.0,0.0,0.0,0.0,0.0,0.0,0.0,0.0,3.1161,3.0532,2.9202,2.6961,2.5016,2.2981,0.0,0.0,0.0,0.0,0.0,0.0,0.0,0.0,0.0,0.0,0.0,0.0,0.0,0.0,0.0,0.0,0.0,0.0,0.0,0.0,0.0,0.0,0.0,0.0,0.0,0.0,0.0,0.0,0.0,0.0,0.0,0.0,0.0,0.0,0.0,0.0,0.0,0.0,0.0,0.0,0.0,0.0,0.0,0.0,0.0,0.0,0.0,0.0,0.0,0.0,0.0,0.0,0.0,0.0,0.0,0.0,0.0,0.0,0.0,0.0,0.0,0.0,0.0,0.0,0.0,0.0,0.0,0.0,0.0,0.0,0.0,0.0,0.0,0.0,0.0,0.0,0.0,0.0,0.0,0.0,0.0,0.0,0.0,0.0,0.0,0.0,0.0,0.0,0.0,0.0,0.0,0.0,0.0,0.0,0.0,0.0,0.0,0.0,0.0,0.0,0.0,0.0,0.0,0.0,0.0,0.0,0.0,0.0,0.0,3.3846,3.6309,3.5459,3.115,2.9056,2.6632,0.0,0.0,0.0,0.0,0.0,0.0,0.0,0.0,0.0,0.0,0.0,0.0,0.0,0.0,0.0,0.0,0.0,0.0,0.0,0.0,0.0,0.0,0.0,0.0,0.0,0.0,0.0,0.0,0.0,0.0,0.0,0.0,0.0,0.0,0.0,0.0,0.0,0.0,0.0,0.0,0.0,0.0,0.0,0.0,0.0,0.0,0.0,0.0,0.0,0.0,0.0,0.0,0.0,0.0,0.0,0.0,0.0,0.0,0.0,0.0,0.0,0.0,0.0,0.0,0.0,0.0,0.0,0.0,0.0,0.0,0.0,0.0,0.0,0.0,0.0,0.0,0.0,0.0,0.0,0.0,0.0,0.0,0.0,0.0,0.0,0.0,0.0,0.0,0.0,0.0,0.0,0.0,0.0,0.0,0.0,0.0,0.0,0.0,0.0,0.0,0.0,0.0,0.0,0.0,0.0,0.0,0.0,0.0,3.2125,3.6457,4.0948,4.1175,3.6746,3.2856,2.9265,0.0,0.0,0.0,0.0,0.0,0.0,0.0,0.0,0.0,0.0,0.0,0.0,0.0,0.0,0.0,0.0,0.0,0.0,0.0,0.0,0.0,0.0,0.0,0.0,0.0,0.0,0.0,0.0,0.0,0.0,0.0,0.0,0.0,0.0,0.0,0.0,0.0,0.0,0.0,0.0,0.0,0.0,0.0,0.0,0.0,0.0,0.0,0.0,0.0,0.0,0.0,0.0,0.0,0.0,0.0,0.0,0.0,0.0,0.0,0.0,0.0,0.0,0.0,0.0,0.0,0.0,0.0,0.0,0.0,0.0,0.0,0.0,0.0,0.0,0.0,0.0,0.0,0.0,0.0,0.0,0.0,0.0,0.0,0.0,0.0,0.0,0.0,0.0,0.0,0.0,0.0,0.0,0.0,0.0,0.0,0.0,0.0,0.0,0.0,0.0,0.0,0.0,0.0,0.0,0.0,0.0,0.0,0.0,3.423,3.8876,4.443,4.5813,4.268,3.6537,3.1569,0.0,0.0,0.0,0.0,0.0,0.0,0.0,0.0,0.0,0.0,0.0,0.0,0.0,0.0,0.0,0.0,0.0,0.0,0.0,0.0,0.0,0.0,0.0,0.0,0.0,0.0,0.0,0.0,0.0,0.0,0.0,0.0,0.0,0.0,0.0,0.0,0.0,0.0,0.0,0.0,0.0,0.0,0.0,0.0,0.0,0.0,0.0,0.0,0.0,0.0,0.0,0.0,0.0,0.0,0.0,0.0,0.0,0.0,0.0,0.0,0.0,0.0,0.0,0.0,0.0,0.0,0.0,0.0,0.0,0.0,0.0,0.0,0.0,0.0,0.0,0.0,0.0,0.0,0.0,0.0,0.0,0.0,0.0,0.0,0.0,0.0,0.0,0.0,0.0,0.0,0.0,0.0,0.0,0.0,0.0,0.0,0.0,0.0,0.0,0.0,0.0,0.0,0.0,0.0,0.0,0.0,0.0,0.0,3.6219,4.1008,4.5156,4.6471,4.4706,4.0307,3.5636,0.0,0.0,0.0,0.0,0.0,0.0,0.0,0.0,0.0,0.0,0.0,0.0,0.0,0.0,0.0,0.0,0.0,0.0,0.0,0.0,0.0,0.0,0.0,0.0,0.0,0.0,0.0,0.0,0.0,0.0,0.0,0.0,0.0,0.0,0.0,0.0,0.0,0.0,0.0,0.0,0.0,0.0,0.0,0.0,0.0,0.0,0.0,0.0,1.9934,0.0,0.0,0.0,0.0,0.0,0.0,0.0,0.0,0.0,0.0,0.0,0.0,0.0,0.0,0.0,0.0,0.0,0.0,0.0,0.0,0.0,0.0,0.0,0.0,0.0,0.0,0.0,0.0,0.0,0.0,0.0,0.0,0.0,0.0,0.0,0.0,0.0,0.0,0.0,0.0,0.0,0.0,0.0,0.0,0.0,0.0,0.0,0.0,0.0,0.0,0.0,0.0,0.0,0.0,0.0,0.0,0.0,0.0,0.0,3.8868,4.3012,4.6764,4.7908,4.6232,4.3599,3.911,0.0,0.0,0.0,0.0,0.0,0.0,0.0,0.0,0.0,0.0,0.0,0.0,0.0,0.0,0.0,0.0,0.0,0.0,0.0,0.0,0.0,0.0,0.0,0.0,0.0,0.0,0.0,0.0,0.0,0.0,0.0,0.0,0.0,0.0,0.0,0.0,0.0,0.0,0.0,0.0,0.0,0.0,0.0,0.0,0.0,0.0,0.0,0.0,0.0,0.0,0.0,0.0,0.0,0.0,0.0,0.0,0.0,0.0,0.0,0.0,0.0,0.0,0.0,0.0,0.0,0.0,0.0,0.0,0.0,0.0,0.0,0.0,0.0,0.0,0.0,0.0,0.0,0.0,0.0,0.0,0.0,0.0,0.0,0.0,0.0,0.0,0.0,0.0,0.0,0.0,0.0,0.0,0.0,0.0,0.0,0.0,0.0,0.0,0.0,0.0,0.0,0.0,0.0,0.0,0.0,0.0,0.0,3.7032,4.1517,4.4755,4.8358,4.9269,4.7339,4.5903,4.1594,3.4083,0.0,0.0,0.0,0.0,0.0,0.0,0.0,0.0,0.0,0.0,0.0,0.0,0.0,0.0,0.0,0.0,0.0,0.0,0.0,0.0,0.0,0.0,0.0,0.0,0.0,0.0,0.0,0.0,0.0,0.0,0.0,0.0,0.0,0.0,0.0,0.0,0.0,0.0,1.9519,2.1536,0.0,0.0,0.0,0.0,0.0,0.0,0.0,0.0,2.2564,0.0,0.0,0.0,0.0,0.0,0.0,0.0,0.0,0.0,0.0,0.0,0.0,0.0,0.0,0.0,0.0,0.0,0.0,0.0,0.0,0.0,0.0,0.0,0.0,0.0,0.0,0.0,0.0,0.0,0.0,0.0,0.0,0.0,0.0,0.0,0.0,0.0,0.0,0.0,0.0,0.0,0.0,0.0,0.0,0.0,0.0,0.0,0.0,0.0,0.0,0.0,0.0,0.0,0.0,0.0,0.0,3.2723,3.8601,4.3098,4.6211,4.8804,4.9269,4.7369,4.5454,4.1564,3.5459,0.0,0.0,0.0,0.0,0.0,0.0,0.0,0.0,0.0,0.0,0.0,0.0,0.0,0.0,0.0,0.0,0.0,0.0,0.0,0.0,0.0,0.0,0.0,0.0,0.0,0.0,0.0,0.0,0.0,0.0,0.0,0.0,0.0,0.0,0.0,0.0,0.0,0.0,0.0,2.456,2.5489,0.0,0.0,0.0,0.0,0.0,0.0,0.0,0.0,2.2665,0.0,0.0,0.0,0.0,0.0,0.0,0.0,0.0,0.0,0.0,0.0,0.0,0.0,0.0,0.0,0.0,0.0,0.0,0.0,0.0,0.0,0.0,0.0,0.0,0.0,0.0,0.0,0.0,0.0,0.0,0.0,0.0,0.0,0.0,0.0,0.0,0.0,0.0,0.0,0.0,0.0,0.0,0.0,0.0,0.0,0.0,0.0,0.0,0.0,0.0,0.0,0.0,0.0,0.0,0.0,3.4807,4.1024,4.5316,4.7417,4.9561,4.9643,4.7339,4.4706,4.0696,0.0,0.0,0.0,0.0,0.0,0.0,0.0,0.0,0.0,0.0,0.0,0.0,0.0,0.0,0.0,0.0,0.0,0.0,0.0,0.0,0.0,0.0,0.0,0.0,0.0,0.0,0.0,0.0,0.0,0.0,0.0,0.0,0.0,0.0,0.0,0.0,0.0,0.0,0.0,0.0,2.6742,2.7622,2.6945,0.0,0.0,0.0,0.0,0.0,0.0,2.4846,2.4357,0.0,0.0,0.0,0.0,0.0,0.0,0.0,0.0,0.0,0.0,0.0,0.0,0.0,0.0,0.0,0.0,0.0,0.0,0.0,0.0,0.0,0.0,0.0,0.0,0.0,0.0,0.0,0.0,0.0,0.0,0.0,0.0,0.0,0.0,0.0,0.0,0.0,0.0,0.0,0.0,0.0,0.0,0.0,0.0,0.0,0.0,0.0,0.0,0.0,0.0,0.0,0.0,0.0,0.0,0.0,3.6096,4.2685,4.6685,4.7893,4.9858,4.9667,4.7122,4.3916,3.9838,0.0,0.0,0.0,0.0,0.0,0.0,0.0,0.0,0.0,0.0,0.0,0.0,0.0,0.0,0.0,0.0,0.0,0.0,0.0,0.0,0.0,0.0,0.0,0.0,0.0,0.0,0.0,0.0,0.0,0.0,0.0,0.0,0.0,0.0,0.0,0.0,0.0,0.0,0.0,0.0,0.0,2.9687,2.9653,2.8502,0.0,0.0,0.0,0.0,2.5963,2.6742,0.0,0.0,0.0,0.0,0.0,0.0,0.0,0.0,0.0,0.0,0.0,0.0,0.0,0.0,0.0,0.0,0.0,0.0,0.0,0.0,0.0,0.0,0.0,0.0,0.0,0.0,0.0,0.0,0.0,0.0,0.0,0.0,0.0,0.0,0.0,0.0,0.0,0.0,0.0,0.0,0.0,0.0,0.0,0.0,0.0,0.0,0.0,0.0,0.0,0.0,0.0,0.0,0.0,0.0,0.0,0.0,3.544,4.1817,4.5616,4.6803,4.8808,4.8734,4.6343,4.3301,3.9571,0.0,0.0,0.0,0.0,0.0,0.0,0.0,0.0,0.0,0.0,0.0,0.0,0.0,0.0,0.0,0.0,0.0,0.0,0.0,0.0,0.0,0.0,0.0,0.0,0.0,0.0,0.0,0.0,0.0,0.0,0.0,0.0,0.0,0.0,0.0,0.0,0.0,0.0,0.0,0.0,0.0,3.1921,3.1921,3.121,3.0649,0.0,0.0,2.9145,3.0262,3.004,0.0,0.0,0.0,0.0,0.0,0.0,0.0,0.0,0.0,0.0,0.0,0.0,0.0,0.0,0.0,0.0,0.0,0.0,0.0,0.0,0.0,0.0,0.0,0.0,0.0,0.0,0.0,0.0,0.0,0.0,0.0,0.0,0.0,0.0,0.0,0.0,0.0,0.0,0.0,0.0,0.0,0.0,0.0,0.0,0.0,0.0,0.0,0.0,0.0,0.0,0.0,0.0,0.0,0.0,0.0,3.0312,3.4548,4.0804,4.4434,4.5261,4.7197,4.7178,4.5064,4.2293,3.8754,0.0,0.0,0.0,0.0,0.0,0.0,0.0,0.0,0.0,0.0,0.0,0.0,0.0,0.0,0.0,0.0,0.0,0.0,0.0,0.0,0.0,0.0,0.0,0.0,0.0,0.0,0.0,0.0,0.0,0.0,0.0,0.0,0.0,0.0,0.0,0.0,0.0,0.0,0.0,0.0,0.0,0.0,3.41,3.4269,0.0,0.0,0.0,3.2361,3.3004,0.0,0.0,0.0,0.0,0.0,0.0,0.0,0.0,0.0,0.0,0.0,0.0,0.0,0.0,0.0,0.0,0.0,0.0,0.0,0.0,0.0,0.0,0.0,0.0,0.0,0.0,0.0,0.0,0.0,0.0,0.0,0.0,0.0,0.0,0.0,0.0,0.0,0.0,0.0,0.0,0.0,0.0,0.0,0.0,0.0,0.0,0.0,0.0,0.0,0.0,0.0,0.0,0.0,0.0,0.0,0.0,0.0,3.3819,3.9995,4.3384,4.395,4.5747,4.5843,4.4065,4.1818,0.0,0.0,0.0,0.0,0.0,0.0,0.0,0.0,0.0,0.0,0.0,0.0,0.0,0.0,0.0,0.0,0.0,0.0,0.0,0.0,0.0,0.0,0.0,0.0,0.0,0.0,0.0,1.3108,0.0,0.0,0.0,0.0,0.0,0.0,0.0,0.0,0.0,0.0,0.0,0.0,0.0,0.0,3.5419,3.6332,3.711,3.7212,0.0,0.0,3.5622,3.5622,3.6592,3.6084,0.0,0.0,0.0,0.0,0.0,0.0,0.0,0.0,0.0,0.0,0.0,0.0,0.0,0.0,0.0,0.0,0.0,0.0,0.0,0.0,0.0,0.0,0.0,0.0,0.0,0.0,0.0,0.0,0.0,0.0,0.0,0.0,0.0,0.0,0.0,0.0,0.0,0.0,0.0,0.0,0.0,0.0,0.0,0.0,0.0,0.0,0.0,0.0,0.0,0.0,0.0,0.0,0.0,0.0,0.0,3.3573,3.9532,4.2762,4.3101,4.4758,4.5117,4.4032,4.2304,3.9656,0.0,0.0,0.0,0.0,0.0,0.0,0.0,0.0,0.0,0.0,0.0,0.0,0.0,0.0,0.0,0.0,0.0,0.0,0.0,0.0,0.0,0.0,0.0,0.0,0.0,0.0,0.0,0.0,0.0,0.0,0.0,0.0,0.0,0.0,0.0,0.0,0.0,0.0,0.0,0.0,0.0,3.7168,3.8565,3.9411,3.9825,0.0,0.0,3.87,3.87,3.8768,3.7608,3.3863,0.0,0.0,0.0,0.0,0.0,0.0,0.0,0.0,0.0,0.0,0.0,0.0,0.0,0.0,0.0,0.0,0.0,0.0,0.0,0.0,0.0,0.0,0.0,0.0,0.0,0.0,0.0,0.0,0.0,0.0,0.0,0.0,0.0,0.0,0.0,0.0,0.0,0.0,0.0,0.0,0.0,0.0,0.0,0.0,0.0,0.0,0.0,0.0,0.0,0.0,0.0,0.0,0.0,2.9793,3.3265,3.8916,4.1839,4.1996,4.3259,4.3749,4.3324,4.3245,4.1128,0.0,0.0,0.0,0.0,0.0,0.0,0.0,0.0,0.0,0.0,0.0,0.0,0.0,0.0,0.0,0.0,0.0,0.0,0.0,0.0,0.0,0.0,0.0,0.0,0.0,0.0,0.0,0.0,1.4851,1.5358,1.5798,0.0,0.0,0.0,0.0,0.0,0.0,0.0,0.0,0.0,0.0,3.9377,4.0857,4.2455,0.0,0.0,4.2651,4.2279,4.1779,4.0967,3.9073,3.5363,3.1292,0.0,0.0,0.0,0.0,0.0,0.0,0.0,0.0,0.0,0.0,0.0,0.0,0.0,0.0,0.0,0.0,0.0,0.0,0.0,0.0,0.0,0.0,0.0,0.0,0.0,0.0,0.0,0.0,0.0,0.0,0.0,0.0,0.0,0.0,0.0,0.0,0.0,0.0,0.0,0.0,0.0,0.0,0.0,0.0,0.0,0.0,0.0,0.0,0.0,0.0,0.0,0.0,2.9754,3.3068,3.8542,4.1275,4.1275,4.2409,4.2928,4.2814,4.356,4.1838,0.0,0.0,0.0,0.0,0.0,0.0,0.0,0.0,0.0,0.0,0.0,0.0,0.0,0.0,0.0,0.0,0.0,0.0,0.0,0.0,0.0,0.0,0.0,0.0,0.0,0.0,0.0,0.0,1.6576,1.6688,1.6993,0.0,0.0,0.0,0.0,0.0,0.0,0.0,0.0,0.0,0.0,4.0637,4.2083,4.4248,4.5432,4.4716,4.4581,4.4276,4.3234,4.1847,3.9749,3.6502,0.0,0.0,0.0,0.0,0.0,0.0,0.0,0.0,0.0,0.0,0.0,0.0,0.0,0.0,0.0,0.0,0.0,0.0,0.0,0.0,0.0,0.0,0.0,0.0,0.0,0.0,0.0,1.9929,0.0,0.0,1.7412,0.0,0.0,0.0,0.0,0.0,0.0,0.0,0.0,0.0,0.0,0.0,0.0,0.0,0.0,0.0,0.0,0.0,0.0,0.0,0.0,0.0,0.0,2.9754,3.3068,3.8542,4.1275,4.13,4.2409,4.2819,4.2525,4.3083,4.1521,3.7585,0.0,0.0,0.0,0.0,0.0,0.0,0.0,0.0,0.0,0.0,0.0,0.0,0.0,0.0,0.0,0.0,0.0,0.0,0.0,0.0,0.0,0.0,0.0,0.0,0.0,0.0,1.8674,1.8809,1.8504,0.0,0.0,0.0,0.0,0.0,0.0,0.0,0.0,0.0,0.0,3.7222,4.0603,4.2117,4.4282,4.55,4.475,4.4649,4.4107,4.2591,4.1102,3.9377,0.0,0.0,0.0,0.0,0.0,0.0,0.0,0.0,0.0,0.0,0.0,0.0,0.0,0.0,0.0,0.0,0.0,0.0,0.0,0.0,0.0,0.0,0.0,0.0,0.0,0.0,0.0,2.4579,2.3504,0.0,0.0,0.0,0.0,0.0,0.0,0.0,0.0,0.0,0.0,0.0,2.9729,3.0131,0.0,0.0,0.0,0.0,0.0,0.0,0.0,0.0,0.0,0.0,0.0,0.0,2.9754,3.3144,3.8492,4.1275,4.13,4.2409,4.2764,4.2235,4.289,4.1031,3.6316,0.0,0.0,0.0,0.0,0.0,0.0,0.0,0.0,0.0,0.0,0.0,0.0,0.0,0.0,0.0,0.0,0.0,0.0,0.0,0.0,0.0,0.0,0.0,0.0,0.0,1.8997,0.0,0.0,0.0,0.0,0.0,0.0,0.0,0.0,0.0,0.0,0.0,3.1258,3.4416,3.7889,4.0798,4.276,4.5404,4.6921,0.0,0.0,0.0,0.0,0.0,0.0,0.0,0.0,0.0,0.0,0.0,0.0,0.0,0.0,3.5182,3.2713,3.1461,3.0548,2.9822,0.0,0.0,0.0,0.0,0.0,0.0,0.0,0.0,0.0,0.0,0.0,0.0,0.0,0.0,2.7822,0.0,2.4657,0.0,0.0,0.0,0.0,0.0,0.0,0.0,0.0,3.2114,3.352,3.4248,3.4625,3.4901,0.0,3.4876,3.2441,0.0,0.0,0.0,0.0,0.0,0.0,0.0,0.0,3.0231,3.3445,3.8592,4.1275,4.1326,4.2409,4.2654,4.197,4.1718,3.9959,3.6391,3.2758,2.9229,0.0,0.0,0.0,0.0,0.0,0.0,0.0,0.0,0.0,0.0,0.0,0.0,0.0,0.0,0.0,0.0,0.0,0.0,0.0,0.0,0.0,0.0,0.0,2.0395,0.0,0.0,0.0,0.0,0.0,0.0,0.0,0.0,0.0,2.8349,3.0886,3.3728,3.6434,3.914,4.1602,4.3538,0.0,0.0,0.0,0.0,0.0,0.0,0.0,3.9512,3.9758,3.898,3.8599,3.9368,4.0493,4.1474,4.1955,0.0,0.0,3.8328,3.6806,3.5791,3.481,3.4438,3.4303,3.4235,3.525,3.6445,0.0,0.0,0.0,0.0,0.0,0.0,0.0,0.0,3.2465,3.0616,0.0,2.7077,0.0,0.0,0.0,0.0,0.0,2.7067,0.0,0.0,3.55,3.7061,3.8015,3.8065,3.8391,3.8944,3.8316,3.7161,3.5257,3.0181,0.0,0.0,0.0,0.0,0.0,0.0,3.1185,3.3972,3.8743,4.125,4.1275,4.2359,4.2549,4.1628,3.9826,3.8542,3.7746,3.4954,3.2232,2.9836,2.7854,0.0,0.0,0.0,0.0,0.0,0.0,0.0,0.0,0.0,0.0,0.0,0.0,0.0,0.0,0.0,0.0,0.0,0.0,0.0,0.0,2.1615,0.0,0.0,0.0,0.0,0.0,0.0,0.0,0.0,0.0,0.0,3.1692,3.4011,3.6546,3.8768,0.0,0.0,0.0,0.0,4.7635,4.6989,4.6887,4.665,4.5872,4.3876,4.2658,4.3409,0.0,0.0,4.475,4.5432,4.5906,4.594,4.7022,4.706,4.4153,4.2327,4.0865,3.9512,3.9681,3.969,3.8667,3.9851,4.1508,4.4227,0.0,0.0,0.0,0.0,3.7362,3.7646,3.806,3.6468,3.4888,3.3343,3.1505,0.0,0.0,0.0,0.0,0.0,0.0,3.3596,3.6107,3.8291,3.9496,3.9798,4.0199,4.0423,4.0601,4.0049,3.9145,3.7839,3.5152,3.126,2.6399,0.0,0.0,0.0,0.0,3.1738,3.455,3.8617,4.0752,4.0752,4.1455,4.148,4.0857,4.0249,3.9607,3.9011,3.7619,3.5681,3.3215,3.118,0.0,0.0,0.0,0.0,0.0,0.0,0.0,0.0,0.0,0.0,0.0,0.0,0.0,0.0,0.0,0.0,0.0,0.0,0.0,2.2497,2.3309,2.3653,0.0,0.0,0.0,0.0,0.0,0.0,0.0,0.0,0.0,3.7711,3.8403,3.9242,0.0,0.0,4.3639,4.5162,4.6819,4.8007,4.8342,4.8376,0.0,4.7394,4.5872,4.5162,4.6384,4.7936,4.9393,5.0744,5.0642,5.0405,5.0371,5.0304,4.9934,4.9055,4.6887,4.4993,4.4012,4.3538,4.3403,4.3538,4.4418,4.5568,4.9929,4.5047,4.3862,4.316,4.2878,4.2487,4.2399,4.2442,4.0817,3.9366,3.8072,3.5957,3.4105,3.234,3.1009,0.0,0.0,0.0,3.6935,3.8894,4.0902,4.1806,4.1831,4.2158,4.2183,4.1982,4.143,4.0727,3.9823,3.8617,3.573,3.1235,0.0,0.0,2.8448,3.0959,3.3395,3.5755,3.9295,4.1178,4.1178,4.1279,4.1025,4.0526,4.0336,4.006,3.9679,3.9117,3.7844,3.5907,3.3955,3.1184,0.0,0.0,0.0,0.0,0.0,0.0,0.0,0.0,0.0,0.0,0.0,1.5918,1.6159,0.0,0.0,0.0,2.0443,2.2297,2.409,2.5175,0.0,0.0,0.0,0.0,0.0,0.0,0.0,3.432,3.7162,3.9703,4.1402,4.2223,4.2814,4.3232,4.4632,4.6075,4.7293,0.0,4.939,4.983,4.9898,4.9729,4.9258,4.8206,4.7936,4.9393,5.071,5.2029,5.3213,5.3078,5.2807,5.2706,5.2401,5.2131,5.2131,5.0371,4.8646,4.7665,4.7327,4.7293,4.7462,4.8037,4.8849,5.3732,5.2434,4.9853,4.8509,4.8019,4.7508,4.6974,4.6481,4.4963,4.361,4.2263,4.0124,3.8266,3.6584,3.5002,0.0,3.5934,3.809,3.9898,4.1476,4.3137,4.3865,4.3865,4.3815,4.3539,4.3037,4.2439,4.1831,4.125,4.0699,3.9446,3.7312,3.3294,3.1411,3.1813,3.3847,3.5705,3.7337,4.0503,4.2112,4.2087,4.153,4.1028,4.045,4.0159,3.9987,3.9895,3.9743,3.913,3.7989,3.6296,3.3743,3.0193,0.0,0.0,0.0,0.0,0.0,0.0,0.0,0.0,0.0,0.0,0.0,0.0,0.0,0.0,0.0,2.2433,0.0,2.5198,2.7161,0.0,0.0,0.0,2.9147,3.1331,3.4031,3.6273,3.7634,0.0,0.0,4.3491,4.5473,4.6745,4.6837,4.8222,4.9526,5.0168,5.0777,5.1319,5.1354,5.1386,5.142,5.1319,5.0744,5.0744,5.1961,5.2401,5.2672,5.3348,5.3484,5.3484,5.345,5.3484,5.3484,5.3484,5.2706,5.1961,5.0574,5.0676,5.0913,5.0338,5.0676,5.115,5.4837,5.4416,5.2929,5.1266,4.9482,4.83,4.7642,4.7244,4.602,4.4947,4.394,4.2585,4.0852,3.8868,3.804,3.8065,3.8768,4.0124,4.1404,4.2635,4.3865,4.4418,4.4418,4.3991,4.374,4.3514,4.2208,4.1426,4.1275,4.0777,4.0023,3.9069,3.7613,3.6107,3.463,3.5931,3.7211,3.8467,4.0501,4.1329,4.0927,4.0777,4.045,3.9898,4.0185,4.0195,3.9859,4.0467,4.0358,3.9236,3.8177,3.6315,3.3484,3.052,0.0,0.0,0.0,0.0,0.0,0.0,0.0,0.0,0.0,1.9258,2.0419,0.0,2.2691,0.0,2.5405,2.7185,2.8514,2.9689,0.0,0.0,3.1588,3.2578,3.5305,3.7772,3.9787,4.1143,4.3132,4.4918,4.6202,4.764,4.8879,4.9754,5.0793,5.1589,5.1758,5.1894,5.2266,5.2807,5.2909,5.2976,5.2909,5.2841,5.2773,5.3145,5.3213,5.3281,5.3484,5.3518,5.3518,5.3518,5.3518,5.3518,5.3518,5.3315,5.3145,5.2706,5.1928,5.1352,5.1657,5.1928,5.2198,5.4386,5.427,5.3144,5.1817,5.0493,4.9725,4.904,4.8447,4.7521,4.6935,4.6401,4.5321,4.389,4.2283,4.1957,4.1831,4.1957,4.2785,4.3514,4.4141,4.497,4.5246,4.4995,4.4694,4.4166,4.3388,4.2258,4.158,4.1275,4.0974,4.0674,4.0425,4.035,3.9597,3.8141,3.8241,3.8843,3.9973,4.1354,4.1806,4.1254,4.1003,4.0626,4.0074,3.9982,3.9796,3.9499,3.996,3.9963,3.9321,3.8418,3.6852,3.459,3.1658,2.8368,0.0,0.0,0.0,0.0,0.0,0.0,0.0,0.0,0.0,0.0,0.0,2.6782,2.8013,2.9146,3.046,3.2195,3.3246,3.4181,3.5061,3.5154,3.6134,3.8542,4.074,4.2539,4.3912,4.5321,4.6598,4.7737,4.8721,4.9718,5.0827,5.1645,5.22,5.2505,5.2573,5.2741,5.3281,5.3416,5.3518,5.3518,5.3518,5.3518,5.3518,5.3518,5.3518,5.3518,5.3518,5.3518,5.3518,5.3518,5.3518,5.3518,5.3518,5.3518,5.3416,5.2841,5.2469,5.2773,5.2841,5.301,5.3187,5.3134,5.1962,5.1261,5.0982,5.0931,5.0397,4.9565,4.9012,4.8736,4.8586,4.7657,4.6627,4.5598,4.5522,4.5146,4.4568,4.5045,4.5271,4.5296,4.5924,4.5949,4.5497,4.5497,4.4694,4.3187,4.2539,4.1907,4.1401,4.13,4.13,4.1401,4.1907,4.1957,4.153,4.0526,4.0526,4.1476,4.2484,4.271,4.2213,4.163,4.1,4.04,3.955,3.9014,3.8762,3.8681,3.8646,3.8705,3.7711,3.6418,3.4799,3.2198,2.9355,0.0,2.5016,0.0,0.0,0.0,0.0,0.0,0.0,0.0,0.0,2.9834,3.1029,3.2856,3.3036,3.3814,3.5699,3.7045,3.7823,3.7913,3.8512,3.9655,4.1389,4.3235,4.4806,4.6098,4.678,4.7551,4.8498,4.9113,4.9871,5.0752,5.1471,5.2086,5.2618,5.2694,5.2767,5.311,5.3348,5.3518,5.3518,5.3518,5.3518,5.3518,5.3518,5.3518,5.3518,5.3518,5.3518,5.3518,5.3518,5.3518,5.3518,5.3518,5.3518,5.3518,5.345,5.3416,5.345,5.345,5.3518,5.2352,5.2276,5.1129,5.0569,5.0478,5.0088,4.9783,4.9565,4.9012,4.851,4.8058,4.7857,4.7154,4.615,4.5673,4.492,4.3966,4.4066,4.4116,4.4141,4.5171,4.5573,4.5497,4.5497,4.507,4.4242,4.2861,4.2162,4.2037,4.1555,4.1555,4.2037,4.2162,4.2363,4.261,0.0,0.0,0.0,4.2861,4.2766,4.2213,4.1605,4.0852,3.9873,3.8818,0.0,3.6995,3.7163,3.7357,3.7412,3.6918,0.0,0.0,0.0,0.0,0.0,0.0,0.0,0.0,0.0,0.0,0.0,3.4382,3.4292,3.2736,3.3216,3.4174,3.5579,3.5729,3.6327,3.7704,3.905,4.0038,4.0576,4.1242,4.2325,4.4048,4.5526,4.6679,4.7247,4.8016,4.8602,4.8879,4.9402,4.9836,5.0168,5.1089,5.1868,5.2085,5.2126,5.2274,5.2661,5.3246,5.3484,5.3518,5.3518,5.3518,5.3518,5.3518,5.3518,5.3518,5.3518,5.3518,5.3518,5.3518,5.3518,5.3518,5.3518,5.3518,5.3518,5.3518,5.3518,5.3518,5.3518,5.3518,5.1272,0.0,5.0368,5.0017,0.0,4.9715,4.959,4.9565,4.9289,4.9012,4.8711,4.846,4.7732,4.6677,4.5849,4.4869,4.379,4.3514,4.3539,4.384,4.4669,4.5221,4.5497,4.5748,4.5447,4.4593,4.3489,4.2891,4.259,4.2007,4.2032,4.2615,4.2615,4.274,4.2961,4.2766,4.2766,4.2986,4.2986,4.2836,4.259,4.1756,4.1025,4.0501,3.8868,0.0,0.0,0.0,0.0,0.0,0.0,0.0,0.0,0.0,0.0,3.2587,3.2168,3.2018,3.2077,3.3814,3.5639,3.7285,3.92,3.9194,3.6626,3.6716,3.7464,3.8751,3.8936,3.9559,4.1145,4.1923,4.2581,4.324,4.3599,4.4429,4.5779,4.681,4.7592,4.8161,4.8573,4.8872,4.8934,4.9116,4.9475,4.9819,5.0416,5.1087,5.1645,5.2288,5.2836,5.3437,5.3449,5.3484,5.3518,5.3518,5.3518,5.3518,5.3518,5.3518,5.3518,5.3518,5.3518,5.3518,5.3518,5.3518,5.3518,5.3518,5.3518,5.3518,5.3518,5.3518,5.3518,5.3518,5.3518,5.0569,5.0519,4.9967,4.9741,4.9741,4.964,4.959,4.959,0.0,0.0,0.0,4.9113,4.8309,4.723,4.6125,4.502,4.3915,4.3288,4.3263,4.3815,4.4367,4.492,4.5497,4.605,4.5773,4.4769,4.4217,4.3714,4.3263,4.2665,4.264,4.3062,4.3037,4.2986,4.2986,4.2986,4.2986,4.2986,4.2986,4.2986,4.2961,4.1907,4.1225,4.115,3.912,3.7965,3.7839,3.7092,3.7135,3.8101,3.802,3.8014,3.823,3.7376,3.6734,3.6533,3.6151,3.6357,3.7464,3.8212,3.9379,4.1145,4.2761,4.2632,4.024,4.0091,4.0606,4.1803,4.1893,4.2611,4.4317,4.4616,4.4885,4.5424,4.5574,4.604,4.697,4.7579,4.8121,4.8769,4.8893,4.8924,4.9098,4.914,4.9233,4.9777,5.0097,5.0568,5.179,5.2869,5.3658,5.4288,5.4059,5.3687,5.3518,5.3518,5.3518,5.3518,5.3518,5.3518,5.3518,5.3518,5.3518,5.3518,5.3518,5.3518,5.3518,5.3518,5.3518,5.3518,5.3518,5.3518,5.3518,5.3518,5.3518,5.1147,5.1122,5.0544,5.0293,5.0268,4.9791,4.959,4.959,4.959,4.959,4.959,4.9515,4.8862,4.7732,4.6677,4.5573,4.4468,4.3438,4.3263,4.3815,4.4367,4.492,4.5497,4.605,4.5974,4.5347,4.4769,4.4468,4.4292,4.3363,4.3137,4.3564,4.3212,4.2986,4.2986,4.2986,4.2986,4.2986,4.2986,4.2986,4.2961,4.1907,4.105,4.0601,3.8944,3.7789,3.736,3.7082,3.7278,3.7983,3.8233,3.8852,3.9998,3.9877,3.9997,4.0539,4.1033,4.1362,4.1572,4.2671,4.3688,4.4526,4.4885,4.4377,4.2901,4.2751,4.305,4.3808,4.3868,4.4227,4.5065,4.5693,4.601,4.616,4.6681,4.7156,4.7503,4.7969,4.8424,4.8925,4.9084,4.9267,4.9596,4.9774,4.9848,4.9992,5.052,5.1616,5.3006,5.3745,5.4039,5.4456,5.4532,5.4194,5.3822,5.3518,5.3653,5.3518,5.3585,5.3687,5.3687,5.3653,5.3619,5.3518,5.3551,5.3518,5.3518,5.3518,5.3518,5.3518,5.3518,5.3518,5.3518,5.3518,5.3518,5.1096,5.0795,5.0519,5.0243,4.9967,4.969,4.959,4.959,4.959,4.959,4.9565,4.9289,4.8686,4.7807,4.6476,4.5422,4.4568,4.3489,4.3288,4.3815,4.4367,4.492,4.5497,4.605,4.6175,4.5924,4.5673,4.5547,4.5422,4.4418,4.3991,4.4166,4.3413,4.2986,4.2986,4.2986,4.2986,4.2986,4.2986,4.2986,4.2961,4.2183,4.153,4.0899,3.9622,3.8668,3.8165,3.8023,3.8291,3.9017,3.9834,4.0662,4.1564,4.1954,4.2375,4.2931,4.3269,4.3569,4.3928,4.4855,4.5544,4.5843,4.6172,4.6142,4.5544,4.4825,4.4676,4.5334,4.5394,4.5663,4.6322,4.6681,4.686,4.686,4.7429,4.7862,4.8009,4.8528,4.8917,4.9101,4.9205,4.934,4.9553,4.9672,4.9853,5.0095,5.0925,5.2074,5.3221,5.385,5.443,5.5241,5.52,5.4968,5.4701,5.4702,5.4702,5.4702,5.4702,5.4667,5.4668,5.4431,5.4126,5.4059,5.3788,5.3551,5.3518,5.3518,5.3518,5.3518,5.3518,5.3518,5.3518,5.3518,5.3518,5.0946,5.0419,5.0419,5.0092,4.9615,4.959,4.959,4.959,4.959,4.959,4.954,4.9138,4.8636,4.7983,4.6627,4.5723,4.5095,4.4041,4.384,4.4367,4.4669,4.5121,4.5673,4.6125,4.6326,4.6326,4.6326,4.6326,4.6175,4.5171,4.4493,4.4192,4.3388,4.2986,4.2986,4.2986,4.2986,4.2986,4.2986,4.2986,4.2961,4.2489,4.1932,4.1505,4.0576,3.9873,3.9472,3.9549,3.9938,4.0694,4.1734,4.2681,4.3429,4.3974,4.4465,4.4893,4.4975,4.5274,4.5933,4.6591,4.698,4.701,4.7459,4.7728,4.7668,4.68,4.6262,4.6459,4.6488,4.6741,4.713,4.7279,4.7369,4.7519,4.7967,4.8327,4.8536,4.9,4.9389,4.9434,4.9464,4.9569,4.9643,4.9703,4.9988,5.0467,5.1271,5.2018,5.2709,5.3502,5.4521,5.5468,5.5703,5.5566,5.5678,5.5614,5.5649,5.5681,5.5614,5.5546,5.5513,5.5141,5.4769,5.4566,5.4126,5.3754,5.3585,5.3518,5.3518,5.3518,5.3518,5.3518,5.3518,5.3518,5.3518,5.0946,5.0444,5.0469,5.0092,4.964,4.9615,4.9615,4.959,4.959,4.959,4.959,4.954,4.9188,4.8661,4.7958,4.733,4.6742,4.5748,4.5522,4.5924,4.5623,4.5698,4.6175,4.6276,4.6326,4.6326,4.6326,4.6326,4.625,4.5171,4.4116,4.3237,4.3011,4.2986,4.2986,4.2986,4.2986,4.2986,4.2986,4.2986,4.2936,4.2489,4.2187,4.2137,4.1505,4.1125,4.1003,4.1584,4.2242,4.3041,4.3589,4.455,4.5815,4.6001,4.6241,4.6937,4.698,4.7309,4.7938,4.8626,4.894,4.903,4.9,4.9015,4.906,4.894,4.8356,4.7549,4.7249,4.7309,4.7309,4.7369,4.7638,4.8147,4.8327,4.8506,4.912,4.9269,4.9494,5.0046,5.0106,5.0315,5.078,5.087,5.096,5.099,5.1343,5.1757,5.223,5.2874,5.3719,5.4832,5.5456,5.5736,5.5808,5.5715,5.5884,5.5817,5.5749,5.585,5.5884,5.5784,5.5446,5.5074,5.46,5.4296,5.3856,5.3518,5.3619,5.3822,5.3788,5.3619,5.3551,5.3653,5.3687,5.1925,5.1423,5.1398,5.0896,5.0142,5.0092,4.9891,4.9615,4.959,4.959,4.959,4.959,4.9464,4.9213,4.8686,4.8284,4.8033,4.6954,4.6577,4.6753,4.6225,4.61,4.6301,4.6326,4.6326,4.6326,4.6326,4.6301,4.6125,4.5171,4.4066,4.3087,4.2986,4.2986,4.2986,4.2986,4.2986,4.2986,4.2986,4.2986,4.2961,4.2816,4.2539,4.2238,4.2095,4.198,4.1968,4.2736,4.3592,4.4404,4.533,4.6158,4.6841,4.7078,4.7229,4.7326,4.7698,4.8177,4.8835,4.9149,4.9299,4.9299,4.9299,4.9299,4.9299,4.9299,4.906,4.864,4.852,4.852,4.8446,4.8476,4.8596,4.8865,4.9194,4.9553,4.9793,5.0182,5.0571,5.0734,5.0794,5.0853,5.1139,5.1229,5.1229,5.1229,5.1293,5.1479,5.1665,5.2124,5.2785,5.3644,5.4406,5.5457,5.6274,5.6749,5.6824,5.6932,5.7002,5.7002,5.69,5.6562,5.6224,5.5886,5.5513,5.5175,5.4938,5.4803,5.4803,5.4735,5.4803,5.4837,5.4803,5.4803,5.4803,5.2603,5.2126,5.195,5.1423,5.0645,5.0494,5.0193,4.9816,4.9665,4.959,4.959,4.959,4.959,4.954,4.9163,4.9012,4.8887,4.8008,4.7581,4.7506,4.7004,4.6753,4.6728,4.6577,4.6527,4.6502,4.6401,4.6225,4.6024,4.5321,4.4292,4.3363,4.3212,4.3137,4.2986,4.2986,4.2986,4.2986,4.2986,4.2986,4.2986,4.2986,4.2841,4.2464,4.2768,4.2946,4.2991,4.4069,4.5173,4.6228,4.7088,4.7735,4.8021,4.8178,4.8149,4.7924,4.8446,4.9015,4.9523,4.9703,4.9838,4.9793,4.9793,4.9793,4.9793,4.9793,4.9793,4.9823,4.9838,4.9703,4.9329,4.9299,4.9389,4.9523,5.0002,5.0226,5.0465,5.096,5.1169,5.1229,5.1169,5.1229,5.1229,5.1229,5.1229,5.1229,5.1229,5.1229,5.1276,5.1572,5.2094,5.2664,5.3502,5.4787,5.6542,5.7118,5.7514,5.7808,5.778,5.7746,5.7881,5.7374,5.69,5.6494,5.6224,5.5852,5.548,5.5547,5.5716,5.5716,5.5681,5.5681,5.5513,5.5683,5.5683,5.2603,5.2076,5.1574,5.1348,5.1197,5.0695,5.0419,5.0343,4.9866,4.9615,4.964,4.964,4.9615,4.959,4.9515,4.954,4.9464,4.8887,4.8586,4.8535,4.8033,4.7807,4.7807,4.733,4.7018,4.6918,4.6527,4.605,4.5573,4.5472,4.4869,4.3815,4.3714,4.3489,4.3062,4.2986,4.2986,4.2986,4.2986,4.2986,4.2986,4.2986,4.3017,4.2967,4.3492,4.4129,4.4835,4.6029,4.7323,4.8899,4.8962,4.9287,4.9878,4.9478,4.9134,4.9269,4.9763,5.0076,5.0196,5.0644,5.102,5.1079,5.096,5.1079,5.096,5.093,5.093,5.1079,5.096,5.0541,4.9659,4.9539,4.9673,5.0122,5.0166,5.0495,5.1079,5.1139,5.1229,5.1229,5.1229,5.1229,5.1229,5.1229,5.1229,5.1229,5.1229,5.1229,5.1229,5.1433,5.1803,5.223,5.2962,5.3988,5.581,5.6614,5.7176,5.7551,5.7662,5.7845,5.7881,5.778,5.7408,5.7103,5.69,5.6528,5.5953,5.5784,5.5919,5.5987,5.6055,5.6055,5.6258,5.5886,5.5953,5.2804,5.2628,5.2427,5.2126,5.18,5.1574,5.1297,5.0971,5.077,5.0444,5.0167,5.0117,4.9916,4.959,4.959,4.959,4.954,4.9012,4.8786,4.8711,4.8184,4.7908,4.7857,4.738,4.7068,4.6993,4.6577,4.6024,4.5547,4.5497,4.492,4.3966,4.379,4.3514,4.3087,4.2986,4.2986,4.2986,4.2986,4.2986,4.2986,4.2986,4.2986,4.3042,4.3764,4.4613,4.5529,4.6867,4.8245,4.9659,5.0033,5.0164,5.012,4.9613,4.9464,4.9853,5.0076,5.0375,5.0764,5.1079,5.1229,5.1229,5.1229,5.1229,5.1229,5.1229,5.1229,5.1229,5.1229,5.093,5.069,5.0511,5.0601,5.081,5.087,5.093,5.1139,5.1229,5.1229,5.1229,5.1229,5.1229,5.1229,5.1229,5.1229,5.1229,5.1229,5.1229,5.1229,5.1323,5.1463,5.1618,5.2048,5.2785,5.3785,5.5353,5.6336,5.6911,5.7214,5.7327,5.7439,5.7625,5.7358,5.7509,5.7408,5.7306,5.6799,5.6833,5.6833,5.6867,5.69,5.6799,5.7103,5.6799,5.6867,5.2861,5.2861,5.2861,5.2729,5.2377,5.2176,5.19,5.1523,5.1348,5.0946,5.0494,5.0419,5.0117,4.9665,4.959,4.959,4.9565,4.9213,4.9038,4.8987,4.8636,4.846,4.836,4.7908,4.7556,4.728,4.6652,4.61,4.5799,4.5748,4.5246,4.4418,4.4342,4.4066,4.3589,4.3514,4.3438,4.3313,4.3413,4.3463,4.3288,4.3551,4.3739,4.3964,4.4856,4.5686,4.6294,4.7587,4.8923,5.022,5.0775,5.0803,5.0495,5.0122,5.0092,5.0435,5.0495,5.072,5.1139,5.1229,5.1229,5.1229,5.1229,5.1229,5.1229,5.1229,5.1229,5.1229,5.1229,5.1229,5.1229,5.1199,5.1229,5.1229,5.1229,5.1229,5.1229,5.1229,5.1229,5.1229,5.1229,5.1229,5.1229,5.1229,5.1229,5.1229,5.1229,5.1229,5.1229,5.1229,5.1229,5.1229,5.1572,5.2094,5.2843,5.3934,5.4985,5.5595,5.6303,5.6569,5.6992,5.7218,5.7551,5.7772,5.7881,5.7881,5.7881,5.7881,5.7881,5.7881,5.7679,5.7442,5.7645,5.778,5.7645,5.2861,5.2861,5.2861,5.2904,5.2779,5.2377,5.2126,5.2026,5.1599,5.1147,5.0695,5.0494,5.0218,4.9715,4.9615,4.959,4.959,4.954,4.9515,4.9515,4.949,4.9464,4.9414,4.8862,4.8259,4.7732,4.6803,4.6326,4.625,4.62,4.5924,4.5522,4.5321,4.497,4.451,4.4443,4.4267,4.394,4.4192,4.4242,4.3998,4.4529,4.51,4.5608,4.6848,4.7513,4.7256,4.8274,4.9571,5.0917,5.1182,5.1229,5.1139,5.1079,5.1169,5.1109,5.1169,5.1152,5.1199,5.1229,5.1229,5.1229,5.1229,5.1229,5.1229,5.1229,5.1229,5.1229,5.1229,5.1229,5.1229,5.1229,5.1229,5.1229,5.1229,5.1229,5.1229,5.1229,5.1229,5.1229,5.1229,5.1229,5.1229,5.1229,5.1199,5.1109,5.1169,5.1169,5.1109,5.1139,5.1229,5.1276,5.1386,5.1757,5.217,5.2592,5.3415,5.4243,5.5026,5.5595,5.627,5.6658,5.7331,5.7662,5.7881,5.7881,5.7881,5.7881,5.7881,5.7881,5.7881,5.7881,5.7881,5.7881,5.7881,5.2861,5.2861,5.2861,5.2861,5.2929,5.2729,5.2678,5.2653,5.2477,5.2101,5.1574,5.1172,5.0695,5.0167,4.9791,4.9615,4.959,4.959,4.959,4.959,4.959,4.959,4.949,4.9101,4.8284,4.7456,4.7054,4.6677,4.6376,4.6326,4.6024,4.5598,4.5497,4.5171,4.4694,4.4593,4.4342,4.3915,4.4342,4.4367,4.3972,4.4884,4.5768,4.6563,4.7728,4.8613,4.9228,4.9781,5.0418,5.1212,5.1229,5.1229,5.1229,5.1229,5.1229,5.1229,5.1229,5.1229,5.1229,5.1229,5.1259,5.1229,5.1229,5.1229,5.1229,5.1229,5.1229,5.1229,5.1229,5.1229,5.1229,5.1229,5.1229,5.1229,5.1229,5.1229,5.1229,5.1229,5.1229,5.1229,5.1229,5.1229,5.1229,5.1229,5.1033,5.0704,5.0913,5.1109,5.0704,5.102,5.1199,5.1229,5.1369,5.1416,5.1665,5.1849,5.2245,5.3108,5.3891,5.4861,5.5563,5.6309,5.6992,5.7588,5.7808,5.7881,5.7881,5.7881,5.7881,5.7881,5.7881,5.7881,5.7881,5.7881,5.7881,5.2861,5.2861,5.2861,5.2861,5.2861,5.2861,5.2861,5.2861,5.2861,5.2628,5.2076,5.1749,5.1272,5.077,5.0368,5.0092,4.9916,4.9891,4.9791,4.9615,4.959,4.959,4.9515,4.9038,4.846,4.7782,4.733,4.6892,4.6627,4.6401,4.6125,4.5849,4.5799,4.5648,4.5271,4.5246,4.497,4.4593,4.497,4.4995,4.4843,4.5725,4.682,4.7844,4.9146,5.0241,5.1121,5.1575,5.1621,5.1357,5.1439,5.1678,5.1887,5.1768,5.1588,5.1528,5.1379,5.1319,5.1528,5.1618,5.1738,5.1858,5.1708,5.1588,5.1528,5.1409,5.1229,5.1229,5.1229,5.1229,5.1229,5.1229,5.1229,5.1229,5.1229,5.1229,5.1229,5.1229,5.1229,5.1229,5.1229,5.1229,5.1229,5.1199,5.1033,5.0704,5.0913,5.1122,5.0734,5.0913,5.1139,5.1229,5.1229,5.1276,5.1229,5.1276,5.1276,5.1957,5.2771,5.3976,5.4952,5.5836,5.6608,5.7476,5.7881,5.7881,5.7881,5.7881,5.7881,5.7881,5.7881,5.7881,5.7881,5.7881,5.7881,5.2861,5.2861,5.2861,5.2861,5.2861,5.2861,5.2861,5.2861,5.2861,5.2653,5.2251,5.2076,5.18,5.1398,5.1172,5.087,5.0519,5.0343,5.0117,4.9766,4.964,4.959,4.9515,4.9113,4.8812,4.851,4.7757,4.7193,4.7029,4.6652,4.6326,4.625,4.6225,4.6301,4.615,4.6276,4.5899,4.5472,4.5924,4.5924,4.5506,4.6931,4.8247,4.9371,5.0768,5.1978,5.2756,5.3157,5.2792,5.1661,5.1977,5.2486,5.2905,5.2576,5.2247,5.2247,5.1678,5.1798,5.2127,5.2247,5.2456,5.2875,5.2516,5.2247,5.2187,5.1738,5.1409,5.1379,5.1289,5.1229,5.1229,5.1229,5.1229,5.1229,5.1229,5.1229,5.1229,5.1229,5.1229,5.1229,5.1229,5.1229,5.1229,5.1229,5.1169,5.1003,5.1033,5.1139,5.0973,5.0943,5.1169,5.1229,5.1229,5.1229,5.1229,5.1229,5.1229,5.1479,5.223,5.324,5.4537,5.5547,5.6414,5.7218,5.7772,5.7808,5.7881,5.7845,5.7881,5.7881,5.7881,5.7881,5.7881,5.7881,5.7915,5.2861,5.2861,5.2861,5.2861,5.2861,5.2861,5.2861,5.2861,5.2861,5.2829,5.2628,5.2277,5.2051,5.1875,5.1473,5.1197,5.0996,5.0645,5.0368,5.0142,4.9766,4.9615,4.959,4.9464,4.9163,4.8786,4.841,4.7933,4.7118,4.6943,4.6728,4.6326,4.6376,4.6326,4.6326,4.6326,4.6024,4.5623,4.6024,4.605,4.591,4.7243,4.8789,5.0351,5.162,5.2838,5.3692,5.3486,5.3245,5.2785,5.2785,5.3013,5.3204,5.3054,5.2935,5.2875,5.2755,5.2695,5.2875,5.2935,5.3025,5.3144,5.3084,5.2935,5.2905,5.2306,5.1977,5.1858,5.1558,5.1229,5.1229,5.1229,5.1229,5.1229,5.1229,5.1229,5.1229,5.1229,5.1229,5.1229,5.1229,5.1229,5.1229,5.1199,5.1079,5.0734,5.0853,5.1063,5.0883,5.0973,5.1229,5.1229,5.1229,5.1229,5.1229,5.1229,5.1229,5.1323,5.1895,5.2726,5.4105,5.5426,5.6297,5.7139,5.7256,5.7331,5.7625,5.7772,5.7808,5.7881,5.7881,5.7881,5.7881,5.7915,5.7983,5.2861,5.2861,5.2861,5.2861,5.2861,5.2861,5.2861,5.2861,5.2861,5.2861,5.2854,5.2603,5.2452,5.2427,5.2126,5.185,5.1599,5.1272,5.087,5.0318,4.9841,4.9615,4.959,4.959,4.9414,4.9138,4.8887,4.8435,4.7883,4.7581,4.728,4.7029,4.6753,4.6652,4.6652,4.6401,4.6175,4.5949,4.627,4.6364,4.6349,4.7847,4.9505,5.1044,5.2352,5.3477,5.438,5.4251,5.3922,5.3683,5.3623,5.3743,5.3982,5.3743,5.3623,5.3593,5.3354,5.3264,5.3563,5.3623,5.3743,5.3892,5.3832,5.3623,5.3443,5.2785,5.2187,5.2127,5.1588,5.1289,5.1229,5.1229,5.1229,5.1229,5.1229,5.1229,5.1229,5.1229,5.1229,5.1229,5.1229,5.1229,5.1229,5.1229,5.105,5.0794,5.102,5.099,5.0823,5.1079,5.1229,5.1229,5.1229,5.1229,5.1229,5.1229,5.1229,5.1276,5.1618,5.2411,5.3502,5.4943,5.5668,5.6303,5.6614,5.6958,5.7331,5.7662,5.7845,5.7881,5.7881,5.7881,5.7881,5.8186,5.822,5.2861,5.2861,5.2861,5.2861,5.2861,5.2861,5.2861,5.2861,5.2861,5.2861,5.2836,5.2861,5.2785,5.2861,5.2729,5.2628,5.2176,5.2,5.1297,5.0594,4.9967,4.9715,4.959,4.959,4.9565,4.9464,4.9063,4.8837,4.8535,4.8159,4.7958,4.7707,4.7355,4.7118,4.6943,4.6652,4.6401,4.6336,4.661,4.7027,4.7457,4.8789,5.0266,5.1783,5.3097,5.4097,5.4917,5.5029,5.485,5.4341,5.4311,5.4581,5.497,5.4551,5.4341,5.4251,5.3892,5.3803,5.4192,5.4311,5.4521,5.485,5.4551,5.4311,5.4102,5.3294,5.2636,5.2665,5.1828,5.1648,5.1618,5.1528,5.1588,5.1648,5.1558,5.1439,5.1319,5.1259,5.1229,5.1229,5.1229,5.1229,5.1229,5.1229,5.1199,5.102,5.1139,5.1079,5.102,5.1139,5.1229,5.1229,5.1229,5.1229,5.1229,5.1229,5.1229,5.1276,5.1602,5.2139,5.2918,5.4019,5.4736,5.5353,5.6113,5.6724,5.7105,5.7439,5.7772,5.7881,5.7881,5.7881,5.7915,5.8457,5.8693,5.2861,5.2861,5.2861,5.2861,5.2861,5.2861,5.2861,5.2861,5.2861,5.2861,5.2861,5.2861,5.2861,5.2861,5.2861,5.2854,5.2653,5.2277,5.1498,5.0519,5.0343,4.9967,4.969,4.9615,4.959,4.954,4.949,4.9188,4.8837,4.8661,4.836,4.7983,4.7857,4.7531,4.7143,4.7079,4.6702,4.6461,4.6866,4.7552,4.8379,4.9586,5.11,5.2673,5.4045,5.4824,5.5078,5.5209,5.5119,5.4999,5.494,5.5029,5.5119,5.5029,5.494,5.488,5.482,5.479,5.491,5.494,5.5029,5.5119,5.5029,5.497,5.494,5.4221,5.3773,5.3653,5.3174,5.2665,5.2606,5.2695,5.2636,5.2576,5.2606,5.2456,5.2037,5.1558,5.1379,5.1289,5.1319,5.1229,5.1259,5.1289,5.1289,5.1229,5.1229,5.1229,5.1229,5.1229,5.1229,5.1229,5.1229,5.1229,5.1229,5.1229,5.1229,5.1229,5.1509,5.1849,5.2592,5.3359,5.4221,5.5026,5.5908,5.6453,5.6992,5.7514,5.7881,5.7881,5.7881,5.7881,5.8051,5.8626,5.9167,5.2861,5.2861,5.2861,5.2861,5.2861,5.2861,5.2861,5.2861,5.2861,5.2861,5.2861,5.2861,5.2861,5.2861,5.2861,5.2861,5.2804,5.2352,5.1825,5.1172,5.0745,5.0268,4.9992,4.9715,4.959,4.959,4.959,4.9389,4.9213,4.9113,4.9012,4.8686,4.846,4.8234,4.7857,4.7631,4.738,4.7338,4.7819,4.8562,4.9414,5.0732,5.2174,5.3605,5.4692,5.5209,5.5209,5.5209,5.5209,5.5209,5.5209,5.5209,5.5209,5.5209,5.5209,5.5209,5.5209,5.5209,5.5179,5.5209,5.5179,5.5209,5.5209,5.5179,5.5059,5.4581,5.4251,5.4072,5.3623,5.3144,5.3174,5.3144,5.3174,5.3174,5.3174,5.2905,5.2366,5.2157,5.1977,5.1858,5.2007,5.1947,5.1858,5.1618,5.1379,5.1349,5.1229,5.1229,5.1229,5.1229,5.1229,5.1229,5.1229,5.1229,5.1229,5.1229,5.1229,5.1229,5.1276,5.1649,5.2124,5.2949,5.3825,5.4685,5.5588,5.6381,5.6954,5.748,5.7845,5.7881,5.7881,5.7881,5.8084,5.8592,5.9167,5.2861,5.2861,5.2861,5.2861,5.2861,5.2861,5.2861,5.2861,5.2861,5.2861,5.2861,5.2861,5.2861,5.2861,5.2861,5.2861,5.2804,5.2528,5.2151,5.185,5.1197,5.0695,5.0343,4.9992,4.9715,4.9615,4.959,4.9565,4.9565,4.959,4.9439,4.9464,4.9138,4.8761,4.8636,4.8309,4.7933,4.7881,4.8753,4.9699,5.0536,5.1877,5.3356,5.4503,5.4976,5.5179,5.5209,5.5209,5.5209,5.5209,5.5209,5.5209,5.5209,5.5209,5.5209,5.5209,5.5209,5.5209,5.5209,5.5209,5.5209,5.5209,5.5209,5.5209,5.5059,5.479,5.4551,5.4281,5.3982,5.3683,5.3503,5.3653,5.3623,5.3563,5.3533,5.3174,5.2815,5.3054,5.3084,5.2336,5.2456,5.2546,5.2276,5.2007,5.1708,5.1439,5.1349,5.1259,5.1289,5.1259,5.1289,5.1229,5.1229,5.1229,5.1229,5.1289,5.1289,5.1349,5.1319,5.16,5.194,5.2637,5.3533,5.4391,5.5231,5.6067,5.6724,5.7105,5.7439,5.7698,5.7772,5.7698,5.8005,5.8521,5.9133,5.2861,5.2861,5.2861,5.2861,5.2861,5.2861,5.2861,5.2861,5.2861,5.2861,5.2861,5.2861,5.2861,5.2861,5.2861,5.2861,5.281,5.2729,5.2528,5.2226,5.1749,5.1373,5.0645,5.0318,5.0017,4.969,4.959,4.959,4.959,4.959,4.959,4.9565,4.9464,4.9238,4.8887,4.8636,4.841,4.8372,4.9322,5.0373,5.1498,5.2796,5.4008,5.5075,5.5239,5.5179,5.5209,5.5209,5.5209,5.5209,5.5209,5.5209,5.5209,5.5209,5.5209,5.5209,5.5209,5.5209,5.5209,5.5209,5.5209,5.5209,5.5209,5.5209,5.5149,5.5089,5.491,5.491,5.485,5.479,5.485,5.464,5.479,5.479,5.467,5.4431,5.4042,5.4132,5.3982,5.2815,5.2905,5.3114,5.2845,5.2546,5.2276,5.1977,5.1768,5.1678,5.1678,5.1558,5.1439,5.1349,5.1229,5.1229,5.1229,5.1349,5.1409,5.1558,5.1635,5.1777,5.2122,5.2532,5.324,5.4269,5.5034,5.5668,5.6257,5.6608,5.6801,5.6915,5.7143,5.7439,5.7823,5.8167,5.8994,5.2861,5.2861,5.2861,5.2861,5.2861,5.2861,5.2861,5.2861,5.2861,5.2861,5.2861,5.2861,5.2861,5.2861,5.2861,5.2861,5.2861,5.2861,5.2779,5.2503,5.2226,5.19,5.1147,5.0745,5.0318,4.9992,4.9766,4.9615,4.959,4.959,4.959,4.959,4.959,4.9439,4.9264,4.9188,4.9038,4.9078,5.0064,5.1303,5.2565,5.4018,5.5204,5.5462,5.5359,5.5209,5.5209,5.5209,5.5209,5.5209,5.5209,5.5209,5.5209,5.5209,5.5209,5.5209,5.5209,5.5209,5.5209,5.5209,5.5209,5.5209,5.5209,5.5209,5.5209,5.5179,5.5209,5.5209,5.5209,5.5209,5.5149,5.5209,5.5209,5.5209,5.5179,5.488,5.4581,5.488,5.4251,5.3443,5.3892,5.3982,5.3563,5.3234,5.2905,5.2576,5.2247,5.2157,5.2097,5.2037,5.1947,5.2007,5.1977,5.1977,5.1947,5.1917,5.1917,5.1947,5.2055,5.2197,5.254,5.2978,5.3606,5.4414,5.5023,5.5095,5.5312,5.5515,5.5796,5.6106,5.642,5.6768,5.7319,5.7917,5.8676,5.2861,5.2861,5.2861,5.2861,5.2861,5.2861,5.2861,5.2861,5.2861,5.2861,5.2861,5.2861,5.2861,5.2861,5.2861,5.2861,5.2861,5.2861,5.2904,5.2804,5.2503,5.2226,5.1825,5.1297,5.067,5.0293,5.0268,4.9791,4.9615,4.959,4.959,4.959,4.959,4.959,4.9565,4.9515,4.959,4.9976,5.0879,5.2215,5.3886,5.5313,5.6218,5.6158,5.5538,5.5209,5.5209,5.5209,5.5209,5.5209,5.5209,5.5209,5.5209,5.5209,5.5209,5.5209,5.5209,5.5209,5.5209,5.5209,5.5209,5.5209,5.5209,5.5209,5.5209,5.5209,5.5209,5.5209,5.5209,5.5209,5.5209,5.5209,5.5209,5.5209,5.5149,5.5029,5.479,5.482,5.494,5.467,5.5029,5.47,5.4072,5.3803,5.3443,5.2995,5.2665,5.2725,5.2695,5.2785,5.2785,5.2905,5.2935,5.2905,5.2875,5.2785,5.2725,5.2665,5.2695,5.2792,5.3182,5.359,5.403,5.422,5.3835,5.3909,5.4123,5.4475,5.4704,5.5076,5.5603,5.6113,5.6641,5.7348,5.8126,5.2861,5.2861,5.2861,5.2861,5.2861,5.2861,5.2861,5.2861,5.2861,5.2861,5.2861,5.2861,5.2861,5.2861,5.2861,5.2861,5.2861,5.2861,5.2861,5.281,5.2779,5.2528,5.2176,5.2026,5.1247,5.0795,5.087,5.0444,4.9967,4.9741,4.964,4.9665,4.964,4.959,4.959,4.959,4.959,4.9847,5.0968,5.2816,5.4828,5.5883,5.6251,5.6188,5.5718,5.5359,5.5448,5.5448,5.5388,5.5329,5.5269,5.5209,5.5209,5.5209,5.5209,5.5209,5.5209,5.5209,5.5209,5.5209,5.5209,5.5209,5.5209,5.5209,5.5209,5.5209,5.5209,5.5209,5.5209,5.5209,5.5209,5.5209,5.5209,5.5209,5.5179,5.5179,5.5059,5.491,5.4999,5.5029,5.5119,5.482,5.4341,5.4162,5.3952,5.3503,5.3204,5.3264,5.3384,5.3533,5.3593,5.3683,5.3743,5.3743,5.3743,5.3683,5.3593,5.3473,5.3522,5.3522,5.3819,5.4007,5.3639,5.3675,5.331,5.3346,5.3985,5.4184,5.3915,5.403,5.4463,5.5198,5.5948,5.6779,5.7561,5.2653,5.2861,5.2861,5.2861,5.2861,5.2861,5.2861,5.2861,5.2861,5.2861,5.2861,5.2861,5.2861,5.2861,5.2861,5.2861,5.2861,5.2861,5.2861,5.2861,5.2836,5.2804,5.2553,5.2251,5.1699,5.1498,5.1272,5.1071,5.0544,5.0218,5.0042,4.9992,4.9766,4.959,4.959,4.959,4.959,5.027,5.1891,5.4094,5.5681,5.6765,5.7244,5.7214,5.6555,5.6286,5.6196,5.6256,5.6256,5.6196,5.5987,5.5748,5.5628,5.5448,5.5209,5.5209,5.5209,5.5209,5.5209,5.5209,5.5209,5.5209,5.5209,5.5209,5.5209,5.5209,5.5209,5.5209,5.5209,5.5209,5.5209,5.5209,5.5209,5.5209,5.5388,5.5329,5.5329,5.5209,5.5149,5.5179,5.5179,5.491,5.47,5.467,5.4581,5.4401,5.4192,5.4281,5.4371,5.4521,5.4521,5.4491,5.4491,5.4491,5.4551,5.4551,5.4521,5.4431,5.4461,5.4461,5.4431,5.4421,5.4132,5.3982,5.4007,5.4122,5.4182,5.3468,5.2839,5.3042,5.3328,5.4348,5.5348,5.6211,5.7044,5.2352,5.2729,5.2879,5.2861,5.2861,5.2861,5.2861,5.2861,5.2861,5.2861,5.2861,5.2861,5.2861,5.2861,5.2861,5.2861,5.2861,5.2861,5.2861,5.2861,5.2861,5.2861,5.2779,5.2477,5.2251,5.2126,5.195,5.1649,5.1398,5.1071,5.077,5.0444,5.0042,4.9766,4.9615,4.9654,4.9719,5.0525,5.2849,5.4828,5.6251,5.7462,5.7898,5.7872,5.7513,5.7094,5.7094,5.7034,5.7034,5.6915,5.6406,5.6128,5.6068,5.5538,5.5239,5.5209,5.5209,5.5209,5.5209,5.5209,5.5209,5.5209,5.5209,5.5209,5.5209,5.5209,5.5209,5.5209,5.5209,5.5269,5.5388,5.5478,5.5688,5.5777,5.5807,5.5718,5.5628,5.5628,5.5568,5.5538,5.5478,5.5209,5.5059,5.5119,5.5149,5.5149,5.5179,5.5209,5.5179,5.5119,5.5059,5.488,5.488,5.488,5.494,5.5059,5.5179,5.5209,5.5209,5.5149,5.494,5.494,5.485,5.476,5.464,5.437,5.4189,5.2923,5.185,5.2809,5.362,5.3988,5.4813,5.5774,5.7039,5.2126,5.2201,5.2703,5.2836,5.2861,5.2861,5.2861,5.2861,5.2861,5.2861,5.2861,5.2861,5.2861,5.2861,5.2861,5.2861,5.2861,5.2861,5.2861,5.2861,5.2861,5.2861,5.2879,5.2779,5.2603,5.2327,5.2352,5.2352,5.2151,5.195,5.1297,5.0544,5.0469,5.0067,4.9841,4.9856,5.0346,5.1309,5.3362,5.5032,5.6337,5.7474,5.8178,5.8052,5.7543,5.7094,5.7124,5.7274,5.7363,5.7334,5.6795,5.6466,5.6436,5.5867,5.5568,5.5538,5.5508,5.5538,5.5508,5.5299,5.5209,5.5209,5.5209,5.5209,5.5209,5.5209,5.5209,5.5239,5.5299,5.5568,5.5837,5.6188,5.6286,5.6436,5.6466,5.6496,5.6376,5.6196,5.6137,5.6038,5.5748,5.5478,5.5209,5.5209,5.5209,5.5209,5.5209,5.5209,5.5209,5.5179,5.5179,5.5119,5.5119,5.5119,5.5149,5.5209,5.5209,5.5209,5.5209,5.5209,5.5149,5.5209,5.5209,5.5059,5.479,5.4491,5.4192,5.3533,5.323,5.3519,5.3891,5.419,5.5323,5.6672,5.8065,5.1473,5.2126,5.2327,5.2628,5.2861,5.2861,5.2861,5.2861,5.2861,5.2861,5.2861,5.2861,5.2861,5.2861,5.2861,5.2861,5.2861,5.2861,5.2861,5.2861,5.2861,5.2861,5.2861,5.2836,5.2804,5.2678,5.2829,5.2879,5.2628,5.2553,5.2176,5.1599,5.1172,5.0896,5.0619,5.0258,5.0755,5.181,5.3423,5.5032,5.6423,5.7908,5.871,5.868,5.859,5.8351,5.8381,5.8351,5.8321,5.8112,5.7603,5.7363,5.7124,5.6585,5.6286,5.6256,5.6226,5.6226,5.6077,5.5688,5.5209,5.5209,5.5209,5.5239,5.5329,5.5239,5.5209,5.5299,5.5598,5.5987,5.6158,5.6496,5.6825,5.7034,5.7154,5.7244,5.7154,5.6944,5.6675,5.6526,5.6107,5.5718,5.5448,5.5209,5.5209,5.5209,5.5209,5.5209,5.5209,5.5209,5.5209,5.5209,5.5209,5.5209,5.5209,5.5209,5.5209,5.5209,5.5209,5.5209,5.5209,5.5209,5.5179,5.5059,5.5029,5.485,5.467,5.4551,5.4321,5.3988,5.4031,5.4265,5.57,5.7494,5.883,5.087,5.1624,5.1975,5.2427,5.2836,5.2861,5.2861,5.2861,5.2861,5.2861,5.2861,5.2861,5.2861,5.2861,5.2861,5.2861,5.2861,5.2861,5.2861,5.2861,5.2861,5.2861,5.2861,5.2861,5.2836,5.2861,5.2861,5.2836,5.2879,5.2861,5.2653,5.2277,5.1975,5.1699,5.1096,5.0786,5.0867,5.2035,5.3477,5.5032,5.6451,5.8055,5.9069,5.9069,5.8979,5.8979,5.8949,5.8919,5.8949,5.877,5.8441,5.8141,5.7872,5.7573,5.7184,5.7124,5.7124,5.7124,5.6855,5.6406,5.5777,5.5927,5.5897,5.5867,5.5748,5.5748,5.5957,5.5927,5.6256,5.6496,5.6645,5.7214,5.7633,5.7902,5.7992,5.8052,5.7872,5.7693,5.7334,5.7034,5.6615,5.6226,5.5867,5.5628,5.5448,5.5359,5.5209,5.5209,5.5209,5.5209,5.5209,5.5209,5.5209,5.5209,5.5209,5.5209,5.5209,5.5209,5.5209,5.5209,5.5209,5.5209,5.5209,5.5149,5.5149,5.5179,5.5089,5.488,5.4491,5.4091,5.4449,5.5014,5.6507,5.8215,5.9308,5.0444,5.0594,5.1649,5.2377,5.2785,5.2929,5.2861,5.2861,5.2861,5.2861,5.2861,5.2861,5.2861,5.2861,5.2861,5.2861,5.2861,5.2861,5.2861,5.2861,5.2861,5.2861,5.2861,5.2861,5.2861,5.2861,5.2861,5.2861,5.2861,5.2861,5.2854,5.2829,5.2603,5.2226,5.1348,5.0745,5.1136,5.2391,5.3754,5.5113,5.648,5.814,5.8991,5.9099,5.9099,5.9099,5.9099,5.9099,5.9099,5.9009,5.862,5.8321,5.8201,5.7723,5.7393,5.7334,5.7304,5.7244,5.7124,5.7064,5.7004,5.6795,5.6615,5.6705,5.6915,5.6944,5.6795,5.6615,5.6974,5.7363,5.7723,5.8112,5.8411,5.859,5.865,5.865,5.8471,5.8351,5.7992,5.7573,5.7214,5.6885,5.6466,5.6107,5.5837,5.5598,5.5299,5.5239,5.5329,5.5209,5.5209,5.5209,5.5209,5.5209,5.5209,5.5209,5.5209,5.5209,5.5209,5.5209,5.5209,5.5209,5.5209,5.5209,5.5209,5.5209,5.5209,5.5149,5.482,5.465,5.5406,5.6217,5.7635,5.8678,5.9543,5.0092,5.0494,5.1247,5.1875,5.2402,5.2804,5.2861,5.2861,5.2861,5.2861,5.2861,5.2861,5.2861,5.2861,5.2861,5.2861,5.2861,5.2861,5.2861,5.2861,5.2861,5.2861,5.2861,5.2861,5.2861,5.2861,5.2861,5.2861,5.2861,5.2861,5.2861,5.2861,5.281,5.2528,5.2,5.1565,5.1936,5.2627,5.3985,5.5451,5.6509,5.8114,5.9099,5.9099,5.9099,5.9099,5.9099,5.9099,5.9099,5.9099,5.874,5.871,5.871,5.8321,5.8351,5.8381,5.8381,5.8441,5.8441,5.8351,5.7932,5.7513,5.7214,5.7244,5.7124,5.7094,5.7094,5.7274,5.7603,5.7902,5.8052,5.856,5.886,5.8919,5.8979,5.8979,5.889,5.886,5.862,5.8171,5.7752,5.7453,5.7064,5.6885,5.6615,5.6466,5.6256,5.5867,5.5837,5.5388,5.5209,5.5209,5.5209,5.5209,5.5209,5.5209,5.5209,5.5209,5.5209,5.5209,5.5209,5.5209,5.5209,5.5209,5.5209,5.5209,5.5209,5.5209,5.5209,5.535,5.5849,5.6329,5.7245,5.8251,5.9173,4.9816,5.0218,5.0971,5.1473,5.1925,5.2603,5.2861,5.2861,5.2861,5.2861,5.2861,5.2861,5.2861,5.2861,5.2861,5.2861,5.2861,5.2861,5.2861,5.2861,5.2861,5.2861,5.2861,5.2861,5.2861,5.2861,5.2861,5.2861,5.2861,5.2861,5.2861,5.2861,5.2929,5.2797,5.2538,5.2371,5.2419,5.3214,5.4581,5.5702,5.6852,5.8124,5.9099,5.9099,5.9099,5.9099,5.9099,5.9099,5.9099,5.9099,5.9099,5.9099,5.9099,5.9099,5.9099,5.9099,5.9099,5.9069,5.9009,5.9009,5.853,5.8022,5.7812,5.7812,5.7782,5.7932,5.7932,5.8052,5.8231,5.8351,5.853,5.9039,5.9069,5.9099,5.9099,5.9099,5.9099,5.9039,5.8979,5.853,5.8381,5.8052,5.7782,5.7663,5.7483,5.7393,5.7274,5.6825,5.6316,5.5807,5.5359,5.5299,5.5239,5.5209,5.5209,5.5209,5.5209,5.5209,5.5209,5.5209,5.5209,5.5209,5.5209,5.5209,5.5209,5.5209,5.5209,5.5209,5.5209,5.533,5.5651,5.6232,5.6879,5.7885,5.8979,4.959,4.9766,5.0795,5.1272,5.1473,5.2477,5.2861,5.2861,5.2861,5.2861,5.2861,5.2861,5.2861,5.2861,5.2861,5.2861,5.2861,5.2861,5.2861,5.2861,5.2861,5.2861,5.2861,5.2861,5.2861,5.2861,5.2861,5.2861,5.2861,5.2861,5.2861,5.2861,5.2861,5.306,5.302,5.3106,5.3284,5.427,5.529,5.6385,5.7427,5.8552,5.9086,5.9159,5.9099,5.9099,5.9099,5.9099,5.9099,5.9099,5.9099,5.9099,5.9099,5.9099,5.9099,5.9099,5.9099,5.9099,5.9099,5.9099,5.9069,5.874,5.886,5.9009,5.8919,5.871,5.865,5.868,5.883,5.8919,5.9099,5.9099,5.9099,5.9099,5.9099,5.9099,5.9099,5.9099,5.9099,5.8979,5.8949,5.877,5.865,5.8501,5.8171,5.8261,5.8052,5.7513,5.6974,5.6256,5.5807,5.5448,5.5359,5.5209,5.5209,5.5239,5.5209,5.5209,5.5209,5.5209,5.5209,5.5209,5.5209,5.5209,5.5209,5.5209,5.5209,5.5209,5.5209,5.5431,5.5631,5.6183,5.6879,5.7963,5.9056,4.959,4.9665,5.0368,5.0896,5.1423,5.2452,5.2861,5.2861,5.2861,5.2861,5.2861,5.2861,5.2861,5.2861,5.2861,5.2861,5.2861,5.2861,5.2861,5.2861,5.2861,5.2861,5.2861,5.2861,5.2861,5.2861,5.2861,5.2861,5.2861,5.2861,5.2861,5.2861,5.2861,5.3273,5.3784,5.4211,5.4787,5.5521,5.6555,5.7338,5.809,5.9129,5.9354,5.9249,5.9099,5.9099,5.9099,5.9099,5.9099,5.9099,5.9099,5.9099,5.9099,5.9099,5.9099,5.9099,5.9099,5.9099,5.9099,5.9099,5.9099,5.9099,5.9099,5.9099,5.9099,5.9099,5.9099,5.9099,5.9099,5.9099,5.9099,5.9099,5.9099,5.9099,5.9099,5.9099,5.9099,5.9099,5.9099,5.9099,5.9099,5.9099,5.9039,5.8979,5.871,5.8919,5.88,5.8231,5.7663,5.6944,5.6346,5.5957,5.5718,5.5628,5.5388,5.5359,5.5269,5.5209,5.5359,5.5448,5.5448,5.5418,5.5269,5.5329,5.5538,5.5418,5.5209,5.5299,5.5598,5.5501,5.5691,5.6293,5.7005,5.8136,5.9261,4.959,4.9665,5.0193,5.087,5.1649,5.2302,5.2703,5.2836,5.2861,5.2861,5.2861,5.2861,5.2861,5.2861,5.2861,5.2861,5.2861,5.2861,5.2861,5.2861,5.2861,5.2861,5.2861,5.2861,5.2861,5.2861,5.2861,5.2861,5.2861,5.2861,5.2861,5.2861,5.2861,5.3452,5.4216,5.5181,5.6267,5.7122,5.8043,5.8596,5.916,5.9652,5.9533,5.9279,5.9129,5.9099,5.9099,5.9099,5.9099,5.9099,5.9099,5.9099,5.9099,5.9099,5.9099,5.9099,5.9099,5.9099,5.9099,5.9099,5.9099,5.9099,5.9099,5.9099,5.9099,5.9099,5.9099,5.9099,5.9099,5.9099,5.9099,5.9099,5.9099,5.9099,5.9099,5.9099,5.9099,5.9099,5.9099,5.9099,5.9099,5.9099,5.9099,5.9099,5.9099,5.9099,5.9039,5.883,5.8321,5.7752,5.7124,5.6615,5.6346,5.6166,5.5897,5.5777,5.5897,5.6017,5.6166,5.6196,5.5927,5.5957,5.6107,5.6077,5.6077,5.5957,5.5897,5.5987,5.6188,5.6071,5.6234,5.6987,5.7841,5.8718,5.9788,4.959,4.964,5.0193,5.0971,5.19,5.2051,5.2402,5.2854,5.281,5.2861,5.2861,5.2861,5.2861,5.2861,5.2861,5.2861,5.2861,5.2861,5.2861,5.2861,5.2861,5.2861,5.2861,5.2861,5.2861,5.2861,5.2861,5.2861,5.2861,5.2861,5.2861,5.2861,5.2861,5.3452,5.4552,5.5998,5.7314,5.8709,5.9508,6.0121,5.9943,6.0004,5.9877,5.9338,5.9189,5.9099,5.9099,5.9099,5.9099,5.9099,5.9099,5.9099,5.9099,5.9099,5.9099,5.9099,5.9099,5.9099,5.9099,5.9099,5.9099,5.9099,5.9099,5.9099,5.9099,5.9099,5.9099,5.9099,5.9099,5.9099,5.9099,5.9099,5.9099,5.9099,5.9099,5.9099,5.9099,5.9099,5.9099,5.9099,5.9099,5.9099,5.9099,5.9099,5.9099,5.9099,5.9099,5.9039,5.886,5.8381,5.7872,5.7244,5.6855,5.6645,5.6675,5.6615,5.6795,5.6944,5.6974,5.6855,5.6555,5.6735,5.7034,5.6825,5.6555,5.6765,5.6825,5.6765,5.6675,5.6809,5.717,5.7943,5.8641,5.9301,6.0417,4.959,4.964,5.0193,5.0594,5.0946,5.1749,5.2151,5.2352,5.2754,5.2836,5.2861,5.2861,5.2861,5.2861,5.2861,5.2861,5.2861,5.2861,5.2861,5.2861,5.2861,5.2861,5.2861,5.2861,5.2861,5.2861,5.2861,5.2861,5.2861,5.2861,5.2861,5.2861,5.2929,5.3521,5.4887,5.6493,5.8222,5.9711,6.1112,6.1408,6.1108,6.0827,6.0565,5.9907,5.9518,5.9189,5.9129,5.9099,5.9099,5.9099,5.9099,5.9099,5.9099,5.9099,5.9099,5.9099,5.9099,5.9099,5.9099,5.9099,5.9099,5.9099,5.9099,5.9099,5.9099,5.9099,5.9099,5.9099,5.9099,5.9099,5.9099,5.9099,5.9099,5.9099,5.9099,5.9099,5.9099,5.9099,5.9099,5.9099,5.9099,5.9099,5.9099,5.9099,5.9099,5.9099,5.9099,5.9099,5.9099,5.88,5.8501,5.7902,5.7304,5.7124,5.7244,5.7393,5.7543,5.7423,5.7363,5.7274,5.7184,5.7363,5.7573,5.7214,5.7034,5.7363,5.7423,5.7124,5.7146,5.7386,5.7633,5.8222,5.8787,5.9365,6.0786,4.959,4.964,4.9916,5.0193,5.0519,5.1096,5.1624,5.2101,5.2427,5.2703,5.2904,5.2861,5.2861,5.2861,5.2861,5.2861,5.2861,5.2861,5.2861,5.2861,5.2861,5.2861,5.2861,5.2861,5.2861,5.2861,5.2861,5.2861,5.2861,5.2861,5.2861,5.2861,5.2998,5.3632,5.5061,5.6946,5.8662,6.0108,6.2087,6.2609,6.2162,6.1739,6.0984,6.0266,5.9757,5.9428,5.9129,5.9099,5.9099,5.9099,5.9099,5.9099,5.9099,5.9099,5.9099,5.9099,5.9099,5.9099,5.9099,5.9099,5.9099,5.9099,5.9099,5.9099,5.9099,5.9099,5.9099,5.9099,5.9099,5.9099,5.9099,5.9099,5.9099,5.9099,5.9099,5.9099,5.9099,5.9099,5.9099,5.9099,5.9099,5.9099,5.9099,5.9099,5.9099,5.9099,5.9099,5.9099,5.9099,5.9099,5.886,5.859,5.7992,5.7932,5.8201,5.8261,5.8231,5.8082,5.7842,5.8022,5.8171,5.8082,5.8022,5.7902,5.7902,5.8112,5.8052,5.7782,5.7932,5.8261,5.8308,5.846,5.8923,5.944,6.0496,4.959,4.959,4.9615,4.9866,5.0293,5.0419,5.0971,5.1774,5.2051,5.2377,5.2754,5.2879,5.2861,5.2861,5.2861,5.2861,5.2861,5.2861,5.2861,5.2861,5.2861,5.2861,5.2861,5.2861,5.2861,5.2861,5.2861,5.2861,5.2861,5.2861,5.2861,5.2861,5.3179,5.3589,5.5194,5.6946,5.8662,6.0202,6.1791,6.2905,6.278,6.245,6.1493,6.0715,6.0116,5.9787,5.9398,5.9159,5.9159,5.9099,5.9099,5.9099,5.9099,5.9099,5.9099,5.9099,5.9099,5.9099,5.9099,5.9099,5.9099,5.9099,5.9099,5.9099,5.9099,5.9099,5.9099,5.9099,5.9099,5.9099,5.9099,5.9099,5.9099,5.9099,5.9099,5.9099,5.9099,5.9099,5.9099,5.9099,5.9099,5.9099,5.9099,5.9099,5.9099,5.9099,5.9099,5.9099,5.9099,5.9099,5.8979,5.8919,5.868,5.877,5.8979,5.886,5.871,5.871,5.856,5.889,5.9039,5.874,5.865,5.883,5.889,5.874,5.88,5.868,5.889,5.8919,5.8824,5.8751,5.8948,5.9478,6.0019,4.959,4.959,4.959,4.9665,4.9816,5.0218,5.0569,5.087,5.1724,5.2176,5.2377,5.2754,5.2861,5.2861,5.2861,5.2861,5.2861,5.2861,5.2861,5.2861,5.2861,5.2861,5.2861,5.2861,5.2861,5.2861,5.2861,5.2861,5.2861,5.2861,5.2861,5.2861,5.2861,5.3632,5.5127,5.6882,5.8724,6.0262,6.185,6.3137,6.2957,6.254,6.2121,6.1373,6.0625,6.0236,5.9787,5.9368,5.9189,5.9099,5.9159,5.9189,5.9159,5.9159,5.9099,5.9099,5.9099,5.9099,5.9099,5.9099,5.9099,5.9099,5.9099,5.9099,5.9099,5.9099,5.9099,5.9099,5.9099,5.9099,5.9099,5.9099,5.9099,5.9099,5.9099,5.9099,5.9099,5.9099,5.9099,5.9099,5.9099,5.9099,5.9099,5.9099,5.9099,5.9099,5.9099,5.9099,5.9099,5.9099,5.9099,5.9099,5.9099,5.9099,5.9069,5.9069,5.8979,5.9069,5.9099,5.9099,5.9099,5.9099,5.9099,5.9099,5.9099,5.9009,5.9099,5.9099,5.9099,5.9039,5.9069,5.9093,5.9207,5.9369,5.9789]}]]